Time,TemperatureF,DewpointF,PressureIn,WindDirection,WindDirectionDegrees,WindSpeedMPH,WindSpeedGustMPH,Humidity,HourlyPrecipIn,Conditions,Clouds,dailyrainin,SolarRadiationWatts/m^2,SoftwareType,DateUTC
2013-01-03 00:00:00,29.5,23.2,29.03,North,0,0.0,0.0,77,0.00,,,0.00,0.00,VWS V14.01,2013-01-03 06:00:00,
2013-01-03 00:01:00,29.5,23.2,29.03,North,0,0.0,0.0,77,0.00,,,0.00,0.00,VWS V14.01,2013-01-03 06:01:00,
2013-01-03 00:02:00,29.5,23.2,29.03,North,0,0.0,0.0,77,0.00,,,0.00,0.00,VWS V14.01,2013-01-03 06:02:00,
2013-01-03 00:03:00,29.5,23.2,29.03,North,0,0.0,0.0,77,0.00,,,0.00,0.00,VWS V14.01,2013-01-03 06:03:00,
2013-01-03 00:04:00,29.5,23.2,29.03,North,0,0.0,0.0,77,0.00,,,0.00,0.00,VWS V14.01,2013-01-03 06:04:00,
2013-01-03 00:05:00,29.5,23.2,29.03,North,0,0.0,0.0,77,0.00,,,0.00,0.00,VWS V14.01,2013-01-03 06:05:00,
2013-01-03 00:06:00,29.5,23.2,29.06,North,0,0.0,0.0,77,0.00,,,0.00,0.00,VWS V14.01,2013-01-03 06:06:00,
2013-01-03 00:07:00,29.7,23.4,29.06,North,0,0.0,0.0,77,0.00,,,0.00,0.00,VWS V14.01,2013-01-03 06:07:00,
2013-01-03 00:08:00,29.7,23.0,29.06,North,0,0.0,0.0,76,0.00,,,0.00,0.00,VWS V14.01,2013-01-03 06:08:00,
2013-01-03 00:09:00,29.7,23.0,29.06,North,0,0.0,0.0,76,0.00,,,0.00,0.00,VWS V14.01,2013-01-03 06:09:00,
2013-01-03 00:10:00,29.7,23.0,29.06,North,0,0.0,0.0,76,0.00,,,0.00,0.00,VWS V14.01,2013-01-03 06:10:00,
2013-01-03 00:11:00,29.7,23.0,29.06,North,0,0.0,0.0,76,0.00,,,0.00,0.00,VWS V14.01,2013-01-03 06:11:00,
2013-01-03 00:12:00,29.7,23.0,29.06,North,0,0.0,0.0,76,0.00,,,0.00,0.00,VWS V14.01,2013-01-03 06:12:00,
2013-01-03 00:13:00,29.7,23.0,29.06,North,0,0.0,0.0,76,0.00,,,0.00,0.00,VWS V14.01,2013-01-03 06:13:00,
2013-01-03 00:14:00,29.7,23.0,29.06,North,0,0.0,0.0,76,0.00,,,0.00,0.00,VWS V14.01,2013-01-03 06:14:00,
2013-01-03 00:15:00,29.7,23.0,29.06,North,0,0.0,0.0,76,0.00,,,0.00,0.00,VWS V14.01,2013-01-03 06:15:00,
2013-01-03 00:16:00,29.7,23.0,29.06,North,0,0.0,0.0,76,0.00,,,0.00,0.00,VWS V14.01,2013-01-03 06:16:00,
2013-01-03 00:17:00,29.7,23.0,29.06,North,0,0.0,0.0,76,0.00,,,0.00,0.00,VWS V14.01,2013-01-03 06:17:00,
2013-01-03 00:18:00,29.5,22.9,29.06,North,0,0.0,0.0,76,0.00,,,0.00,0.00,VWS V14.01,2013-01-03 06:18:00,
2013-01-03 00:19:00,29.5,22.9,29.06,North,0,0.0,0.0,76,0.00,,,0.00,0.00,VWS V14.01,2013-01-03 06:19:00,
2013-01-03 00:20:00,29.5,22.9,29.06,North,0,0.0,0.0,76,0.00,,,0.00,0.00,VWS V14.01,2013-01-03 06:20:00,
2013-01-03 00:21:00,29.7,23.0,29.06,North,0,0.0,0.0,76,0.00,,,0.00,0.00,VWS V14.01,2013-01-03 06:21:00,
2013-01-03 00:22:00,29.7,23.0,29.06,North,0,0.0,0.0,76,0.00,,,0.00,0.00,VWS V14.01,2013-01-03 06:22:00,
2013-01-03 00:23:00,29.7,23.0,29.06,North,0,0.0,0.0,76,0.00,,,0.00,0.00,VWS V14.01,2013-01-03 06:23:00,
2013-01-03 00:24:00,29.7,23.0,29.06,North,0,0.0,0.0,76,0.00,,,0.00,0.00,VWS V14.01,2013-01-03 06:24:00,
2013-01-03 00:25:00,29.7,23.0,29.06,North,0,0.0,0.0,76,0.00,,,0.00,0.00,VWS V14.01,2013-01-03 06:25:00,
2013-01-03 00:26:00,29.7,23.0,29.06,North,0,0.0,0.0,76,0.00,,,0.00,0.00,VWS V14.01,2013-01-03 06:26:00,
2013-01-03 00:27:00,29.7,23.0,29.06,North,0,0.0,0.0,76,0.00,,,0.00,0.00,VWS V14.01,2013-01-03 06:27:00,
2013-01-03 00:28:00,29.7,23.0,29.06,North,0,0.0,0.0,76,0.00,,,0.00,0.00,VWS V14.01,2013-01-03 06:28:00,
2013-01-03 00:29:00,29.7,23.0,29.06,North,0,0.0,0.0,76,0.00,,,0.00,0.00,VWS V14.01,2013-01-03 06:29:00,
2013-01-03 00:30:00,29.7,23.0,29.06,North,0,0.0,0.0,76,0.00,,,0.00,0.00,VWS V14.01,2013-01-03 06:30:00,
2013-01-03 00:31:00,29.7,23.0,29.06,North,0,0.0,0.0,76,0.00,,,0.00,0.00,VWS V14.01,2013-01-03 06:31:00,
2013-01-03 00:32:00,29.7,23.0,29.06,North,0,0.0,0.0,76,0.00,,,0.00,0.00,VWS V14.01,2013-01-03 06:32:00,
2013-01-03 00:33:00,29.7,23.0,29.06,North,0,0.0,0.0,76,0.00,,,0.00,0.00,VWS V14.01,2013-01-03 06:33:00,
2013-01-03 02:10:00,29.3,21.4,29.06,North,0,0.0,0.0,72,0.00,,,0.00,0.00,VWS V14.01,2013-01-03 08:10:00,
2013-01-03 02:15:00,29.1,21.2,29.09,North,0,0.0,0.0,72,0.00,,,0.00,0.00,VWS V14.01,2013-01-03 08:15:00,
2013-01-03 02:20:00,29.1,21.2,29.09,North,0,0.0,0.0,72,0.00,,,0.00,0.00,VWS V14.01,2013-01-03 08:20:00,
2013-01-03 02:25:00,28.9,21.4,29.09,North,0,0.0,0.0,73,0.00,,,0.00,0.00,VWS V14.01,2013-01-03 08:25:00,
2013-01-03 02:30:00,28.9,21.4,29.09,North,0,0.0,0.0,73,0.00,,,0.00,0.00,VWS V14.01,2013-01-03 08:30:00,
2013-01-03 02:35:00,28.9,21.4,29.09,North,0,0.0,0.0,73,0.00,,,0.00,0.00,VWS V14.01,2013-01-03 08:35:00,
2013-01-03 02:40:00,28.9,21.4,29.09,North,0,0.0,0.0,73,0.00,,,0.00,0.00,VWS V14.01,2013-01-03 08:40:00,
2013-01-03 02:45:00,28.9,21.4,29.09,North,0,0.0,0.0,73,0.00,,,0.00,0.00,VWS V14.01,2013-01-03 08:45:00,
2013-01-03 02:50:00,28.8,21.2,29.09,North,0,0.0,0.0,73,0.00,,,0.00,0.00,VWS V14.01,2013-01-03 08:50:00,
2013-01-03 02:55:00,28.8,21.2,29.09,North,0,0.0,0.0,73,0.00,,,0.00,0.00,VWS V14.01,2013-01-03 08:55:00,
2013-01-03 03:00:00,28.8,21.2,29.09,North,0,0.0,0.0,73,0.00,,,0.00,0.00,VWS V14.01,2013-01-03 09:00:00,
2013-01-03 03:05:00,28.8,21.2,29.09,North,0,0.0,0.0,73,0.00,,,0.00,0.00,VWS V14.01,2013-01-03 09:05:00,
2013-01-03 03:10:00,28.6,21.0,29.09,North,0,0.0,0.0,73,0.00,,,0.00,0.00,VWS V14.01,2013-01-03 09:10:00,
2013-01-03 03:11:00,29.3,21.4,29.06,North,0,0.0,0.0,72,0.00,,,0.00,0.00,VWS V14.01,2013-01-03 09:11:00,
2013-01-03 03:12:00,29.1,21.2,29.09,North,0,0.0,0.0,72,0.00,,,0.00,0.00,VWS V14.01,2013-01-03 09:12:00,
2013-01-03 03:13:00,29.1,21.2,29.09,North,0,0.0,0.0,72,0.00,,,0.00,0.00,VWS V14.01,2013-01-03 09:13:00,
2013-01-03 03:14:00,29.1,21.2,29.09,North,0,0.0,0.0,72,0.00,,,0.00,0.00,VWS V14.01,2013-01-03 09:14:00,
2013-01-03 03:15:00,29.1,21.2,29.09,North,0,0.0,0.0,72,0.00,,,0.00,0.00,VWS V14.01,2013-01-03 09:15:00,
2013-01-03 03:16:00,28.6,21.0,29.09,North,0,0.0,0.0,73,0.00,,,0.00,0.00,VWS V14.01,2013-01-03 09:16:00,
2013-01-03 03:17:00,29.1,21.2,29.09,North,0,0.0,0.0,72,0.00,,,0.00,0.00,VWS V14.01,2013-01-03 09:17:00,
2013-01-03 03:18:00,29.1,21.2,29.09,North,0,0.0,0.0,72,0.00,,,0.00,0.00,VWS V14.01,2013-01-03 09:18:00,
2013-01-03 03:19:00,29.1,21.2,29.09,North,0,0.0,0.0,72,0.00,,,0.00,0.00,VWS V14.01,2013-01-03 09:19:00,
2013-01-03 03:20:00,28.9,21.1,29.09,North,0,0.0,0.0,72,0.00,,,0.00,0.00,VWS V14.01,2013-01-03 09:20:00,
2013-01-03 03:21:00,28.6,21.0,29.09,North,0,0.0,0.0,73,0.00,,,0.00,0.00,VWS V14.01,2013-01-03 09:21:00,
2013-01-03 03:22:00,28.9,21.4,29.09,North,0,0.0,0.0,73,0.00,,,0.00,0.00,VWS V14.01,2013-01-03 09:22:00,
2013-01-03 03:23:00,28.9,21.4,29.09,North,0,0.0,0.0,73,0.00,,,0.00,0.00,VWS V14.01,2013-01-03 09:23:00,
2013-01-03 03:24:00,28.9,21.4,29.09,North,0,0.0,0.0,73,0.00,,,0.00,0.00,VWS V14.01,2013-01-03 09:24:00,
2013-01-03 03:25:00,28.9,21.4,29.09,North,0,0.0,0.0,73,0.00,,,0.00,0.00,VWS V14.01,2013-01-03 09:25:00,
2013-01-03 03:26:00,28.6,21.0,29.09,North,0,0.0,0.0,73,0.00,,,0.00,0.00,VWS V14.01,2013-01-03 09:26:00,
2013-01-03 03:27:00,28.9,21.4,29.09,North,0,0.0,0.0,73,0.00,,,0.00,0.00,VWS V14.01,2013-01-03 09:27:00,
2013-01-03 03:28:00,28.9,21.4,29.09,North,0,0.0,0.0,73,0.00,,,0.00,0.00,VWS V14.01,2013-01-03 09:28:00,
2013-01-03 03:29:00,28.9,21.4,29.09,North,0,0.0,0.0,73,0.00,,,0.00,0.00,VWS V14.01,2013-01-03 09:29:00,
2013-01-03 03:30:00,28.9,21.4,29.09,North,0,0.0,0.0,73,0.00,,,0.00,0.00,VWS V14.01,2013-01-03 09:30:00,
2013-01-03 03:31:00,28.6,21.0,29.09,North,0,0.0,0.0,73,0.00,,,0.00,0.00,VWS V14.01,2013-01-03 09:31:00,
2013-01-03 03:32:00,28.9,21.4,29.09,North,0,0.0,0.0,73,0.00,,,0.00,0.00,VWS V14.01,2013-01-03 09:32:00,
2013-01-03 03:33:00,28.9,21.4,29.09,North,0,0.0,0.0,73,0.00,,,0.00,0.00,VWS V14.01,2013-01-03 09:33:00,
2013-01-03 03:34:00,28.9,21.4,29.09,North,0,0.0,0.0,73,0.00,,,0.00,0.00,VWS V14.01,2013-01-03 09:34:00,
2013-01-03 03:35:00,28.9,21.4,29.09,North,0,0.0,0.0,73,0.00,,,0.00,0.00,VWS V14.01,2013-01-03 09:35:00,
2013-01-03 03:36:00,28.6,21.0,29.09,North,0,0.0,0.0,73,0.00,,,0.00,0.00,VWS V14.01,2013-01-03 09:36:00,
2013-01-03 03:37:00,28.9,21.4,29.09,North,0,0.0,0.0,73,0.00,,,0.00,0.00,VWS V14.01,2013-01-03 09:37:00,
2013-01-03 03:38:00,28.9,21.4,29.09,North,0,0.0,0.0,73,0.00,,,0.00,0.00,VWS V14.01,2013-01-03 09:38:00,
2013-01-03 03:39:00,28.9,21.4,29.09,North,0,0.0,0.0,73,0.00,,,0.00,0.00,VWS V14.01,2013-01-03 09:39:00,
2013-01-03 03:40:00,28.9,21.4,29.09,North,0,0.0,0.0,73,0.00,,,0.00,0.00,VWS V14.01,2013-01-03 09:40:00,
2013-01-03 03:41:00,28.6,21.0,29.09,North,0,0.0,0.0,73,0.00,,,0.00,0.00,VWS V14.01,2013-01-03 09:41:00,
2013-01-03 03:42:00,28.9,21.4,29.09,North,0,0.0,0.0,73,0.00,,,0.00,0.00,VWS V14.01,2013-01-03 09:42:00,
2013-01-03 03:43:00,28.9,21.4,29.09,North,0,0.0,0.0,73,0.00,,,0.00,0.00,VWS V14.01,2013-01-03 09:43:00,
2013-01-03 03:44:00,28.9,21.4,29.09,North,0,0.0,0.0,73,0.00,,,0.00,0.00,VWS V14.01,2013-01-03 09:44:00,
2013-01-03 03:45:00,28.9,21.4,29.09,North,0,0.0,0.0,73,0.00,,,0.00,0.00,VWS V14.01,2013-01-03 09:45:00,
2013-01-03 03:46:00,28.6,21.0,29.09,North,0,0.0,0.0,73,0.00,,,0.00,0.00,VWS V14.01,2013-01-03 09:46:00,
2013-01-03 03:47:00,28.9,21.4,29.09,North,0,0.0,0.0,73,0.00,,,0.00,0.00,VWS V14.01,2013-01-03 09:47:00,
2013-01-03 03:48:00,28.9,21.4,29.09,North,0,0.0,0.0,73,0.00,,,0.00,0.00,VWS V14.01,2013-01-03 09:48:00,
2013-01-03 03:49:00,28.8,21.2,29.09,North,0,0.0,0.0,73,0.00,,,0.00,0.00,VWS V14.01,2013-01-03 09:49:00,
2013-01-03 03:50:00,28.8,21.2,29.09,North,0,0.0,0.0,73,0.00,,,0.00,0.00,VWS V14.01,2013-01-03 09:50:00,
2013-01-03 03:51:00,28.4,20.9,29.09,North,0,0.0,0.0,73,0.00,,,0.00,0.00,VWS V14.01,2013-01-03 09:51:00,
2013-01-03 03:52:00,28.8,21.2,29.09,North,0,0.0,0.0,73,0.00,,,0.00,0.00,VWS V14.01,2013-01-03 09:52:00,
2013-01-03 03:53:00,28.8,21.2,29.09,North,0,0.0,0.0,73,0.00,,,0.00,0.00,VWS V14.01,2013-01-03 09:53:00,
2013-01-03 03:54:00,28.8,21.2,29.09,North,0,0.0,0.0,73,0.00,,,0.00,0.00,VWS V14.01,2013-01-03 09:54:00,
2013-01-03 03:55:00,28.8,21.2,29.09,North,0,0.0,0.0,73,0.00,,,0.00,0.00,VWS V14.01,2013-01-03 09:55:00,
2013-01-03 03:56:00,28.4,20.9,29.09,North,0,0.0,0.0,73,0.00,,,0.00,0.00,VWS V14.01,2013-01-03 09:56:00,
2013-01-03 03:57:00,28.8,21.2,29.09,North,0,0.0,0.0,73,0.00,,,0.00,0.00,VWS V14.01,2013-01-03 09:57:00,
2013-01-03 03:58:00,28.8,21.2,29.09,North,0,0.0,0.0,73,0.00,,,0.00,0.00,VWS V14.01,2013-01-03 09:58:00,
2013-01-03 03:59:00,28.8,21.2,29.09,North,0,0.0,0.0,73,0.00,,,0.00,0.00,VWS V14.01,2013-01-03 09:59:00,
2013-01-03 04:00:00,28.8,21.2,29.09,North,0,0.0,0.0,73,0.00,,,0.00,0.00,VWS V14.01,2013-01-03 10:00:00,
2013-01-03 04:01:00,28.4,20.9,29.09,North,0,0.0,0.0,73,0.00,,,0.00,0.00,VWS V14.01,2013-01-03 10:01:00,
2013-01-03 04:02:00,28.8,21.2,29.09,North,0,0.0,0.0,73,0.00,,,0.00,0.00,VWS V14.01,2013-01-03 10:02:00,
2013-01-03 04:03:00,28.8,21.2,29.09,North,0,0.0,0.0,73,0.00,,,0.00,0.00,VWS V14.01,2013-01-03 10:03:00,
2013-01-03 04:04:00,28.8,21.2,29.09,North,0,0.0,0.0,73,0.00,,,0.00,0.00,VWS V14.01,2013-01-03 10:04:00,
2013-01-03 04:05:00,28.8,21.2,29.09,North,0,0.0,0.0,73,0.00,,,0.00,0.00,VWS V14.01,2013-01-03 10:05:00,
2013-01-03 04:06:00,28.4,21.2,29.09,North,0,0.0,0.0,74,0.00,,,0.00,0.00,VWS V14.01,2013-01-03 10:06:00,
2013-01-03 04:07:00,28.8,21.2,29.09,North,0,0.0,0.0,73,0.00,,,0.00,0.00,VWS V14.01,2013-01-03 10:07:00,
2013-01-03 04:08:00,28.8,21.2,29.09,North,0,0.0,0.0,73,0.00,,,0.00,0.00,VWS V14.01,2013-01-03 10:08:00,
2013-01-03 04:09:00,28.6,21.0,29.09,North,0,0.0,0.0,73,0.00,,,0.00,0.00,VWS V14.01,2013-01-03 10:09:00,
2013-01-03 04:10:00,28.6,21.0,29.09,North,0,0.0,0.0,73,0.00,,,0.00,0.00,VWS V14.01,2013-01-03 10:10:00,
2013-01-03 04:11:00,28.4,21.2,29.09,North,0,0.0,0.0,74,0.00,,,0.00,0.00,VWS V14.01,2013-01-03 10:11:00,
2013-01-03 04:12:00,28.6,21.0,29.09,North,0,0.0,0.0,73,0.00,,,0.00,0.00,VWS V14.01,2013-01-03 10:12:00,
2013-01-03 04:13:00,28.6,21.0,29.09,North,0,0.0,0.0,73,0.00,,,0.00,0.00,VWS V14.01,2013-01-03 10:13:00,
2013-01-03 04:14:00,28.6,21.0,29.09,North,0,0.0,0.0,73,0.00,,,0.00,0.00,VWS V14.01,2013-01-03 10:14:00,
2013-01-03 04:15:00,28.4,21.2,29.09,North,0,0.0,0.0,74,0.00,,,0.00,0.00,VWS V14.01,2013-01-03 10:15:00,
2013-01-03 04:16:00,28.4,21.2,29.09,North,0,0.0,0.0,74,0.00,,,0.00,0.00,VWS V14.01,2013-01-03 10:16:00,
2013-01-03 04:17:00,28.4,21.2,29.09,North,0,0.0,0.0,74,0.00,,,0.00,0.00,VWS V14.01,2013-01-03 10:17:00,
2013-01-03 04:18:00,28.4,21.2,29.09,North,0,0.0,0.0,74,0.00,,,0.00,0.00,VWS V14.01,2013-01-03 10:18:00,
2013-01-03 04:19:00,28.4,21.2,29.09,North,0,0.0,0.0,74,0.00,,,0.00,0.00,VWS V14.01,2013-01-03 10:19:00,
2013-01-03 04:20:00,28.4,21.2,29.09,North,0,0.0,0.0,74,0.00,,,0.00,0.00,VWS V14.01,2013-01-03 10:20:00,
2013-01-03 04:21:00,28.4,21.2,29.09,North,0,0.0,0.0,74,0.00,,,0.00,0.00,VWS V14.01,2013-01-03 10:21:00,
2013-01-03 04:22:00,28.4,21.2,29.09,North,0,0.0,0.0,74,0.00,,,0.00,0.00,VWS V14.01,2013-01-03 10:22:00,
2013-01-03 04:23:00,28.2,21.0,29.09,North,0,0.0,0.0,74,0.00,,,0.00,0.00,VWS V14.01,2013-01-03 10:23:00,
2013-01-03 04:24:00,28.2,21.0,29.09,North,0,0.0,0.0,74,0.00,,,0.00,0.00,VWS V14.01,2013-01-03 10:24:00,
2013-01-03 04:25:00,28.2,21.0,29.09,North,0,0.0,0.0,74,0.00,,,0.00,0.00,VWS V14.01,2013-01-03 10:25:00,
2013-01-03 04:26:00,28.2,21.0,29.09,North,0,0.0,0.0,74,0.00,,,0.00,0.00,VWS V14.01,2013-01-03 10:26:00,
2013-01-03 04:27:00,28.2,20.7,29.09,North,0,0.0,0.0,73,0.00,,,0.00,0.00,VWS V14.01,2013-01-03 10:27:00,
2013-01-03 04:28:00,28.2,20.7,29.09,North,0,0.0,0.0,73,0.00,,,0.00,0.00,VWS V14.01,2013-01-03 10:28:00,
2013-01-03 04:29:00,28.2,21.0,29.09,North,0,0.0,0.0,74,0.00,,,0.00,0.00,VWS V14.01,2013-01-03 10:29:00,
2013-01-03 04:30:00,28.2,21.0,29.09,North,0,0.0,0.0,74,0.00,,,0.00,0.00,VWS V14.01,2013-01-03 10:30:00,
2013-01-03 04:31:00,28.2,21.0,29.09,North,0,0.0,0.0,74,0.00,,,0.00,0.00,VWS V14.01,2013-01-03 10:31:00,
2013-01-03 04:32:00,28.2,21.0,29.09,North,0,0.0,0.0,74,0.00,,,0.00,0.00,VWS V14.01,2013-01-03 10:32:00,
2013-01-03 04:33:00,28.2,21.0,29.09,North,0,0.0,0.0,74,0.00,,,0.00,0.00,VWS V14.01,2013-01-03 10:33:00,
2013-01-03 04:34:00,28.0,20.8,29.09,North,0,0.0,0.0,74,0.00,,,0.00,0.00,VWS V14.01,2013-01-03 10:34:00,
2013-01-03 04:35:00,28.0,20.8,29.09,North,0,0.0,0.0,74,0.00,,,0.00,0.00,VWS V14.01,2013-01-03 10:35:00,
2013-01-03 04:36:00,28.0,20.8,29.09,North,0,0.0,0.0,74,0.00,,,0.00,0.00,VWS V14.01,2013-01-03 10:36:00,
2013-01-03 04:37:00,28.0,20.8,29.09,North,0,0.0,0.0,74,0.00,,,0.00,0.00,VWS V14.01,2013-01-03 10:37:00,
2013-01-03 04:38:00,28.0,20.8,29.09,North,0,0.0,0.0,74,0.00,,,0.00,0.00,VWS V14.01,2013-01-03 10:38:00,
2013-01-03 04:39:00,28.0,20.8,29.09,North,0,0.0,0.0,74,0.00,,,0.00,0.00,VWS V14.01,2013-01-03 10:39:00,
2013-01-03 04:40:00,28.0,20.8,29.09,North,0,0.0,0.0,74,0.00,,,0.00,0.00,VWS V14.01,2013-01-03 10:40:00,
2013-01-03 04:41:00,28.0,20.8,29.09,North,0,0.0,0.0,74,0.00,,,0.00,0.00,VWS V14.01,2013-01-03 10:41:00,
2013-01-03 04:42:00,28.0,20.8,29.09,North,0,0.0,0.0,74,0.00,,,0.00,0.00,VWS V14.01,2013-01-03 10:42:00,
2013-01-03 04:43:00,28.0,20.8,29.09,North,0,0.0,0.0,74,0.00,,,0.00,0.00,VWS V14.01,2013-01-03 10:43:00,
2013-01-03 04:44:00,28.0,20.8,29.09,North,0,0.0,0.0,74,0.00,,,0.00,0.00,VWS V14.01,2013-01-03 10:44:00,
2013-01-03 04:45:00,28.0,20.8,29.09,North,0,0.0,0.0,74,0.00,,,0.00,0.00,VWS V14.01,2013-01-03 10:45:00,
2013-01-03 04:46:00,28.0,20.8,29.09,North,0,0.0,0.0,74,0.00,,,0.00,0.00,VWS V14.01,2013-01-03 10:46:00,
2013-01-03 04:47:00,28.0,20.8,29.09,North,0,0.0,0.0,74,0.00,,,0.00,0.00,VWS V14.01,2013-01-03 10:47:00,
2013-01-03 04:48:00,28.0,20.8,29.09,North,0,0.0,0.0,74,0.00,,,0.00,0.00,VWS V14.01,2013-01-03 10:48:00,
2013-01-03 04:49:00,28.0,20.8,29.09,North,0,0.0,0.0,74,0.00,,,0.00,0.00,VWS V14.01,2013-01-03 10:49:00,
2013-01-03 04:50:00,28.0,20.8,29.11,North,0,0.0,0.0,74,0.00,,,0.00,0.00,VWS V14.01,2013-01-03 10:50:00,
2013-01-03 04:51:00,28.0,20.8,29.12,North,0,0.0,0.0,74,0.00,,,0.00,0.00,VWS V14.01,2013-01-03 10:51:00,
2013-01-03 04:52:00,28.0,20.8,29.11,North,0,0.0,0.0,74,0.00,,,0.00,0.00,VWS V14.01,2013-01-03 10:52:00,
2013-01-03 04:53:00,28.0,20.8,29.11,North,0,0.0,0.0,74,0.00,,,0.00,0.00,VWS V14.01,2013-01-03 10:53:00,
2013-01-03 04:54:00,28.0,20.8,29.11,North,0,0.0,0.0,74,0.00,,,0.00,0.00,VWS V14.01,2013-01-03 10:54:00,
2013-01-03 04:55:00,28.0,20.8,29.11,North,0,0.0,0.0,74,0.00,,,0.00,0.00,VWS V14.01,2013-01-03 10:55:00,
2013-01-03 04:56:00,28.0,20.8,29.12,North,0,0.0,0.0,74,0.00,,,0.00,0.00,VWS V14.01,2013-01-03 10:56:00,
2013-01-03 04:57:00,28.0,20.8,29.11,North,0,0.0,0.0,74,0.00,,,0.00,0.00,VWS V14.01,2013-01-03 10:57:00,
2013-01-03 04:58:00,28.0,20.5,29.11,North,0,0.0,0.0,73,0.00,,,0.00,0.00,VWS V14.01,2013-01-03 10:58:00,
2013-01-03 04:59:00,28.0,20.5,29.11,North,0,0.0,0.0,73,0.00,,,0.00,0.00,VWS V14.01,2013-01-03 10:59:00,
2013-01-03 05:00:00,28.0,20.5,29.11,North,0,0.0,0.0,73,0.00,,,0.00,0.00,VWS V14.01,2013-01-03 11:00:00,
2013-01-03 05:01:00,28.0,20.5,29.12,North,0,0.0,0.0,73,0.00,,,0.00,0.00,VWS V14.01,2013-01-03 11:01:00,
2013-01-03 05:02:00,28.0,20.5,29.11,North,0,0.0,0.0,73,0.00,,,0.00,0.00,VWS V14.01,2013-01-03 11:02:00,
2013-01-03 05:03:00,28.0,20.5,29.11,North,0,0.0,0.0,73,0.00,,,0.00,0.00,VWS V14.01,2013-01-03 11:03:00,
2013-01-03 05:04:00,28.0,20.5,29.11,North,0,0.0,0.0,73,0.00,,,0.00,0.00,VWS V14.01,2013-01-03 11:04:00,
2013-01-03 05:05:00,28.0,20.5,29.11,North,0,0.0,0.0,73,0.00,,,0.00,0.00,VWS V14.01,2013-01-03 11:05:00,
2013-01-03 05:06:00,28.0,20.5,29.12,North,0,0.0,0.0,73,0.00,,,0.00,0.00,VWS V14.01,2013-01-03 11:06:00,
2013-01-03 05:07:00,28.0,20.5,29.11,North,0,0.0,0.0,73,0.00,,,0.00,0.00,VWS V14.01,2013-01-03 11:07:00,
2013-01-03 05:08:00,28.0,20.8,29.11,North,0,0.0,0.0,74,0.00,,,0.00,0.00,VWS V14.01,2013-01-03 11:08:00,
2013-01-03 05:09:00,28.0,20.8,29.11,North,0,0.0,0.0,74,0.00,,,0.00,0.00,VWS V14.01,2013-01-03 11:09:00,
2013-01-03 05:10:00,28.0,20.8,29.11,North,0,0.0,0.0,74,0.00,,,0.00,0.00,VWS V14.01,2013-01-03 11:10:00,
2013-01-03 05:11:00,28.0,20.5,29.12,North,0,0.0,0.0,73,0.00,,,0.00,0.00,VWS V14.01,2013-01-03 11:11:00,
2013-01-03 05:12:00,28.0,20.5,29.11,North,0,0.0,0.0,73,0.00,,,0.00,0.00,VWS V14.01,2013-01-03 11:12:00,
2013-01-03 05:13:00,28.0,20.5,29.11,North,0,0.0,0.0,73,0.00,,,0.00,0.00,VWS V14.01,2013-01-03 11:13:00,
2013-01-03 05:14:00,28.0,20.5,29.11,North,0,0.0,0.0,73,0.00,,,0.00,0.00,VWS V14.01,2013-01-03 11:14:00,
2013-01-03 05:15:00,28.0,20.5,29.11,North,0,0.0,0.0,73,0.00,,,0.00,0.00,VWS V14.01,2013-01-03 11:15:00,
2013-01-03 05:16:00,28.0,20.5,29.12,North,0,0.0,0.0,73,0.00,,,0.00,0.00,VWS V14.01,2013-01-03 11:16:00,
2013-01-03 05:17:00,28.0,20.5,29.11,North,0,0.0,0.0,73,0.00,,,0.00,0.00,VWS V14.01,2013-01-03 11:17:00,
2013-01-03 05:18:00,28.0,20.5,29.11,North,0,0.0,0.0,73,0.00,,,0.00,0.00,VWS V14.01,2013-01-03 11:18:00,
2013-01-03 05:19:00,28.0,20.5,29.11,North,0,0.0,0.0,73,0.00,,,0.00,0.00,VWS V14.01,2013-01-03 11:19:00,
2013-01-03 05:20:00,28.0,20.5,29.11,North,0,0.0,0.0,73,0.00,,,0.00,0.00,VWS V14.01,2013-01-03 11:20:00,
2013-01-03 05:21:00,28.0,20.5,29.12,North,0,0.0,0.0,73,0.00,,,0.00,0.00,VWS V14.01,2013-01-03 11:21:00,
2013-01-03 05:22:00,28.0,20.5,29.11,North,0,0.0,0.0,73,0.00,,,0.00,0.00,VWS V14.01,2013-01-03 11:22:00,
2013-01-03 05:23:00,28.0,20.5,29.11,North,0,0.0,0.0,73,0.00,,,0.00,0.00,VWS V14.01,2013-01-03 11:23:00,
2013-01-03 05:24:00,28.0,20.5,29.11,North,0,0.0,0.0,73,0.00,,,0.00,0.00,VWS V14.01,2013-01-03 11:24:00,
2013-01-03 05:25:00,28.0,20.5,29.11,North,0,0.0,0.0,73,0.00,,,0.00,0.00,VWS V14.01,2013-01-03 11:25:00,
2013-01-03 05:26:00,28.0,20.5,29.12,North,0,0.0,0.0,73,0.00,,,0.00,0.00,VWS V14.01,2013-01-03 11:26:00,
2013-01-03 05:27:00,28.0,20.5,29.11,North,0,0.0,0.0,73,0.00,,,0.00,0.00,VWS V14.01,2013-01-03 11:27:00,
2013-01-03 05:28:00,28.0,20.5,29.11,North,0,0.0,0.0,73,0.00,,,0.00,0.00,VWS V14.01,2013-01-03 11:28:00,
2013-01-03 05:29:00,27.9,20.3,29.11,North,0,0.0,0.0,73,0.00,,,0.00,0.00,VWS V14.01,2013-01-03 11:29:00,
2013-01-03 05:30:00,27.9,20.3,29.11,North,0,0.0,0.0,73,0.00,,,0.00,0.00,VWS V14.01,2013-01-03 11:30:00,
2013-01-03 05:31:00,27.9,20.3,29.12,North,0,0.0,0.0,73,0.00,,,0.00,0.00,VWS V14.01,2013-01-03 11:31:00,
2013-01-03 05:32:00,27.9,20.3,29.11,North,0,0.0,0.0,73,0.00,,,0.00,0.00,VWS V14.01,2013-01-03 11:32:00,
2013-01-03 05:33:00,27.9,20.3,29.11,North,0,0.0,0.0,73,0.00,,,0.00,0.00,VWS V14.01,2013-01-03 11:33:00,
2013-01-03 05:34:00,27.9,20.3,29.11,North,0,0.0,0.0,73,0.00,,,0.00,0.00,VWS V14.01,2013-01-03 11:34:00,
2013-01-03 05:35:00,27.9,20.3,29.11,North,0,0.0,0.0,73,0.00,,,0.00,0.00,VWS V14.01,2013-01-03 11:35:00,
2013-01-03 05:36:00,27.9,20.3,29.12,North,0,0.0,0.0,73,0.00,,,0.00,0.00,VWS V14.01,2013-01-03 11:36:00,
2013-01-03 05:37:00,27.9,20.3,29.11,North,0,0.0,0.0,73,0.00,,,0.00,0.00,VWS V14.01,2013-01-03 11:37:00,
2013-01-03 05:38:00,27.9,20.3,29.11,North,0,0.0,0.0,73,0.00,,,0.00,0.00,VWS V14.01,2013-01-03 11:38:00,
2013-01-03 05:39:00,27.9,20.3,29.11,North,0,0.0,0.0,73,0.00,,,0.00,0.00,VWS V14.01,2013-01-03 11:39:00,
2013-01-03 05:40:00,27.9,20.3,29.11,North,0,0.0,0.0,73,0.00,,,0.00,0.00,VWS V14.01,2013-01-03 11:40:00,
2013-01-03 05:41:00,27.9,20.3,29.12,North,0,0.0,0.0,73,0.00,,,0.00,0.00,VWS V14.01,2013-01-03 11:41:00,
2013-01-03 05:42:00,27.9,20.3,29.11,North,0,0.0,0.0,73,0.00,,,0.00,0.00,VWS V14.01,2013-01-03 11:42:00,
2013-01-03 05:43:00,27.9,20.3,29.11,North,0,0.0,0.0,73,0.00,,,0.00,0.00,VWS V14.01,2013-01-03 11:43:00,
2013-01-03 05:44:00,27.9,20.3,29.11,North,0,0.0,0.0,73,0.00,,,0.00,0.00,VWS V14.01,2013-01-03 11:44:00,
2013-01-03 05:45:00,27.9,20.3,29.11,North,0,0.0,0.0,73,0.00,,,0.00,0.00,VWS V14.01,2013-01-03 11:45:00,
2013-01-03 05:46:00,27.9,20.3,29.12,North,0,0.0,0.0,73,0.00,,,0.00,0.00,VWS V14.01,2013-01-03 11:46:00,
2013-01-03 05:47:00,27.9,20.3,29.11,North,0,0.0,0.0,73,0.00,,,0.00,0.00,VWS V14.01,2013-01-03 11:47:00,
2013-01-03 05:48:00,27.9,20.3,29.11,North,0,0.0,0.0,73,0.00,,,0.00,0.00,VWS V14.01,2013-01-03 11:48:00,
2013-01-03 05:49:00,27.9,20.3,29.11,North,0,0.0,0.0,73,0.00,,,0.00,0.00,VWS V14.01,2013-01-03 11:49:00,
2013-01-03 05:50:00,27.9,20.3,29.11,North,0,0.0,0.0,73,0.00,,,0.00,0.00,VWS V14.01,2013-01-03 11:50:00,
2013-01-03 05:51:00,27.9,20.3,29.12,North,0,0.0,0.0,73,0.00,,,0.00,0.00,VWS V14.01,2013-01-03 11:51:00,
2013-01-03 05:52:00,27.9,20.3,29.11,North,0,0.0,0.0,73,0.00,,,0.00,0.00,VWS V14.01,2013-01-03 11:52:00,
2013-01-03 05:53:00,27.9,20.3,29.11,North,0,0.0,0.0,73,0.00,,,0.00,0.00,VWS V14.01,2013-01-03 11:53:00,
2013-01-03 05:54:00,27.9,20.3,29.11,North,0,0.0,0.0,73,0.00,,,0.00,0.00,VWS V14.01,2013-01-03 11:54:00,
2013-01-03 05:55:00,27.9,20.3,29.11,North,0,0.0,0.0,73,0.00,,,0.00,0.00,VWS V14.01,2013-01-03 11:55:00,
2013-01-03 05:56:00,27.9,20.3,29.12,North,0,0.0,0.0,73,0.00,,,0.00,0.00,VWS V14.01,2013-01-03 11:56:00,
2013-01-03 05:57:00,27.9,20.3,29.11,North,0,0.0,0.0,73,0.00,,,0.00,0.00,VWS V14.01,2013-01-03 11:57:00,
2013-01-03 05:58:00,27.9,20.3,29.11,North,0,0.0,0.0,73,0.00,,,0.00,0.00,VWS V14.01,2013-01-03 11:58:00,
2013-01-03 05:59:00,27.9,20.3,29.11,North,0,0.0,0.0,73,0.00,,,0.00,0.00,VWS V14.01,2013-01-03 11:59:00,
2013-01-03 06:00:00,27.9,20.3,29.11,North,0,0.0,0.0,73,0.00,,,0.00,0.00,VWS V14.01,2013-01-03 12:00:00,
2013-01-03 06:01:00,27.9,20.3,29.12,North,0,0.0,0.0,73,0.00,,,0.00,0.00,VWS V14.01,2013-01-03 12:01:00,
2013-01-03 06:02:00,27.9,20.3,29.11,North,0,0.0,0.0,73,0.00,,,0.00,0.00,VWS V14.01,2013-01-03 12:02:00,
2013-01-03 06:03:00,27.9,20.3,29.11,North,0,0.0,0.0,73,0.00,,,0.00,0.00,VWS V14.01,2013-01-03 12:03:00,
2013-01-03 06:04:00,27.9,20.3,29.11,North,0,0.0,0.0,73,0.00,,,0.00,0.00,VWS V14.01,2013-01-03 12:04:00,
2013-01-03 06:05:00,27.9,20.3,29.15,North,0,0.0,0.0,73,0.00,,,0.00,0.00,VWS V14.01,2013-01-03 12:05:00,
2013-01-03 06:06:00,27.9,20.3,29.14,North,0,0.0,0.0,73,0.00,,,0.00,0.00,VWS V14.01,2013-01-03 12:06:00,
2013-01-03 06:07:00,27.9,20.3,29.15,North,0,0.0,0.0,73,0.00,,,0.00,0.00,VWS V14.01,2013-01-03 12:07:00,
2013-01-03 06:08:00,27.9,20.3,29.09,North,0,0.0,0.0,73,0.00,,,0.00,0.00,VWS V14.01,2013-01-03 12:08:00,
2013-01-03 06:09:00,27.9,20.3,29.14,North,0,0.0,0.0,73,0.00,,,0.00,0.00,VWS V14.01,2013-01-03 12:09:00,
2013-01-03 06:10:00,27.9,20.3,29.14,North,0,0.0,0.0,73,0.00,,,0.00,0.00,VWS V14.01,2013-01-03 12:10:00,
2013-01-03 06:11:00,27.9,20.3,29.14,North,0,0.0,0.0,73,0.00,,,0.00,0.00,VWS V14.01,2013-01-03 12:11:00,
2013-01-03 06:12:00,27.9,20.3,29.14,North,0,0.0,0.0,73,0.00,,,0.00,0.00,VWS V14.01,2013-01-03 12:12:00,
2013-01-03 06:13:00,27.9,20.3,29.14,North,0,0.0,0.0,73,0.00,,,0.00,0.00,VWS V14.01,2013-01-03 12:13:00,
2013-01-03 06:14:00,27.9,20.7,29.14,North,0,0.0,0.0,74,0.00,,,0.00,0.00,VWS V14.01,2013-01-03 12:14:00,
2013-01-03 06:15:00,27.9,20.7,29.14,North,0,0.0,0.0,74,0.00,,,0.00,0.00,VWS V14.01,2013-01-03 12:15:00,
2013-01-03 06:16:00,27.9,20.7,29.14,North,0,0.0,0.0,74,0.00,,,0.00,0.00,VWS V14.01,2013-01-03 12:16:00,
2013-01-03 06:17:00,27.9,20.7,29.14,North,0,0.0,0.0,74,0.00,,,0.00,0.00,VWS V14.01,2013-01-03 12:17:00,
2013-01-03 06:18:00,27.7,20.5,29.14,North,0,0.0,0.0,74,0.00,,,0.00,0.00,VWS V14.01,2013-01-03 12:18:00,
2013-01-03 06:19:00,27.7,20.5,29.14,North,0,0.0,0.0,74,0.00,,,0.00,0.00,VWS V14.01,2013-01-03 12:19:00,
2013-01-03 06:20:00,27.7,20.5,29.14,North,0,0.0,0.0,74,0.00,,,0.00,0.00,VWS V14.01,2013-01-03 12:20:00,
2013-01-03 06:21:00,27.7,20.5,29.14,North,0,0.0,0.0,74,0.00,,,0.00,0.00,VWS V14.01,2013-01-03 12:21:00,
2013-01-03 06:22:00,27.7,20.5,29.14,North,0,0.0,0.0,74,0.00,,,0.00,0.00,VWS V14.01,2013-01-03 12:22:00,
2013-01-03 06:23:00,27.7,20.5,29.14,North,0,0.0,0.0,74,0.00,,,0.00,0.00,VWS V14.01,2013-01-03 12:23:00,
2013-01-03 06:24:00,27.7,20.5,29.14,North,0,0.0,0.0,74,0.00,,,0.00,0.00,VWS V14.01,2013-01-03 12:24:00,
2013-01-03 06:25:00,27.7,20.5,29.14,North,0,0.0,0.0,74,0.00,,,0.00,0.00,VWS V14.01,2013-01-03 12:25:00,
2013-01-03 06:26:00,27.7,20.5,29.14,North,0,0.0,0.0,74,0.00,,,0.00,0.00,VWS V14.01,2013-01-03 12:26:00,
2013-01-03 06:27:00,27.7,20.5,29.14,North,0,0.0,0.0,74,0.00,,,0.00,0.00,VWS V14.01,2013-01-03 12:27:00,
2013-01-03 06:28:00,27.7,20.5,29.14,North,0,0.0,0.0,74,0.00,,,0.00,0.00,VWS V14.01,2013-01-03 12:28:00,
2013-01-03 06:29:00,27.7,20.5,29.14,North,0,0.0,0.0,74,0.00,,,0.00,0.00,VWS V14.01,2013-01-03 12:29:00,
2013-01-03 06:30:00,27.7,20.5,29.14,North,0,0.0,0.0,74,0.00,,,0.00,0.00,VWS V14.01,2013-01-03 12:30:00,
2013-01-03 06:31:00,27.7,20.5,29.14,North,0,0.0,0.0,74,0.00,,,0.00,0.00,VWS V14.01,2013-01-03 12:31:00,
2013-01-03 06:32:00,27.7,20.5,29.14,North,0,0.0,0.0,74,0.00,,,0.00,0.00,VWS V14.01,2013-01-03 12:32:00,
2013-01-03 06:33:00,27.7,20.5,29.14,North,0,0.0,0.0,74,0.00,,,0.00,0.00,VWS V14.01,2013-01-03 12:33:00,
2013-01-03 06:34:00,27.7,20.5,29.14,North,0,0.0,0.0,74,0.00,,,0.00,0.00,VWS V14.01,2013-01-03 12:34:00,
2013-01-03 06:35:00,27.7,20.5,29.14,North,0,0.0,0.0,74,0.00,,,0.00,0.00,VWS V14.01,2013-01-03 12:35:00,
2013-01-03 06:36:00,27.7,20.5,29.14,North,0,0.0,0.0,74,0.00,,,0.00,0.00,VWS V14.01,2013-01-03 12:36:00,
2013-01-03 06:37:00,27.7,20.5,29.14,North,0,0.0,0.0,74,0.00,,,0.00,0.00,VWS V14.01,2013-01-03 12:37:00,
2013-01-03 06:38:00,27.7,20.5,29.14,North,0,0.0,0.0,74,0.00,,,0.00,0.00,VWS V14.01,2013-01-03 12:38:00,
2013-01-03 06:39:00,27.7,20.5,29.14,North,0,0.0,0.0,74,0.00,,,0.00,0.00,VWS V14.01,2013-01-03 12:39:00,
2013-01-03 06:40:00,27.7,20.5,29.14,North,0,0.0,0.0,74,0.00,,,0.00,0.00,VWS V14.01,2013-01-03 12:40:00,
2013-01-03 06:41:00,27.7,20.5,29.14,North,0,0.0,0.0,74,0.00,,,0.00,0.00,VWS V14.01,2013-01-03 12:41:00,
2013-01-03 06:42:00,27.7,20.5,29.14,North,0,0.0,0.0,74,0.00,,,0.00,0.00,VWS V14.01,2013-01-03 12:42:00,
2013-01-03 06:43:00,27.7,20.5,29.14,North,0,0.0,0.0,74,0.00,,,0.00,0.00,VWS V14.01,2013-01-03 12:43:00,
2013-01-03 06:44:00,27.7,20.5,29.14,North,0,0.0,0.0,74,0.00,,,0.00,0.00,VWS V14.01,2013-01-03 12:44:00,
2013-01-03 06:45:00,27.7,20.5,29.14,North,0,0.0,0.0,74,0.00,,,0.00,0.00,VWS V14.01,2013-01-03 12:45:00,
2013-01-03 06:46:00,27.7,20.5,29.14,North,0,0.0,0.0,74,0.00,,,0.00,0.00,VWS V14.01,2013-01-03 12:46:00,
2013-01-03 06:47:00,27.7,20.5,29.14,North,0,0.0,0.0,74,0.00,,,0.00,0.00,VWS V14.01,2013-01-03 12:47:00,
2013-01-03 06:48:00,27.7,20.5,29.14,North,0,0.0,0.0,74,0.00,,,0.00,0.00,VWS V14.01,2013-01-03 12:48:00,
2013-01-03 06:49:00,27.7,20.5,29.14,North,0,0.0,0.0,74,0.00,,,0.00,0.00,VWS V14.01,2013-01-03 12:49:00,
2013-01-03 06:50:00,27.7,20.5,29.14,North,0,0.0,0.0,74,0.00,,,0.00,0.00,VWS V14.01,2013-01-03 12:50:00,
2013-01-03 06:51:00,27.7,20.5,29.14,North,0,0.0,0.0,74,0.00,,,0.00,0.00,VWS V14.01,2013-01-03 12:51:00,
2013-01-03 06:52:00,27.7,20.5,29.14,North,0,0.0,0.0,74,0.00,,,0.00,0.00,VWS V14.01,2013-01-03 12:52:00,
2013-01-03 06:53:00,27.7,20.5,29.14,North,0,0.0,0.0,74,0.00,,,0.00,0.00,VWS V14.01,2013-01-03 12:53:00,
2013-01-03 06:54:00,27.7,20.5,29.14,North,0,0.0,0.0,74,0.00,,,0.00,0.00,VWS V14.01,2013-01-03 12:54:00,
2013-01-03 06:55:00,27.7,20.5,29.14,North,0,0.0,0.0,74,0.00,,,0.00,0.00,VWS V14.01,2013-01-03 12:55:00,
2013-01-03 06:56:00,27.7,20.5,29.14,North,0,0.0,0.0,74,0.00,,,0.00,0.00,VWS V14.01,2013-01-03 12:56:00,
2013-01-03 06:57:00,27.7,20.5,29.14,North,0,0.0,0.0,74,0.00,,,0.00,0.00,VWS V14.01,2013-01-03 12:57:00,
2013-01-03 06:58:00,27.7,20.5,29.14,North,0,0.0,0.0,74,0.00,,,0.00,0.00,VWS V14.01,2013-01-03 12:58:00,
2013-01-03 06:59:00,27.7,20.5,29.14,North,0,0.0,0.0,74,0.00,,,0.00,0.00,VWS V14.01,2013-01-03 12:59:00,
2013-01-03 07:00:00,27.7,20.5,29.14,North,0,0.0,0.0,74,0.00,,,0.00,0.00,VWS V14.01,2013-01-03 13:00:00,
2013-01-03 07:01:00,27.5,20.3,29.14,North,0,0.0,0.0,74,0.00,,,0.00,0.00,VWS V14.01,2013-01-03 13:01:00,
2013-01-03 07:02:00,27.5,20.3,29.14,North,0,0.0,0.0,74,0.00,,,0.00,0.00,VWS V14.01,2013-01-03 13:02:00,
2013-01-03 07:03:00,27.5,20.3,29.14,North,0,0.0,0.0,74,0.00,,,0.00,0.00,VWS V14.01,2013-01-03 13:03:00,
2013-01-03 07:04:00,27.7,20.5,29.14,North,0,0.0,0.0,74,0.00,,,0.00,0.00,VWS V14.01,2013-01-03 13:04:00,
2013-01-03 07:05:00,27.5,20.3,29.14,North,0,0.0,0.0,74,0.00,,,0.00,0.00,VWS V14.01,2013-01-03 13:05:00,
2013-01-03 07:06:00,27.5,20.3,29.14,North,0,0.0,0.0,74,0.00,,,0.00,0.00,VWS V14.01,2013-01-03 13:06:00,
2013-01-03 07:07:00,27.7,20.5,29.14,North,0,0.0,0.0,74,0.00,,,0.00,0.00,VWS V14.01,2013-01-03 13:07:00,
2013-01-03 07:08:00,27.7,20.5,29.14,North,0,0.0,0.0,74,0.00,,,0.00,0.00,VWS V14.01,2013-01-03 13:08:00,
2013-01-03 07:09:00,27.7,20.8,29.14,North,0,0.0,0.0,75,0.00,,,0.00,0.00,VWS V14.01,2013-01-03 13:09:00,
2013-01-03 07:10:00,27.7,20.8,29.14,North,0,0.0,0.0,75,0.00,,,0.00,0.00,VWS V14.01,2013-01-03 13:10:00,
2013-01-03 07:11:00,27.5,20.6,29.14,North,0,0.0,0.0,75,0.00,,,0.00,0.00,VWS V14.01,2013-01-03 13:11:00,
2013-01-03 07:12:00,27.3,20.8,29.14,North,0,0.0,0.0,76,0.00,,,0.00,0.00,VWS V14.01,2013-01-03 13:12:00,
2013-01-03 07:13:00,27.3,20.8,29.14,North,0,0.0,0.0,76,0.00,,,0.00,0.00,VWS V14.01,2013-01-03 13:13:00,
2013-01-03 07:14:00,27.1,20.6,29.14,North,0,0.0,0.0,76,0.00,,,0.00,0.00,VWS V14.01,2013-01-03 13:14:00,
2013-01-03 07:15:00,27.0,20.4,29.14,North,0,0.0,0.0,76,0.00,,,0.00,0.00,VWS V14.01,2013-01-03 13:15:00,
2013-01-03 07:16:00,26.8,20.2,29.14,North,0,0.0,0.0,76,0.00,,,0.00,0.00,VWS V14.01,2013-01-03 13:16:00,
2013-01-03 07:17:00,26.8,20.2,29.14,North,0,0.0,0.0,76,0.00,,,0.00,0.00,VWS V14.01,2013-01-03 13:17:00,
2013-01-03 07:18:00,26.8,20.2,29.14,North,0,0.0,0.0,76,0.00,,,0.00,0.00,VWS V14.01,2013-01-03 13:18:00,
2013-01-03 07:19:00,26.4,20.2,29.14,North,0,0.0,0.0,77,0.00,,,0.00,0.00,VWS V14.01,2013-01-03 13:19:00,
2013-01-03 07:20:00,26.4,20.2,29.14,North,0,0.0,0.0,77,0.00,,,0.00,0.00,VWS V14.01,2013-01-03 13:20:00,
2013-01-03 07:21:00,26.2,20.0,29.14,North,0,0.0,0.0,77,0.00,,,0.00,0.00,VWS V14.01,2013-01-03 13:21:00,
2013-01-03 07:22:00,26.2,20.0,29.14,North,0,0.0,0.0,77,0.00,,,0.00,0.00,VWS V14.01,2013-01-03 13:22:00,
2013-01-03 07:23:00,26.2,20.0,29.14,North,0,0.0,0.0,77,0.00,,,0.00,0.00,VWS V14.01,2013-01-03 13:23:00,
2013-01-03 07:24:00,26.1,19.9,29.14,North,0,0.0,0.0,77,0.00,,,0.00,0.00,VWS V14.01,2013-01-03 13:24:00,
2013-01-03 07:25:00,26.1,19.9,29.14,North,0,0.0,0.0,77,0.00,,,0.00,0.00,VWS V14.01,2013-01-03 13:25:00,
2013-01-03 07:26:00,26.1,20.1,29.14,North,0,0.0,0.0,78,0.00,,,0.00,0.00,VWS V14.01,2013-01-03 13:26:00,
2013-01-03 07:27:00,25.9,20.0,29.14,North,0,0.0,0.0,78,0.00,,,0.00,0.00,VWS V14.01,2013-01-03 13:27:00,
2013-01-03 07:28:00,25.9,20.0,29.14,North,0,0.0,0.0,78,0.00,,,0.00,0.00,VWS V14.01,2013-01-03 13:28:00,
2013-01-03 07:29:00,25.9,20.0,29.14,North,0,0.0,0.0,78,0.00,,,0.00,0.00,VWS V14.01,2013-01-03 13:29:00,
2013-01-03 07:30:00,25.7,19.8,29.14,North,0,0.0,0.0,78,0.00,,,0.00,0.00,VWS V14.01,2013-01-03 13:30:00,
2013-01-03 07:31:00,25.7,19.8,29.14,North,0,0.0,0.0,78,0.00,,,0.00,0.00,VWS V14.01,2013-01-03 13:31:00,
2013-01-03 07:32:00,25.7,19.8,29.14,North,0,0.0,0.0,78,0.00,,,0.00,0.00,VWS V14.01,2013-01-03 13:32:00,
2013-01-03 07:33:00,25.7,19.8,29.14,North,0,0.0,0.0,78,0.00,,,0.00,0.00,VWS V14.01,2013-01-03 13:33:00,
2013-01-03 07:34:00,25.5,19.6,29.14,North,0,0.0,0.0,78,0.00,,,0.00,0.00,VWS V14.01,2013-01-03 13:34:00,
2013-01-03 07:35:00,25.5,19.9,29.14,North,0,0.0,0.0,79,0.00,,,0.00,0.00,VWS V14.01,2013-01-03 13:35:00,
2013-01-03 07:36:00,25.5,19.9,29.14,North,0,0.0,0.0,79,0.00,,,0.00,0.00,VWS V14.01,2013-01-03 13:36:00,
2013-01-03 07:37:00,25.3,19.8,29.14,North,0,0.0,0.0,79,0.00,,,0.00,0.00,VWS V14.01,2013-01-03 13:37:00,
2013-01-03 07:38:00,25.3,19.8,29.14,North,0,0.0,0.0,79,0.00,,,0.00,0.00,VWS V14.01,2013-01-03 13:38:00,
2013-01-03 07:39:00,25.3,19.8,29.14,North,0,0.0,0.0,79,0.00,,,0.00,0.00,VWS V14.01,2013-01-03 13:39:00,
2013-01-03 07:40:00,25.3,19.8,29.14,North,0,0.0,0.0,79,0.00,,,0.00,0.00,VWS V14.01,2013-01-03 13:40:00,
2013-01-03 07:41:00,25.3,19.8,29.14,North,0,0.0,0.0,79,0.00,,,0.00,0.00,VWS V14.01,2013-01-03 13:41:00,
2013-01-03 07:42:00,25.3,19.8,29.14,North,0,0.0,0.0,79,0.00,,,0.00,0.00,VWS V14.01,2013-01-03 13:42:00,
2013-01-03 07:43:00,25.3,19.8,29.14,North,0,0.0,0.0,79,0.00,,,0.00,0.00,VWS V14.01,2013-01-03 13:43:00,
2013-01-03 07:44:00,25.3,19.8,29.14,North,0,0.0,0.0,79,0.00,,,0.00,0.00,VWS V14.01,2013-01-03 13:44:00,
2013-01-03 07:45:00,25.2,19.6,29.14,North,0,0.0,0.0,79,0.00,,,0.00,0.00,VWS V14.01,2013-01-03 13:45:00,
2013-01-03 07:46:00,25.2,19.6,29.14,North,0,0.0,0.0,79,0.00,,,0.00,0.00,VWS V14.01,2013-01-03 13:46:00,
2013-01-03 07:47:00,25.2,19.6,29.14,North,0,0.0,0.0,79,0.00,,,0.00,0.00,VWS V14.01,2013-01-03 13:47:00,
2013-01-03 07:48:00,25.2,19.3,29.14,North,0,0.0,0.0,78,0.00,,,0.00,0.00,VWS V14.01,2013-01-03 13:48:00,
2013-01-03 07:49:00,25.0,19.1,29.14,North,0,0.0,0.0,78,0.00,,,0.00,0.00,VWS V14.01,2013-01-03 13:49:00,
2013-01-03 07:50:00,25.0,19.1,29.14,North,0,0.0,0.0,78,0.00,,,0.00,0.00,VWS V14.01,2013-01-03 13:50:00,
2013-01-03 07:51:00,25.0,18.8,29.14,North,0,0.0,0.0,77,0.00,,,0.00,0.00,VWS V14.01,2013-01-03 13:51:00,
2013-01-03 07:52:00,25.0,18.8,29.14,North,0,0.0,0.0,77,0.00,,,0.00,0.00,VWS V14.01,2013-01-03 13:52:00,
2013-01-03 07:53:00,25.0,18.8,29.14,North,0,0.0,0.0,77,0.00,,,0.00,0.00,VWS V14.01,2013-01-03 13:53:00,
2013-01-03 07:54:00,25.0,18.8,29.14,North,0,0.0,0.0,77,0.00,,,0.00,0.00,VWS V14.01,2013-01-03 13:54:00,
2013-01-03 07:55:00,24.8,18.9,29.14,North,0,0.0,0.0,78,0.00,,,0.00,0.00,VWS V14.01,2013-01-03 13:55:00,
2013-01-03 07:56:00,24.8,18.6,29.14,North,0,0.0,0.0,77,0.00,,,0.00,0.00,VWS V14.01,2013-01-03 13:56:00,
2013-01-03 07:57:00,24.8,18.6,29.14,North,0,0.0,0.0,77,0.00,,,0.00,0.00,VWS V14.01,2013-01-03 13:57:00,
2013-01-03 07:58:00,24.8,18.6,29.14,North,0,0.0,0.0,77,0.00,,,0.00,0.00,VWS V14.01,2013-01-03 13:58:00,
2013-01-03 07:59:00,24.6,18.5,29.14,North,0,0.0,0.0,77,0.00,,,0.00,0.00,VWS V14.01,2013-01-03 13:59:00,
2013-01-03 08:00:00,24.6,18.5,29.14,North,0,0.0,0.0,77,0.00,,,0.00,0.00,VWS V14.01,2013-01-03 14:00:00,
2013-01-03 08:01:00,24.6,18.5,29.14,North,0,0.0,0.0,77,0.00,,,0.00,0.00,VWS V14.01,2013-01-03 14:01:00,
2013-01-03 08:02:00,24.6,18.1,29.14,North,0,0.0,0.0,76,0.00,,,0.00,0.00,VWS V14.01,2013-01-03 14:02:00,
2013-01-03 08:03:00,24.6,18.1,29.14,North,0,0.0,0.0,76,0.00,,,0.00,0.00,VWS V14.01,2013-01-03 14:03:00,
2013-01-03 08:04:00,24.4,18.0,29.14,North,0,0.0,0.0,76,0.00,,,0.00,0.00,VWS V14.01,2013-01-03 14:04:00,
2013-01-03 08:05:00,24.4,18.0,29.14,North,0,0.0,0.0,76,0.00,,,0.00,0.00,VWS V14.01,2013-01-03 14:05:00,
2013-01-03 08:06:00,24.4,18.0,29.14,North,0,0.0,0.0,76,0.00,,,0.00,0.00,VWS V14.01,2013-01-03 14:06:00,
2013-01-03 08:07:00,24.4,17.7,29.14,North,0,0.0,0.0,75,0.00,,,0.00,0.00,VWS V14.01,2013-01-03 14:07:00,
2013-01-03 08:08:00,24.4,17.7,29.14,North,0,0.0,0.0,75,0.00,,,0.00,0.00,VWS V14.01,2013-01-03 14:08:00,
2013-01-03 08:09:00,24.4,17.7,29.14,North,0,0.0,0.0,75,0.00,,,0.00,0.00,VWS V14.01,2013-01-03 14:09:00,
2013-01-03 08:10:00,24.4,17.7,29.14,North,0,0.0,0.0,75,0.00,,,0.00,0.00,VWS V14.01,2013-01-03 14:10:00,
2013-01-03 08:11:00,24.4,17.4,29.14,North,0,0.0,0.0,74,0.00,,,0.00,0.00,VWS V14.01,2013-01-03 14:11:00,
2013-01-03 08:12:00,24.4,17.4,29.14,North,0,0.0,0.0,74,0.00,,,0.00,0.00,VWS V14.01,2013-01-03 14:12:00,
2013-01-03 08:13:00,24.4,17.4,29.14,North,0,0.0,0.0,74,0.00,,,0.00,0.00,VWS V14.01,2013-01-03 14:13:00,
2013-01-03 08:14:00,24.4,17.4,29.14,North,0,0.0,0.0,74,0.00,,,0.00,0.00,VWS V14.01,2013-01-03 14:14:00,
2013-01-03 08:15:00,24.4,17.4,29.14,North,0,0.0,0.0,74,0.00,,,0.00,0.00,VWS V14.01,2013-01-03 14:15:00,
2013-01-03 08:16:00,24.4,17.4,29.14,North,0,0.0,0.0,74,0.00,,,0.00,0.00,VWS V14.01,2013-01-03 14:16:00,
2013-01-03 08:17:00,24.4,17.4,29.14,North,0,0.0,0.0,74,0.00,,,0.00,0.00,VWS V14.01,2013-01-03 14:17:00,
2013-01-03 08:18:00,24.4,17.4,29.14,North,0,0.0,0.0,74,0.00,,,0.00,0.00,VWS V14.01,2013-01-03 14:18:00,
2013-01-03 08:19:00,24.3,16.9,29.14,North,0,0.0,0.0,73,0.00,,,0.00,0.00,VWS V14.01,2013-01-03 14:19:00,
2013-01-03 08:20:00,24.3,16.9,29.17,North,0,0.0,0.0,73,0.00,,,0.00,0.00,VWS V14.01,2013-01-03 14:20:00,
2013-01-03 08:21:00,24.3,16.9,29.17,North,0,0.0,0.0,73,0.00,,,0.00,0.00,VWS V14.01,2013-01-03 14:21:00,
2013-01-03 08:22:00,24.3,16.9,29.17,North,0,0.0,0.0,73,0.00,,,0.00,0.00,VWS V14.01,2013-01-03 14:22:00,
2013-01-03 08:23:00,24.3,16.9,29.17,North,0,0.0,0.0,73,0.00,,,0.00,0.00,VWS V14.01,2013-01-03 14:23:00,
2013-01-03 08:24:00,24.3,16.9,29.17,North,0,0.0,0.0,73,0.00,,,0.00,0.00,VWS V14.01,2013-01-03 14:24:00,
2013-01-03 08:25:00,24.4,17.0,29.17,North,0,0.0,0.0,73,0.00,,,0.00,0.00,VWS V14.01,2013-01-03 14:25:00,
2013-01-03 08:26:00,24.4,17.0,29.17,North,0,0.0,0.0,73,0.00,,,0.00,0.00,VWS V14.01,2013-01-03 14:26:00,
2013-01-03 08:27:00,24.3,16.9,29.17,North,0,0.0,0.0,73,0.00,,,0.00,0.00,VWS V14.01,2013-01-03 14:27:00,
2013-01-03 08:28:00,24.4,17.0,29.17,North,0,0.0,0.0,73,0.00,,,0.00,0.00,VWS V14.01,2013-01-03 14:28:00,
2013-01-03 08:29:00,24.4,17.0,29.17,North,0,0.0,0.0,73,0.00,,,0.00,0.00,VWS V14.01,2013-01-03 14:29:00,
2013-01-03 08:30:00,24.3,16.5,29.17,North,0,0.0,0.0,72,0.00,,,0.00,0.00,VWS V14.01,2013-01-03 14:30:00,
2013-01-03 08:31:00,24.3,16.5,29.17,North,0,0.0,0.0,72,0.00,,,0.00,0.00,VWS V14.01,2013-01-03 14:31:00,
2013-01-03 08:32:00,24.3,16.5,29.17,North,0,0.0,0.0,72,0.00,,,0.00,0.00,VWS V14.01,2013-01-03 14:32:00,
2013-01-03 08:33:00,24.4,16.7,29.17,North,0,0.0,0.0,72,0.00,,,0.00,0.00,VWS V14.01,2013-01-03 14:33:00,
2013-01-03 08:34:00,24.3,16.2,29.17,North,0,0.0,0.0,71,0.00,,,0.00,0.00,VWS V14.01,2013-01-03 14:34:00,
2013-01-03 08:35:00,24.3,16.2,29.20,North,0,0.0,0.0,71,0.00,,,0.00,0.00,VWS V14.01,2013-01-03 14:35:00,
2013-01-03 08:36:00,24.3,15.9,29.20,North,0,0.0,0.0,70,0.00,,,0.00,0.00,VWS V14.01,2013-01-03 14:36:00,
2013-01-03 08:37:00,24.1,15.4,29.20,North,0,0.0,0.0,69,0.00,,,0.00,0.00,VWS V14.01,2013-01-03 14:37:00,
2013-01-03 08:38:00,24.1,15.4,29.20,North,0,0.0,0.0,69,0.00,,,0.00,0.00,VWS V14.01,2013-01-03 14:38:00,
2013-01-03 08:39:00,24.1,15.4,29.20,North,0,0.0,0.0,69,0.00,,,0.00,0.00,VWS V14.01,2013-01-03 14:39:00,
2013-01-03 08:40:00,24.1,15.4,29.20,North,0,0.0,0.0,69,0.00,,,0.00,0.00,VWS V14.01,2013-01-03 14:40:00,
2013-01-03 08:41:00,24.1,15.4,29.20,North,0,0.0,0.0,69,0.00,,,0.00,0.00,VWS V14.01,2013-01-03 14:41:00,
2013-01-03 08:42:00,24.1,15.4,29.20,North,0,0.0,0.0,69,0.00,,,0.00,0.00,VWS V14.01,2013-01-03 14:42:00,
2013-01-03 08:43:00,24.1,15.4,29.20,North,0,0.0,0.0,69,0.00,,,0.00,0.00,VWS V14.01,2013-01-03 14:43:00,
2013-01-03 08:44:00,24.1,15.4,29.20,North,0,0.0,0.0,69,0.00,,,0.00,0.00,VWS V14.01,2013-01-03 14:44:00,
2013-01-03 08:45:00,24.3,15.6,29.20,North,0,0.0,0.0,69,0.00,,,0.00,0.00,VWS V14.01,2013-01-03 14:45:00,
2013-01-03 08:46:00,24.3,15.6,29.20,North,0,0.0,0.0,69,0.00,,,0.00,0.00,VWS V14.01,2013-01-03 14:46:00,
2013-01-03 08:47:00,24.3,15.6,29.20,North,0,0.0,0.0,69,0.00,,,0.00,0.00,VWS V14.01,2013-01-03 14:47:00,
2013-01-03 08:48:00,24.3,15.6,29.20,North,0,0.0,0.0,69,0.00,,,0.00,0.00,VWS V14.01,2013-01-03 14:48:00,
2013-01-03 08:49:00,24.3,15.6,29.20,North,0,0.0,0.0,69,0.00,,,0.00,0.00,VWS V14.01,2013-01-03 14:49:00,
2013-01-03 08:50:00,24.3,15.2,29.20,North,0,0.0,0.0,68,0.00,,,0.00,0.00,VWS V14.01,2013-01-03 14:50:00,
2013-01-03 08:51:00,24.3,15.2,29.20,North,0,0.0,0.0,68,0.00,,,0.00,0.00,VWS V14.01,2013-01-03 14:51:00,
2013-01-03 08:52:00,24.3,15.2,29.20,North,0,0.0,0.0,68,0.00,,,0.00,0.00,VWS V14.01,2013-01-03 14:52:00,
2013-01-03 08:53:00,24.3,15.2,29.20,North,0,0.0,0.0,68,0.00,,,0.00,0.00,VWS V14.01,2013-01-03 14:53:00,
2013-01-03 08:54:00,24.3,14.9,29.20,North,0,0.0,0.0,67,0.00,,,0.00,0.00,VWS V14.01,2013-01-03 14:54:00,
2013-01-03 08:55:00,24.1,14.7,29.20,North,0,0.0,0.0,67,0.00,,,0.00,0.00,VWS V14.01,2013-01-03 14:55:00,
2013-01-03 08:56:00,24.1,14.4,29.20,North,0,0.0,0.0,66,0.00,,,0.00,0.00,VWS V14.01,2013-01-03 14:56:00,
2013-01-03 08:57:00,24.1,14.4,29.20,North,0,0.0,0.0,66,0.00,,,0.00,0.00,VWS V14.01,2013-01-03 14:57:00,
2013-01-03 08:58:00,24.1,14.4,29.20,North,0,0.0,0.0,66,0.00,,,0.00,0.00,VWS V14.01,2013-01-03 14:58:00,
2013-01-03 08:59:00,23.9,13.9,29.20,North,0,0.0,0.0,65,0.00,,,0.00,0.00,VWS V14.01,2013-01-03 14:59:00,
2013-01-03 09:00:00,24.1,14.0,29.20,North,0,0.0,0.0,65,0.00,,,0.00,0.00,VWS V14.01,2013-01-03 15:00:00,
2013-01-03 09:01:00,24.1,14.0,29.20,North,0,0.0,0.0,65,0.00,,,0.00,0.00,VWS V14.01,2013-01-03 15:01:00,
2013-01-03 09:02:00,24.1,14.0,29.20,North,0,0.0,0.0,65,0.00,,,0.00,0.00,VWS V14.01,2013-01-03 15:02:00,
2013-01-03 09:03:00,24.1,14.0,29.20,North,0,0.0,0.0,65,0.00,,,0.00,0.00,VWS V14.01,2013-01-03 15:03:00,
2013-01-03 09:04:00,24.1,14.0,29.20,North,0,0.0,0.0,65,0.00,,,0.00,0.00,VWS V14.01,2013-01-03 15:04:00,
2013-01-03 09:05:00,24.1,13.7,29.23,North,0,0.0,0.0,64,0.00,,,0.00,0.00,VWS V14.01,2013-01-03 15:05:00,
2013-01-03 09:06:00,24.1,14.0,29.23,North,0,0.0,0.0,65,0.00,,,0.00,0.00,VWS V14.01,2013-01-03 15:06:00,
2013-01-03 09:07:00,24.1,14.0,29.23,North,0,0.0,0.0,65,0.00,,,0.00,0.00,VWS V14.01,2013-01-03 15:07:00,
2013-01-03 09:08:00,24.1,13.7,29.23,North,0,0.0,0.0,64,0.00,,,0.00,0.00,VWS V14.01,2013-01-03 15:08:00,
2013-01-03 09:09:00,24.1,13.7,29.23,North,0,0.0,0.0,64,0.00,,,0.00,0.00,VWS V14.01,2013-01-03 15:09:00,
2013-01-03 09:10:00,24.1,13.7,29.23,North,0,0.0,0.0,64,0.00,,,0.00,0.00,VWS V14.01,2013-01-03 15:10:00,
2013-01-03 09:11:00,24.1,13.7,29.23,North,0,0.0,0.0,64,0.00,,,0.00,0.00,VWS V14.01,2013-01-03 15:11:00,
2013-01-03 09:12:00,24.1,13.7,29.23,North,0,0.0,0.0,64,0.00,,,0.00,0.00,VWS V14.01,2013-01-03 15:12:00,
2013-01-03 09:13:00,24.1,13.7,29.23,North,0,0.0,0.0,64,0.00,,,0.00,0.00,VWS V14.01,2013-01-03 15:13:00,
2013-01-03 09:14:00,23.9,13.9,29.23,North,0,0.0,0.0,65,0.00,,,0.00,0.00,VWS V14.01,2013-01-03 15:14:00,
2013-01-03 09:15:00,24.1,14.0,29.23,North,0,0.0,0.0,65,0.00,,,0.00,0.00,VWS V14.01,2013-01-03 15:15:00,
2013-01-03 09:16:00,24.1,14.0,29.23,North,0,0.0,0.0,65,0.00,,,0.00,0.00,VWS V14.01,2013-01-03 15:16:00,
2013-01-03 09:17:00,23.9,13.9,29.23,North,0,0.0,0.0,65,0.00,,,0.00,0.00,VWS V14.01,2013-01-03 15:17:00,
2013-01-03 09:18:00,24.1,13.7,29.23,North,0,0.0,0.0,64,0.00,,,0.00,0.00,VWS V14.01,2013-01-03 15:18:00,
2013-01-03 09:19:00,24.1,13.7,29.23,North,0,0.0,0.0,64,0.00,,,0.00,0.00,VWS V14.01,2013-01-03 15:19:00,
2013-01-03 09:20:00,24.1,13.7,29.17,North,0,0.0,0.0,64,0.00,,,0.00,0.00,VWS V14.01,2013-01-03 15:20:00,
2013-01-03 09:21:00,24.1,13.7,29.17,North,0,0.0,0.0,64,0.00,,,0.00,0.00,VWS V14.01,2013-01-03 15:21:00,
2013-01-03 09:22:00,24.1,13.7,29.17,North,0,0.0,0.0,64,0.00,,,0.00,0.00,VWS V14.01,2013-01-03 15:22:00,
2013-01-03 09:23:00,23.9,13.1,29.17,North,0,0.0,0.0,63,0.00,,,0.00,0.00,VWS V14.01,2013-01-03 15:23:00,
2013-01-03 09:24:00,23.9,13.1,29.17,North,0,0.0,0.0,63,0.00,,,0.00,0.00,VWS V14.01,2013-01-03 15:24:00,
2013-01-03 09:25:00,23.9,13.1,29.17,North,0,0.0,0.0,63,0.00,,,0.00,0.00,VWS V14.01,2013-01-03 15:25:00,
2013-01-03 09:26:00,23.7,12.6,29.17,North,0,0.0,0.0,62,0.00,,,0.00,0.00,VWS V14.01,2013-01-03 15:26:00,
2013-01-03 09:27:00,23.7,12.6,29.17,North,0,0.0,0.0,62,0.00,,,0.00,0.00,VWS V14.01,2013-01-03 15:27:00,
2013-01-03 09:28:00,23.7,12.6,29.17,North,0,0.0,0.0,62,0.00,,,0.00,0.00,VWS V14.01,2013-01-03 15:28:00,
2013-01-03 09:29:00,23.7,12.6,29.17,North,0,0.0,0.0,62,0.00,,,0.00,0.00,VWS V14.01,2013-01-03 15:29:00,
2013-01-03 09:30:00,23.7,12.6,29.17,North,0,0.0,0.0,62,0.00,,,0.00,0.00,VWS V14.01,2013-01-03 15:30:00,
2013-01-03 09:31:00,23.7,12.6,29.17,North,0,0.0,0.0,62,0.00,,,0.00,0.00,VWS V14.01,2013-01-03 15:31:00,
2013-01-03 09:32:00,23.7,12.6,29.17,North,0,0.0,0.0,62,0.00,,,0.00,0.00,VWS V14.01,2013-01-03 15:32:00,
2013-01-03 09:33:00,23.5,12.4,29.17,North,0,0.0,0.0,62,0.00,,,0.00,0.00,VWS V14.01,2013-01-03 15:33:00,
2013-01-03 09:34:00,23.5,12.4,29.17,North,0,0.0,0.0,62,0.00,,,0.00,0.00,VWS V14.01,2013-01-03 15:34:00,
2013-01-03 09:35:00,23.5,11.7,29.20,North,0,0.0,0.0,60,0.00,,,0.00,0.00,VWS V14.01,2013-01-03 15:35:00,
2013-01-03 09:36:00,23.5,11.3,29.20,North,0,0.0,0.0,59,0.00,,,0.00,0.00,VWS V14.01,2013-01-03 15:36:00,
2013-01-03 09:37:00,23.4,10.8,29.20,North,0,0.0,0.0,58,0.00,,,0.00,0.00,VWS V14.01,2013-01-03 15:37:00,
2013-01-03 09:38:00,23.4,10.4,29.20,North,0,0.0,0.0,57,0.00,,,0.00,0.00,VWS V14.01,2013-01-03 15:38:00,
2013-01-03 09:39:00,23.4,10.4,29.20,North,0,0.0,0.0,57,0.00,,,0.00,0.00,VWS V14.01,2013-01-03 15:39:00,
2013-01-03 09:40:00,23.2,9.8,29.20,North,0,0.0,0.0,56,0.00,,,0.00,0.00,VWS V14.01,2013-01-03 15:40:00,
2013-01-03 09:41:00,23.0,9.7,29.20,North,0,0.0,0.0,56,0.00,,,0.00,0.00,VWS V14.01,2013-01-03 15:41:00,
2013-01-03 09:42:00,23.2,9.8,29.20,North,0,0.0,0.0,56,0.00,,,0.00,0.00,VWS V14.01,2013-01-03 15:42:00,
2013-01-03 09:43:00,23.0,9.7,29.20,North,0,0.0,0.0,56,0.00,,,0.00,0.00,VWS V14.01,2013-01-03 15:43:00,
2013-01-03 09:44:00,23.0,9.7,29.20,North,0,0.0,0.0,56,0.00,,,0.00,0.00,VWS V14.01,2013-01-03 15:44:00,
2013-01-03 09:45:00,23.2,9.8,29.20,North,0,0.0,0.0,56,0.00,,,0.00,0.00,VWS V14.01,2013-01-03 15:45:00,
2013-01-03 09:46:00,23.2,9.8,29.20,North,0,0.0,0.0,56,0.00,,,0.00,0.00,VWS V14.01,2013-01-03 15:46:00,
2013-01-03 09:47:00,23.2,9.8,29.20,North,0,0.0,0.0,56,0.00,,,0.00,0.00,VWS V14.01,2013-01-03 15:47:00,
2013-01-03 09:48:00,23.2,9.8,29.20,North,0,0.0,0.0,56,0.00,,,0.00,0.00,VWS V14.01,2013-01-03 15:48:00,
2013-01-03 09:49:00,23.2,9.8,29.20,North,0,0.0,0.0,56,0.00,,,0.00,0.00,VWS V14.01,2013-01-03 15:49:00,
2013-01-03 09:50:00,23.2,9.4,29.20,North,0,0.0,0.0,55,0.00,,,0.00,0.00,VWS V14.01,2013-01-03 15:50:00,
2013-01-03 09:51:00,23.5,10.2,29.20,North,0,0.0,0.0,56,0.00,,,0.00,0.00,VWS V14.01,2013-01-03 15:51:00,
2013-01-03 09:52:00,23.5,9.8,29.20,North,0,0.0,0.0,55,0.00,,,0.00,0.00,VWS V14.01,2013-01-03 15:52:00,
2013-01-03 09:53:00,23.7,9.9,29.20,North,0,0.0,0.0,55,0.00,,,0.00,0.00,VWS V14.01,2013-01-03 15:53:00,
2013-01-03 09:54:00,23.7,9.9,29.20,North,0,0.0,0.0,55,0.00,,,0.00,0.00,VWS V14.01,2013-01-03 15:54:00,
2013-01-03 09:55:00,23.9,10.1,29.20,North,0,0.0,0.0,55,0.00,,,0.00,0.00,VWS V14.01,2013-01-03 15:55:00,
2013-01-03 09:56:00,24.1,9.9,29.20,North,0,0.0,0.0,54,0.00,,,0.00,0.00,VWS V14.01,2013-01-03 15:56:00,
2013-01-03 09:57:00,24.1,9.9,29.20,North,0,0.0,0.0,54,0.00,,,0.00,0.00,VWS V14.01,2013-01-03 15:57:00,
2013-01-03 09:58:00,24.1,9.9,29.20,North,0,0.0,0.0,54,0.00,,,0.00,0.00,VWS V14.01,2013-01-03 15:58:00,
2013-01-03 09:59:00,23.9,9.7,29.20,North,0,0.0,0.0,54,0.00,,,0.00,0.00,VWS V14.01,2013-01-03 15:59:00,
2013-01-03 10:00:00,23.7,9.1,29.20,North,0,0.0,0.0,53,0.00,,,0.00,0.00,VWS V14.01,2013-01-03 16:00:00,
2013-01-03 10:01:00,23.7,9.1,29.20,North,0,0.0,0.0,53,0.00,,,0.00,0.00,VWS V14.01,2013-01-03 16:01:00,
2013-01-03 10:02:00,23.9,9.3,29.20,North,0,0.0,0.0,53,0.00,,,0.00,0.00,VWS V14.01,2013-01-03 16:02:00,
2013-01-03 10:03:00,23.9,9.3,29.20,North,0,0.0,0.0,53,0.00,,,0.00,0.00,VWS V14.01,2013-01-03 16:03:00,
2013-01-03 10:04:00,23.9,9.3,29.20,North,0,0.0,0.0,53,0.00,,,0.00,0.00,VWS V14.01,2013-01-03 16:04:00,
2013-01-03 10:05:00,23.7,8.7,29.23,North,0,0.0,0.0,52,0.00,,,0.00,0.00,VWS V14.01,2013-01-03 16:05:00,
2013-01-03 10:06:00,23.7,9.1,29.23,North,0,0.0,0.0,53,0.00,,,0.00,0.00,VWS V14.01,2013-01-03 16:06:00,
2013-01-03 10:07:00,23.7,9.1,29.23,North,0,0.0,0.0,53,0.00,,,0.00,0.00,VWS V14.01,2013-01-03 16:07:00,
2013-01-03 10:08:00,23.7,9.1,29.23,North,0,0.0,0.0,53,0.00,,,0.00,0.00,VWS V14.01,2013-01-03 16:08:00,
2013-01-03 10:09:00,23.7,9.1,29.23,North,0,0.0,0.0,53,0.00,,,0.00,0.00,VWS V14.01,2013-01-03 16:09:00,
2013-01-03 10:10:00,23.9,9.3,29.23,North,0,0.0,0.0,53,0.00,,,0.00,0.00,VWS V14.01,2013-01-03 16:10:00,
2013-01-03 10:11:00,23.9,9.3,29.23,North,0,0.0,0.0,53,0.00,,,0.00,0.00,VWS V14.01,2013-01-03 16:11:00,
2013-01-03 10:12:00,23.9,9.3,29.23,North,0,0.0,0.0,53,0.00,,,0.00,0.00,VWS V14.01,2013-01-03 16:12:00,
2013-01-03 10:13:00,23.9,9.3,29.23,North,0,0.0,0.0,53,0.00,,,0.00,0.00,VWS V14.01,2013-01-03 16:13:00,
2013-01-03 10:14:00,23.9,8.9,29.23,North,0,0.0,0.0,52,0.00,,,0.00,0.00,VWS V14.01,2013-01-03 16:14:00,
2013-01-03 10:15:00,23.9,8.9,29.23,North,0,0.0,0.0,52,0.00,,,0.00,0.00,VWS V14.01,2013-01-03 16:15:00,
2013-01-03 10:16:00,24.1,9.4,29.23,North,0,0.0,0.0,53,0.00,,,0.00,0.00,VWS V14.01,2013-01-03 16:16:00,
2013-01-03 10:17:00,24.1,9.4,29.23,North,0,0.0,0.0,53,0.00,,,0.00,0.00,VWS V14.01,2013-01-03 16:17:00,
2013-01-03 10:18:00,24.4,9.8,29.23,North,0,0.0,0.0,53,0.00,,,0.00,0.00,VWS V14.01,2013-01-03 16:18:00,
2013-01-03 10:19:00,24.4,9.4,29.23,North,0,0.0,0.0,52,0.00,,,0.00,0.00,VWS V14.01,2013-01-03 16:19:00,
2013-01-03 10:20:00,24.4,9.4,29.23,North,0,0.0,0.0,52,0.00,,,0.00,0.00,VWS V14.01,2013-01-03 16:20:00,
2013-01-03 10:21:00,24.4,9.4,29.23,North,0,0.0,0.0,52,0.00,,,0.00,0.00,VWS V14.01,2013-01-03 16:21:00,
2013-01-03 10:22:00,24.4,9.4,29.23,North,0,0.0,0.0,52,0.00,,,0.00,0.00,VWS V14.01,2013-01-03 16:22:00,
2013-01-03 10:23:00,24.4,8.9,29.23,North,0,0.0,0.0,51,0.00,,,0.00,0.00,VWS V14.01,2013-01-03 16:23:00,
2013-01-03 10:24:00,24.6,9.5,29.23,North,0,0.0,0.0,52,0.00,,,0.00,0.00,VWS V14.01,2013-01-03 16:24:00,
2013-01-03 10:25:00,24.8,9.7,29.23,North,0,0.0,0.0,52,0.00,,,0.00,0.00,VWS V14.01,2013-01-03 16:25:00,
2013-01-03 10:26:00,25.2,9.6,29.23,North,0,0.0,0.0,51,0.00,,,0.00,0.00,VWS V14.01,2013-01-03 16:26:00,
2013-01-03 10:27:00,25.3,9.8,29.23,North,0,0.0,0.0,51,0.00,,,0.00,0.00,VWS V14.01,2013-01-03 16:27:00,
2013-01-03 10:28:00,25.5,9.9,29.23,North,0,0.0,0.0,51,0.00,,,0.00,0.00,VWS V14.01,2013-01-03 16:28:00,
2013-01-03 10:29:00,25.5,9.9,29.23,North,0,0.0,0.0,51,0.00,,,0.00,0.00,VWS V14.01,2013-01-03 16:29:00,
2013-01-03 10:30:00,25.7,10.1,29.23,North,0,0.0,0.0,51,0.00,,,0.00,0.00,VWS V14.01,2013-01-03 16:30:00,
2013-01-03 10:31:00,25.7,9.6,29.23,North,0,0.0,0.0,50,0.00,,,0.00,0.00,VWS V14.01,2013-01-03 16:31:00,
2013-01-03 10:32:00,25.7,9.6,29.23,North,0,0.0,0.0,50,0.00,,,0.00,0.00,VWS V14.01,2013-01-03 16:32:00,
2013-01-03 10:33:00,26.1,10.0,29.23,North,0,0.0,0.0,50,0.00,,,0.00,0.00,VWS V14.01,2013-01-03 16:33:00,
2013-01-03 10:34:00,26.1,10.0,29.23,North,0,0.0,0.0,50,0.00,,,0.00,0.00,VWS V14.01,2013-01-03 16:34:00,
2013-01-03 10:35:00,26.1,10.0,29.23,North,0,0.0,0.0,50,0.00,,,0.00,0.00,VWS V14.01,2013-01-03 16:35:00,
2013-01-03 10:36:00,26.1,9.5,29.23,North,0,0.0,0.0,49,0.00,,,0.00,0.00,VWS V14.01,2013-01-03 16:36:00,
2013-01-03 10:37:00,26.1,9.5,29.23,North,0,0.0,0.0,49,0.00,,,0.00,0.00,VWS V14.01,2013-01-03 16:37:00,
2013-01-03 10:38:00,25.7,8.7,29.23,North,0,0.0,0.0,48,0.00,,,0.00,0.00,VWS V14.01,2013-01-03 16:38:00,
2013-01-03 10:39:00,25.5,8.1,29.23,North,0,0.0,0.0,47,0.00,,,0.00,0.00,VWS V14.01,2013-01-03 16:39:00,
2013-01-03 10:40:00,25.3,8.4,29.23,North,0,0.0,0.0,48,0.00,,,0.00,0.00,VWS V14.01,2013-01-03 16:40:00,
2013-01-03 10:41:00,25.0,7.6,29.23,North,0,0.0,0.0,47,0.00,,,0.00,0.00,VWS V14.01,2013-01-03 16:41:00,
2013-01-03 10:42:00,25.0,7.6,29.23,North,0,0.0,0.0,47,0.00,,,0.00,0.00,VWS V14.01,2013-01-03 16:42:00,
2013-01-03 10:43:00,25.3,8.4,29.23,North,0,0.0,0.0,48,0.00,,,0.00,0.00,VWS V14.01,2013-01-03 16:43:00,
2013-01-03 10:44:00,25.7,8.7,29.23,North,0,0.0,0.0,48,0.00,,,0.00,0.00,VWS V14.01,2013-01-03 16:44:00,
2013-01-03 10:45:00,26.1,9.1,29.23,North,0,0.0,0.0,48,0.00,,,0.00,0.00,VWS V14.01,2013-01-03 16:45:00,
2013-01-03 10:46:00,26.1,8.6,29.23,North,0,0.0,0.0,47,0.00,,,0.00,0.00,VWS V14.01,2013-01-03 16:46:00,
2013-01-03 10:47:00,26.2,9.2,29.23,North,0,0.0,0.0,48,0.00,,,0.00,0.00,VWS V14.01,2013-01-03 16:47:00,
2013-01-03 10:48:00,26.1,9.1,29.23,North,0,0.0,0.0,48,0.00,,,0.00,0.00,VWS V14.01,2013-01-03 16:48:00,
2013-01-03 10:49:00,26.1,8.6,29.23,North,0,0.0,0.0,47,0.00,,,0.00,0.00,VWS V14.01,2013-01-03 16:49:00,
2013-01-03 10:50:00,26.6,9.1,29.23,North,0,0.0,0.0,47,0.00,,,0.00,0.00,VWS V14.01,2013-01-03 16:50:00,
2013-01-03 10:51:00,26.2,8.8,29.23,North,0,0.0,0.0,47,0.00,,,0.00,0.00,VWS V14.01,2013-01-03 16:51:00,
2013-01-03 10:52:00,26.1,8.6,29.23,North,0,0.0,0.0,47,0.00,,,0.00,0.00,VWS V14.01,2013-01-03 16:52:00,
2013-01-03 10:53:00,26.1,8.6,29.23,North,0,0.0,0.0,47,0.00,,,0.00,0.00,VWS V14.01,2013-01-03 16:53:00,
2013-01-03 10:54:00,26.1,8.6,29.23,North,0,0.0,0.0,47,0.00,,,0.00,0.00,VWS V14.01,2013-01-03 16:54:00,
2013-01-03 10:55:00,26.1,8.6,29.23,North,0,0.0,0.0,47,0.00,,,0.00,0.00,VWS V14.01,2013-01-03 16:55:00,
2013-01-03 10:56:00,26.2,8.3,29.23,North,0,0.0,0.0,46,0.00,,,0.00,0.00,VWS V14.01,2013-01-03 16:56:00,
2013-01-03 10:57:00,26.2,8.8,29.23,North,0,0.0,0.0,47,0.00,,,0.00,0.00,VWS V14.01,2013-01-03 16:57:00,
2013-01-03 10:58:00,27.0,8.9,29.23,North,0,0.0,0.0,46,0.00,,,0.00,0.00,VWS V14.01,2013-01-03 16:58:00,
2013-01-03 10:59:00,27.1,9.1,29.23,North,0,0.0,0.0,46,0.00,,,0.00,0.00,VWS V14.01,2013-01-03 16:59:00,
2013-01-03 11:00:00,28.0,9.9,29.23,North,0,0.0,0.0,46,0.00,,,0.00,0.00,VWS V14.01,2013-01-03 17:00:00,
2013-01-03 11:01:00,28.6,10.4,29.23,North,0,0.0,0.0,46,0.00,,,0.00,0.00,VWS V14.01,2013-01-03 17:01:00,
2013-01-03 11:02:00,29.3,11.6,29.23,North,0,0.0,0.0,47,0.00,,,0.00,0.00,VWS V14.01,2013-01-03 17:02:00,
2013-01-03 11:03:00,29.7,11.4,29.23,North,0,0.0,0.0,46,0.00,,,0.00,0.00,VWS V14.01,2013-01-03 17:03:00,
2013-01-03 11:04:00,30.2,11.4,29.23,North,0,0.0,0.0,45,0.00,,,0.00,0.00,VWS V14.01,2013-01-03 17:04:00,
2013-01-03 11:05:00,30.2,11.4,29.23,North,0,0.0,0.0,45,0.00,,,0.00,0.00,VWS V14.01,2013-01-03 17:05:00,
2013-01-03 11:06:00,31.8,12.4,29.23,North,0,0.0,0.0,44,0.00,,,0.00,0.00,VWS V14.01,2013-01-03 17:06:00,
2013-01-03 11:07:00,32.2,13.2,29.23,North,0,0.0,0.0,45,0.00,,,0.00,0.00,VWS V14.01,2013-01-03 17:07:00,
2013-01-03 11:08:00,32.2,13.2,29.23,North,0,0.0,0.0,45,0.00,,,0.00,0.00,VWS V14.01,2013-01-03 17:08:00,
2013-01-03 11:09:00,32.0,12.1,29.23,North,0,0.0,0.0,43,0.00,,,0.00,0.00,VWS V14.01,2013-01-03 17:09:00,
2013-01-03 11:10:00,32.0,12.1,29.23,North,0,0.0,0.0,43,0.00,,,0.00,0.00,VWS V14.01,2013-01-03 17:10:00,
2013-01-03 11:11:00,31.3,11.4,29.23,North,0,0.0,0.0,43,0.00,,,0.00,0.00,VWS V14.01,2013-01-03 17:11:00,
2013-01-03 11:12:00,31.5,11.6,29.23,North,0,0.0,0.0,43,0.00,,,0.00,0.00,VWS V14.01,2013-01-03 17:12:00,
2013-01-03 11:13:00,31.3,10.9,29.23,North,0,0.0,0.0,42,0.00,,,0.00,0.00,VWS V14.01,2013-01-03 17:13:00,
2013-01-03 11:14:00,31.5,11.6,29.23,North,0,0.0,0.0,43,0.00,,,0.00,0.00,VWS V14.01,2013-01-03 17:14:00,
2013-01-03 11:15:00,31.5,11.6,29.23,North,0,0.0,0.0,43,0.00,,,0.00,0.00,VWS V14.01,2013-01-03 17:15:00,
2013-01-03 11:16:00,31.3,10.9,29.23,North,0,0.0,0.0,42,0.00,,,0.00,0.00,VWS V14.01,2013-01-03 17:16:00,
2013-01-03 11:17:00,31.3,10.9,29.23,North,0,0.0,0.0,42,0.00,,,0.00,0.00,VWS V14.01,2013-01-03 17:17:00,
2013-01-03 11:18:00,31.3,10.9,29.23,North,0,0.0,0.0,42,0.00,,,0.00,0.00,VWS V14.01,2013-01-03 17:18:00,
2013-01-03 11:19:00,31.6,11.2,29.23,North,0,0.0,0.0,42,0.00,,,0.00,0.00,VWS V14.01,2013-01-03 17:19:00,
2013-01-03 11:20:00,31.8,11.4,29.23,North,0,0.0,0.0,42,0.00,,,0.00,0.00,VWS V14.01,2013-01-03 17:20:00,
2013-01-03 11:21:00,31.8,11.4,29.23,North,0,0.0,0.0,42,0.00,,,0.00,0.00,VWS V14.01,2013-01-03 17:21:00,
2013-01-03 11:22:00,31.6,10.6,29.23,North,0,0.0,0.0,41,0.00,,,0.00,0.00,VWS V14.01,2013-01-03 17:22:00,
2013-01-03 11:23:00,31.6,11.2,29.23,North,0,0.0,0.0,42,0.00,,,0.00,0.00,VWS V14.01,2013-01-03 17:23:00,
2013-01-03 11:24:00,31.6,10.6,29.23,North,0,0.0,0.0,41,0.00,,,0.00,0.00,VWS V14.01,2013-01-03 17:24:00,
2013-01-03 11:25:00,32.0,11.0,29.23,North,0,0.0,0.0,41,0.00,,,0.00,0.00,VWS V14.01,2013-01-03 17:25:00,
2013-01-03 11:26:00,32.0,11.0,29.23,North,0,0.0,0.0,41,0.00,,,0.00,0.00,VWS V14.01,2013-01-03 17:26:00,
2013-01-03 11:27:00,31.6,10.6,29.23,North,0,0.0,0.0,41,0.00,,,0.00,0.00,VWS V14.01,2013-01-03 17:27:00,
2013-01-03 11:28:00,31.6,10.6,29.23,North,0,0.0,0.0,41,0.00,,,0.00,0.00,VWS V14.01,2013-01-03 17:28:00,
2013-01-03 11:29:00,31.1,10.2,29.23,North,0,0.0,0.0,41,0.00,,,0.00,0.00,VWS V14.01,2013-01-03 17:29:00,
2013-01-03 11:30:00,30.6,9.7,29.23,North,0,0.0,0.0,41,0.00,,,0.00,0.00,VWS V14.01,2013-01-03 17:30:00,
2013-01-03 11:31:00,30.4,9.5,29.23,North,0,0.0,0.0,41,0.00,,,0.00,0.00,VWS V14.01,2013-01-03 17:31:00,
2013-01-03 11:32:00,30.2,9.9,29.23,North,0,0.0,0.0,42,0.00,,,0.00,0.00,VWS V14.01,2013-01-03 17:32:00,
2013-01-03 11:33:00,30.4,10.1,29.23,North,0,0.0,0.0,42,0.00,,,0.00,0.00,VWS V14.01,2013-01-03 17:33:00,
2013-01-03 11:34:00,30.4,10.1,29.23,North,0,0.0,0.0,42,0.00,,,0.00,0.00,VWS V14.01,2013-01-03 17:34:00,
2013-01-03 11:35:00,30.4,10.1,29.23,North,0,0.0,0.0,42,0.00,,,0.00,0.00,VWS V14.01,2013-01-03 17:35:00,
2013-01-03 11:36:00,30.4,10.1,29.23,North,0,0.0,0.0,42,0.00,,,0.00,0.00,VWS V14.01,2013-01-03 17:36:00,
2013-01-03 11:37:00,30.7,10.4,29.23,North,0,0.0,0.0,42,0.00,,,0.00,0.00,VWS V14.01,2013-01-03 17:37:00,
2013-01-03 11:38:00,30.7,10.4,29.23,North,0,0.0,0.0,42,0.00,,,0.00,0.00,VWS V14.01,2013-01-03 17:38:00,
2013-01-03 11:39:00,30.4,10.1,29.23,North,0,0.0,0.0,42,0.00,,,0.00,0.00,VWS V14.01,2013-01-03 17:39:00,
2013-01-03 11:40:00,30.4,10.1,29.23,North,0,0.0,0.0,42,0.00,,,0.00,0.00,VWS V14.01,2013-01-03 17:40:00,
2013-01-03 11:41:00,30.6,10.2,29.23,North,0,0.0,0.0,42,0.00,,,0.00,0.00,VWS V14.01,2013-01-03 17:41:00,
2013-01-03 11:42:00,30.4,10.1,29.23,North,0,0.0,0.0,42,0.00,,,0.00,0.00,VWS V14.01,2013-01-03 17:42:00,
2013-01-03 11:43:00,30.2,9.9,29.23,North,0,0.0,0.0,42,0.00,,,0.00,0.00,VWS V14.01,2013-01-03 17:43:00,
2013-01-03 11:44:00,30.2,9.9,29.23,North,0,0.0,0.0,42,0.00,,,0.00,0.00,VWS V14.01,2013-01-03 17:44:00,
2013-01-03 11:45:00,30.2,9.9,29.23,North,0,0.0,0.0,42,0.00,,,0.00,0.00,VWS V14.01,2013-01-03 17:45:00,
2013-01-03 11:46:00,30.2,9.9,29.23,North,0,0.0,0.0,42,0.00,,,0.00,0.00,VWS V14.01,2013-01-03 17:46:00,
2013-01-03 11:47:00,30.0,9.7,29.23,North,0,0.0,0.0,42,0.00,,,0.00,0.00,VWS V14.01,2013-01-03 17:47:00,
2013-01-03 11:48:00,29.8,9.6,29.23,North,0,0.0,0.0,42,0.00,,,0.00,0.00,VWS V14.01,2013-01-03 17:48:00,
2013-01-03 11:49:00,30.2,9.9,29.23,North,0,0.0,0.0,42,0.00,,,0.00,0.00,VWS V14.01,2013-01-03 17:49:00,
2013-01-03 11:50:00,30.2,9.9,29.20,North,0,0.0,0.0,42,0.00,,,0.00,0.00,VWS V14.01,2013-01-03 17:50:00,
2013-01-03 11:51:00,30.7,10.4,29.20,North,0,0.0,0.0,42,0.00,,,0.00,0.00,VWS V14.01,2013-01-03 17:51:00,
2013-01-03 11:52:00,30.7,10.4,29.20,North,0,0.0,0.0,42,0.00,,,0.00,0.00,VWS V14.01,2013-01-03 17:52:00,
2013-01-03 11:53:00,30.9,10.5,29.20,North,0,0.0,0.0,42,0.00,,,0.00,0.00,VWS V14.01,2013-01-03 17:53:00,
2013-01-03 11:54:00,30.9,10.5,29.20,North,0,0.0,0.0,42,0.00,,,0.00,0.00,VWS V14.01,2013-01-03 17:54:00,
2013-01-03 11:55:00,30.9,10.5,29.20,North,0,0.0,0.0,42,0.00,,,0.00,0.00,VWS V14.01,2013-01-03 17:55:00,
2013-01-03 11:56:00,30.9,10.5,29.20,North,0,0.0,0.0,42,0.00,,,0.00,0.00,VWS V14.01,2013-01-03 17:56:00,
2013-01-03 11:57:00,31.1,10.7,29.20,North,0,0.0,0.0,42,0.00,,,0.00,0.00,VWS V14.01,2013-01-03 17:57:00,
2013-01-03 11:58:00,31.1,10.7,29.20,North,0,0.0,0.0,42,0.00,,,0.00,0.00,VWS V14.01,2013-01-03 17:58:00,
2013-01-03 11:59:00,31.3,11.4,29.20,North,0,0.0,0.0,43,0.00,,,0.00,0.00,VWS V14.01,2013-01-03 17:59:00,
2013-01-03 12:00:00,31.3,10.9,29.20,North,0,0.0,0.0,42,0.00,,,0.00,0.00,VWS V14.01,2013-01-03 18:00:00,
2013-01-03 12:01:00,31.3,10.9,29.20,North,0,0.0,0.0,42,0.00,,,0.00,0.00,VWS V14.01,2013-01-03 18:01:00,
2013-01-03 12:02:00,32.0,12.1,29.20,North,0,0.0,0.0,43,0.00,,,0.00,0.00,VWS V14.01,2013-01-03 18:02:00,
2013-01-03 12:03:00,32.0,12.1,29.20,North,0,0.0,0.0,43,0.00,,,0.00,0.00,VWS V14.01,2013-01-03 18:03:00,
2013-01-03 12:04:00,32.4,12.4,29.20,North,0,0.0,0.0,43,0.00,,,0.00,0.00,VWS V14.01,2013-01-03 18:04:00,
2013-01-03 12:05:00,32.7,12.7,29.20,North,0,0.0,0.0,43,0.00,,,0.00,0.00,VWS V14.01,2013-01-03 18:05:00,
2013-01-03 12:06:00,32.7,12.7,29.20,North,0,0.0,0.0,43,0.00,,,0.00,0.00,VWS V14.01,2013-01-03 18:06:00,
2013-01-03 12:07:00,32.5,12.5,29.20,North,0,0.0,0.0,43,0.00,,,0.00,0.00,VWS V14.01,2013-01-03 18:07:00,
2013-01-03 12:08:00,32.7,12.7,29.20,North,0,0.0,0.0,43,0.00,,,0.00,0.00,VWS V14.01,2013-01-03 18:08:00,
2013-01-03 12:09:00,32.5,12.5,29.20,North,0,0.0,0.0,43,0.00,,,0.00,0.00,VWS V14.01,2013-01-03 18:09:00,
2013-01-03 12:10:00,32.7,12.7,29.20,North,0,0.0,0.0,43,0.00,,,0.00,0.00,VWS V14.01,2013-01-03 18:10:00,
2013-01-03 12:11:00,32.5,12.5,29.20,North,0,0.0,0.0,43,0.00,,,0.00,0.00,VWS V14.01,2013-01-03 18:11:00,
2013-01-03 12:12:00,32.5,12.5,29.20,North,0,0.0,0.0,43,0.00,,,0.00,0.00,VWS V14.01,2013-01-03 18:12:00,
2013-01-03 12:13:00,32.5,12.5,29.20,North,0,0.0,0.0,43,0.00,,,0.00,0.00,VWS V14.01,2013-01-03 18:13:00,
2013-01-03 12:14:00,31.6,11.2,29.20,North,0,0.0,0.0,42,0.00,,,0.00,0.00,VWS V14.01,2013-01-03 18:14:00,
2013-01-03 12:15:00,31.3,10.9,29.20,North,0,0.0,0.0,42,0.00,,,0.00,0.00,VWS V14.01,2013-01-03 18:15:00,
2013-01-03 12:16:00,31.1,10.7,29.20,North,0,0.0,0.0,42,0.00,,,0.00,0.00,VWS V14.01,2013-01-03 18:16:00,
2013-01-03 12:17:00,31.1,10.7,29.20,North,0,0.0,0.0,42,0.00,,,0.00,0.00,VWS V14.01,2013-01-03 18:17:00,
2013-01-03 12:18:00,31.1,10.7,29.20,North,0,0.0,0.0,42,0.00,,,0.00,0.00,VWS V14.01,2013-01-03 18:18:00,
2013-01-03 12:19:00,30.9,11.1,29.20,North,0,0.0,0.0,43,0.00,,,0.00,0.00,VWS V14.01,2013-01-03 18:19:00,
2013-01-03 12:20:00,31.1,11.2,29.17,North,0,0.0,0.0,43,0.00,,,0.00,0.00,VWS V14.01,2013-01-03 18:20:00,
2013-01-03 12:21:00,31.1,11.2,29.17,North,0,0.0,0.0,43,0.00,,,0.00,0.00,VWS V14.01,2013-01-03 18:21:00,
2013-01-03 12:22:00,30.9,11.1,29.17,North,0,0.0,0.0,43,0.00,,,0.00,0.00,VWS V14.01,2013-01-03 18:22:00,
2013-01-03 12:23:00,31.1,11.2,29.17,North,0,0.0,0.0,43,0.00,,,0.00,0.00,VWS V14.01,2013-01-03 18:23:00,
2013-01-03 12:24:00,31.3,11.4,29.17,North,0,0.0,0.0,43,0.00,,,0.00,0.00,VWS V14.01,2013-01-03 18:24:00,
2013-01-03 12:25:00,31.5,11.6,29.17,North,0,0.0,0.0,43,0.00,,,0.00,0.00,VWS V14.01,2013-01-03 18:25:00,
2013-01-03 12:26:00,31.5,11.6,29.17,North,0,0.0,0.0,43,0.00,,,0.00,0.00,VWS V14.01,2013-01-03 18:26:00,
2013-01-03 12:27:00,31.1,11.2,29.17,North,0,0.0,0.0,43,0.00,,,0.00,0.00,VWS V14.01,2013-01-03 18:27:00,
2013-01-03 12:28:00,31.1,11.2,29.17,North,0,0.0,0.0,43,0.00,,,0.00,0.00,VWS V14.01,2013-01-03 18:28:00,
2013-01-03 12:29:00,31.3,11.4,29.17,North,0,0.0,0.0,43,0.00,,,0.00,0.00,VWS V14.01,2013-01-03 18:29:00,
2013-01-03 12:30:00,31.3,11.4,29.17,North,0,0.0,0.0,43,0.00,,,0.00,0.00,VWS V14.01,2013-01-03 18:30:00,
2013-01-03 12:31:00,31.3,10.9,29.17,North,0,0.0,0.0,42,0.00,,,0.00,0.00,VWS V14.01,2013-01-03 18:31:00,
2013-01-03 12:32:00,31.1,11.2,29.17,North,0,0.0,0.0,43,0.00,,,0.00,0.00,VWS V14.01,2013-01-03 18:32:00,
2013-01-03 12:33:00,31.5,11.6,29.17,North,0,0.0,0.0,43,0.00,,,0.00,0.00,VWS V14.01,2013-01-03 18:33:00,
2013-01-03 12:34:00,31.5,11.6,29.17,North,0,0.0,0.0,43,0.00,,,0.00,0.00,VWS V14.01,2013-01-03 18:34:00,
2013-01-03 12:35:00,31.5,11.6,29.20,North,0,0.0,0.0,43,0.00,,,0.00,0.00,VWS V14.01,2013-01-03 18:35:00,
2013-01-03 12:36:00,31.5,11.6,29.20,North,0,0.0,0.0,43,0.00,,,0.00,0.00,VWS V14.01,2013-01-03 18:36:00,
2013-01-03 12:37:00,31.8,11.9,29.20,North,0,0.0,0.0,43,0.00,,,0.00,0.00,VWS V14.01,2013-01-03 18:37:00,
2013-01-03 12:38:00,31.8,11.9,29.20,North,0,0.0,0.0,43,0.00,,,0.00,0.00,VWS V14.01,2013-01-03 18:38:00,
2013-01-03 12:39:00,31.6,11.7,29.20,North,0,0.0,0.0,43,0.00,,,0.00,0.00,VWS V14.01,2013-01-03 18:39:00,
2013-01-03 12:40:00,31.8,11.9,29.20,North,0,0.0,0.0,43,0.00,,,0.00,0.00,VWS V14.01,2013-01-03 18:40:00,
2013-01-03 12:41:00,31.8,11.9,29.20,North,0,0.0,0.0,43,0.00,,,0.00,0.00,VWS V14.01,2013-01-03 18:41:00,
2013-01-03 12:42:00,31.8,11.9,29.20,North,0,0.0,0.0,43,0.00,,,0.00,0.00,VWS V14.01,2013-01-03 18:42:00,
2013-01-03 12:43:00,31.6,11.7,29.20,North,0,0.0,0.0,43,0.00,,,0.00,0.00,VWS V14.01,2013-01-03 18:43:00,
2013-01-03 12:44:00,31.6,11.7,29.20,North,0,0.0,0.0,43,0.00,,,0.00,0.00,VWS V14.01,2013-01-03 18:44:00,
2013-01-03 12:45:00,31.1,11.2,29.20,North,0,0.0,0.0,43,0.00,,,0.00,0.00,VWS V14.01,2013-01-03 18:45:00,
2013-01-03 12:46:00,31.1,11.2,29.20,North,0,0.0,0.0,43,0.00,,,0.00,0.00,VWS V14.01,2013-01-03 18:46:00,
2013-01-03 12:47:00,31.1,11.2,29.20,North,0,0.0,0.0,43,0.00,,,0.00,0.00,VWS V14.01,2013-01-03 18:47:00,
2013-01-03 12:48:00,31.3,11.4,29.20,North,0,0.0,0.0,43,0.00,,,0.00,0.00,VWS V14.01,2013-01-03 18:48:00,
2013-01-03 12:49:00,31.5,11.6,29.20,North,0,0.0,0.0,43,0.00,,,0.00,0.00,VWS V14.01,2013-01-03 18:49:00,
2013-01-03 12:50:00,31.5,11.6,29.23,North,0,0.0,0.0,43,0.00,,,0.00,0.00,VWS V14.01,2013-01-03 18:50:00,
2013-01-03 12:51:00,31.5,11.6,29.23,North,0,0.0,0.0,43,0.00,,,0.00,0.00,VWS V14.01,2013-01-03 18:51:00,
2013-01-03 12:52:00,31.1,11.2,29.23,North,0,0.0,0.0,43,0.00,,,0.00,0.00,VWS V14.01,2013-01-03 18:52:00,
2013-01-03 12:53:00,31.1,11.2,29.23,North,0,0.0,0.0,43,0.00,,,0.00,0.00,VWS V14.01,2013-01-03 18:53:00,
2013-01-03 12:54:00,31.1,11.2,29.23,North,0,0.0,0.0,43,0.00,,,0.00,0.00,VWS V14.01,2013-01-03 18:54:00,
2013-01-03 12:55:00,31.1,11.8,29.23,North,0,0.0,0.0,44,0.00,,,0.00,0.00,VWS V14.01,2013-01-03 18:55:00,
2013-01-03 12:56:00,31.1,11.8,29.23,North,0,0.0,0.0,44,0.00,,,0.00,0.00,VWS V14.01,2013-01-03 18:56:00,
2013-01-03 12:57:00,31.3,11.9,29.23,North,0,0.0,0.0,44,0.00,,,0.00,0.00,VWS V14.01,2013-01-03 18:57:00,
2013-01-03 12:58:00,31.5,12.1,29.23,North,0,0.0,0.0,44,0.00,,,0.00,0.00,VWS V14.01,2013-01-03 18:58:00,
2013-01-03 12:59:00,31.5,12.1,29.23,North,0,0.0,0.0,44,0.00,,,0.00,0.00,VWS V14.01,2013-01-03 18:59:00,
2013-01-03 13:00:00,31.1,11.2,29.23,North,0,0.0,0.0,43,0.00,,,0.00,0.00,VWS V14.01,2013-01-03 19:00:00,
2013-01-03 13:01:00,31.1,11.2,29.23,North,0,0.0,0.0,43,0.00,,,0.00,0.00,VWS V14.01,2013-01-03 19:01:00,
2013-01-03 13:02:00,30.9,11.1,29.23,North,0,0.0,0.0,43,0.00,,,0.00,0.00,VWS V14.01,2013-01-03 19:02:00,
2013-01-03 13:03:00,30.9,11.1,29.23,North,0,0.0,0.0,43,0.00,,,0.00,0.00,VWS V14.01,2013-01-03 19:03:00,
2013-01-03 13:04:00,30.9,11.1,29.23,North,0,0.0,0.0,43,0.00,,,0.00,0.00,VWS V14.01,2013-01-03 19:04:00,
2013-01-03 13:05:00,31.1,11.2,29.20,North,0,0.0,0.0,43,0.00,,,0.00,0.00,VWS V14.01,2013-01-03 19:05:00,
2013-01-03 13:06:00,31.1,11.2,29.20,North,0,0.0,0.0,43,0.00,,,0.00,0.00,VWS V14.01,2013-01-03 19:06:00,
2013-01-03 13:07:00,31.5,11.6,29.20,North,0,0.0,0.0,43,0.00,,,0.00,0.00,VWS V14.01,2013-01-03 19:07:00,
2013-01-03 13:08:00,31.5,12.1,29.20,North,0,0.0,0.0,44,0.00,,,0.00,0.00,VWS V14.01,2013-01-03 19:08:00,
2013-01-03 13:09:00,31.6,12.2,29.20,North,0,0.0,0.0,44,0.00,,,0.00,0.00,VWS V14.01,2013-01-03 19:09:00,
2013-01-03 13:10:00,31.8,12.4,29.20,North,0,0.0,0.0,44,0.00,,,0.00,0.00,VWS V14.01,2013-01-03 19:10:00,
2013-01-03 13:11:00,31.8,12.4,29.20,North,0,0.0,0.0,44,0.00,,,0.00,0.00,VWS V14.01,2013-01-03 19:11:00,
2013-01-03 13:12:00,31.8,12.4,29.20,North,0,0.0,0.0,44,0.00,,,0.00,0.00,VWS V14.01,2013-01-03 19:12:00,
2013-01-03 13:13:00,31.6,11.7,29.20,North,0,0.0,0.0,43,0.00,,,0.00,0.00,VWS V14.01,2013-01-03 19:13:00,
2013-01-03 13:14:00,31.1,11.2,29.20,North,0,0.0,0.0,43,0.00,,,0.00,0.00,VWS V14.01,2013-01-03 19:14:00,
2013-01-03 13:15:00,31.3,11.9,29.20,North,0,0.0,0.0,44,0.00,,,0.00,0.00,VWS V14.01,2013-01-03 19:15:00,
2013-01-03 13:16:00,31.3,11.9,29.20,North,0,0.0,0.0,44,0.00,,,0.00,0.00,VWS V14.01,2013-01-03 19:16:00,
2013-01-03 13:17:00,31.5,12.1,29.20,North,0,0.0,0.0,44,0.00,,,0.00,0.00,VWS V14.01,2013-01-03 19:17:00,
2013-01-03 13:18:00,31.5,12.1,29.20,North,0,0.0,0.0,44,0.00,,,0.00,0.00,VWS V14.01,2013-01-03 19:18:00,
2013-01-03 13:19:00,31.5,12.1,29.20,North,0,0.0,0.0,44,0.00,,,0.00,0.00,VWS V14.01,2013-01-03 19:19:00,
2013-01-03 13:20:00,31.5,12.1,29.20,North,0,0.0,0.0,44,0.00,,,0.00,0.00,VWS V14.01,2013-01-03 19:20:00,
2013-01-03 13:21:00,31.5,12.1,29.20,North,0,0.0,0.0,44,0.00,,,0.00,0.00,VWS V14.01,2013-01-03 19:21:00,
2013-01-03 13:22:00,31.6,12.2,29.20,North,0,0.0,0.0,44,0.00,,,0.00,0.00,VWS V14.01,2013-01-03 19:22:00,
2013-01-03 13:23:00,31.5,12.1,29.20,North,0,0.0,0.0,44,0.00,,,0.00,0.00,VWS V14.01,2013-01-03 19:23:00,
2013-01-03 13:24:00,31.3,11.9,29.20,North,0,0.0,0.0,44,0.00,,,0.00,0.00,VWS V14.01,2013-01-03 19:24:00,
2013-01-03 13:25:00,31.1,11.8,29.20,North,0,0.0,0.0,44,0.00,,,0.00,0.00,VWS V14.01,2013-01-03 19:25:00,
2013-01-03 13:26:00,30.9,11.6,29.20,North,0,0.0,0.0,44,0.00,,,0.00,0.00,VWS V14.01,2013-01-03 19:26:00,
2013-01-03 13:27:00,31.1,11.8,29.20,North,0,0.0,0.0,44,0.00,,,0.00,0.00,VWS V14.01,2013-01-03 19:27:00,
2013-01-03 13:28:00,31.1,11.8,29.20,North,0,0.0,0.0,44,0.00,,,0.00,0.00,VWS V14.01,2013-01-03 19:28:00,
2013-01-03 13:29:00,31.1,11.8,29.20,North,0,0.0,0.0,44,0.00,,,0.00,0.00,VWS V14.01,2013-01-03 19:29:00,
2013-01-03 13:30:00,31.1,11.8,29.20,North,0,0.0,0.0,44,0.00,,,0.00,0.00,VWS V14.01,2013-01-03 19:30:00,
2013-01-03 13:31:00,31.1,11.8,29.20,North,0,0.0,0.0,44,0.00,,,0.00,0.00,VWS V14.01,2013-01-03 19:31:00,
2013-01-03 13:32:00,31.1,11.8,29.20,North,0,0.0,0.0,44,0.00,,,0.00,0.00,VWS V14.01,2013-01-03 19:32:00,
2013-01-03 13:33:00,31.1,11.8,29.20,North,0,0.0,0.0,44,0.00,,,0.00,0.00,VWS V14.01,2013-01-03 19:33:00,
2013-01-03 13:34:00,31.3,11.9,29.20,North,0,0.0,0.0,44,0.00,,,0.00,0.00,VWS V14.01,2013-01-03 19:34:00,
2013-01-03 13:35:00,31.3,11.9,29.20,North,0,0.0,0.0,44,0.00,,,0.00,0.00,VWS V14.01,2013-01-03 19:35:00,
2013-01-03 13:36:00,31.3,11.9,29.20,North,0,0.0,0.0,44,0.00,,,0.00,0.00,VWS V14.01,2013-01-03 19:36:00,
2013-01-03 13:37:00,30.9,11.6,29.20,North,0,0.0,0.0,44,0.00,,,0.00,0.00,VWS V14.01,2013-01-03 19:37:00,
2013-01-03 13:38:00,30.9,11.6,29.20,North,0,0.0,0.0,44,0.00,,,0.00,0.00,VWS V14.01,2013-01-03 19:38:00,
2013-01-03 13:39:00,31.1,11.8,29.20,North,0,0.0,0.0,44,0.00,,,0.00,0.00,VWS V14.01,2013-01-03 19:39:00,
2013-01-03 13:40:00,31.1,11.8,29.20,North,0,0.0,0.0,44,0.00,,,0.00,0.00,VWS V14.01,2013-01-03 19:40:00,
2013-01-03 13:41:00,31.1,11.8,29.20,North,0,0.0,0.0,44,0.00,,,0.00,0.00,VWS V14.01,2013-01-03 19:41:00,
2013-01-03 13:42:00,31.1,11.8,29.20,North,0,0.0,0.0,44,0.00,,,0.00,0.00,VWS V14.01,2013-01-03 19:42:00,
2013-01-03 13:43:00,31.3,11.9,29.20,North,0,0.0,0.0,44,0.00,,,0.00,0.00,VWS V14.01,2013-01-03 19:43:00,
2013-01-03 13:44:00,31.3,11.9,29.20,North,0,0.0,0.0,44,0.00,,,0.00,0.00,VWS V14.01,2013-01-03 19:44:00,
2013-01-03 13:45:00,31.1,11.8,29.20,North,0,0.0,0.0,44,0.00,,,0.00,0.00,VWS V14.01,2013-01-03 19:45:00,
2013-01-03 13:46:00,30.9,11.6,29.20,North,0,0.0,0.0,44,0.00,,,0.00,0.00,VWS V14.01,2013-01-03 19:46:00,
2013-01-03 13:47:00,30.9,11.6,29.20,North,0,0.0,0.0,44,0.00,,,0.00,0.00,VWS V14.01,2013-01-03 19:47:00,
2013-01-03 13:48:00,30.9,12.1,29.20,North,0,0.0,0.0,45,0.00,,,0.00,0.00,VWS V14.01,2013-01-03 19:48:00,
2013-01-03 13:49:00,30.7,11.4,29.20,North,0,0.0,0.0,44,0.00,,,0.00,0.00,VWS V14.01,2013-01-03 19:49:00,
2013-01-03 13:50:00,30.7,11.4,29.20,North,0,0.0,0.0,44,0.00,,,0.00,0.00,VWS V14.01,2013-01-03 19:50:00,
2013-01-03 13:51:00,30.9,12.1,29.20,North,0,0.0,0.0,45,0.00,,,0.00,0.00,VWS V14.01,2013-01-03 19:51:00,
2013-01-03 13:52:00,30.9,12.1,29.20,North,0,0.0,0.0,45,0.00,,,0.00,0.00,VWS V14.01,2013-01-03 19:52:00,
2013-01-03 13:53:00,30.9,12.1,29.20,North,0,0.0,0.0,45,0.00,,,0.00,0.00,VWS V14.01,2013-01-03 19:53:00,
2013-01-03 13:54:00,30.9,11.6,29.20,North,0,0.0,0.0,44,0.00,,,0.00,0.00,VWS V14.01,2013-01-03 19:54:00,
2013-01-03 13:55:00,30.9,12.1,29.20,North,0,0.0,0.0,45,0.00,,,0.00,0.00,VWS V14.01,2013-01-03 19:55:00,
2013-01-03 13:56:00,30.7,11.4,29.20,North,0,0.0,0.0,44,0.00,,,0.00,0.00,VWS V14.01,2013-01-03 19:56:00,
2013-01-03 13:57:00,30.7,11.4,29.20,North,0,0.0,0.0,44,0.00,,,0.00,0.00,VWS V14.01,2013-01-03 19:57:00,
2013-01-03 13:58:00,30.7,11.4,29.20,North,0,0.0,0.0,44,0.00,,,0.00,0.00,VWS V14.01,2013-01-03 19:58:00,
2013-01-03 13:59:00,30.6,11.2,29.20,North,0,0.0,0.0,44,0.00,,,0.00,0.00,VWS V14.01,2013-01-03 19:59:00,
2013-01-03 14:00:00,30.4,11.1,29.20,North,0,0.0,0.0,44,0.00,,,0.00,0.00,VWS V14.01,2013-01-03 20:00:00,
2013-01-03 14:01:00,30.6,11.2,29.20,North,0,0.0,0.0,44,0.00,,,0.00,0.00,VWS V14.01,2013-01-03 20:01:00,
2013-01-03 14:02:00,30.6,11.8,29.20,North,0,0.0,0.0,45,0.00,,,0.00,0.00,VWS V14.01,2013-01-03 20:02:00,
2013-01-03 14:03:00,30.6,11.8,29.20,North,0,0.0,0.0,45,0.00,,,0.00,0.00,VWS V14.01,2013-01-03 20:03:00,
2013-01-03 14:04:00,30.2,11.4,29.20,North,0,0.0,0.0,45,0.00,,,0.00,0.00,VWS V14.01,2013-01-03 20:04:00,
2013-01-03 14:05:00,30.2,11.4,29.17,North,0,0.0,0.0,45,0.00,,,0.00,0.00,VWS V14.01,2013-01-03 20:05:00,
2013-01-03 14:06:00,30.2,11.4,29.17,North,0,0.0,0.0,45,0.00,,,0.00,0.00,VWS V14.01,2013-01-03 20:06:00,
2013-01-03 14:07:00,30.4,11.6,29.17,North,0,0.0,0.0,45,0.00,,,0.00,0.00,VWS V14.01,2013-01-03 20:07:00,
2013-01-03 14:08:00,30.2,11.4,29.17,North,0,0.0,0.0,45,0.00,,,0.00,0.00,VWS V14.01,2013-01-03 20:08:00,
2013-01-03 14:09:00,30.4,11.6,29.17,North,0,0.0,0.0,45,0.00,,,0.00,0.00,VWS V14.01,2013-01-03 20:09:00,
2013-01-03 14:10:00,30.2,11.4,29.17,North,0,0.0,0.0,45,0.00,,,0.00,0.00,VWS V14.01,2013-01-03 20:10:00,
2013-01-03 14:11:00,30.2,11.4,29.17,North,0,0.0,0.0,45,0.00,,,0.00,0.00,VWS V14.01,2013-01-03 20:11:00,
2013-01-03 14:12:00,30.4,11.6,29.17,North,0,0.0,0.0,45,0.00,,,0.00,0.00,VWS V14.01,2013-01-03 20:12:00,
2013-01-03 14:13:00,30.4,11.6,29.17,North,0,0.0,0.0,45,0.00,,,0.00,0.00,VWS V14.01,2013-01-03 20:13:00,
2013-01-03 14:14:00,30.4,11.6,29.17,North,0,0.0,0.0,45,0.00,,,0.00,0.00,VWS V14.01,2013-01-03 20:14:00,
2013-01-03 14:15:00,30.2,11.4,29.17,North,0,0.0,0.0,45,0.00,,,0.00,0.00,VWS V14.01,2013-01-03 20:15:00,
2013-01-03 14:16:00,30.2,11.4,29.17,North,0,0.0,0.0,45,0.00,,,0.00,0.00,VWS V14.01,2013-01-03 20:16:00,
2013-01-03 14:17:00,30.2,11.9,29.17,North,0,0.0,0.0,46,0.00,,,0.00,0.00,VWS V14.01,2013-01-03 20:17:00,
2013-01-03 14:18:00,30.2,11.9,29.17,North,0,0.0,0.0,46,0.00,,,0.00,0.00,VWS V14.01,2013-01-03 20:18:00,
2013-01-03 14:19:00,30.2,11.9,29.17,North,0,0.0,0.0,46,0.00,,,0.00,0.00,VWS V14.01,2013-01-03 20:19:00,
2013-01-03 14:20:00,30.2,11.9,29.17,North,0,0.0,0.0,46,0.00,,,0.00,0.00,VWS V14.01,2013-01-03 20:20:00,
2013-01-03 14:21:00,30.2,11.9,29.17,North,0,0.0,0.0,46,0.00,,,0.00,0.00,VWS V14.01,2013-01-03 20:21:00,
2013-01-03 14:22:00,30.2,11.9,29.17,North,0,0.0,0.0,46,0.00,,,0.00,0.00,VWS V14.01,2013-01-03 20:22:00,
2013-01-03 14:23:00,30.2,11.9,29.17,North,0,0.0,0.0,46,0.00,,,0.00,0.00,VWS V14.01,2013-01-03 20:23:00,
2013-01-03 14:24:00,30.2,11.9,29.17,North,0,0.0,0.0,46,0.00,,,0.00,0.00,VWS V14.01,2013-01-03 20:24:00,
2013-01-03 14:25:00,30.2,11.9,29.17,North,0,0.0,0.0,46,0.00,,,0.00,0.00,VWS V14.01,2013-01-03 20:25:00,
2013-01-03 14:26:00,30.0,11.8,29.17,North,0,0.0,0.0,46,0.00,,,0.00,0.00,VWS V14.01,2013-01-03 20:26:00,
2013-01-03 14:27:00,29.5,11.3,29.17,North,0,0.0,0.0,46,0.00,,,0.00,0.00,VWS V14.01,2013-01-03 20:27:00,
2013-01-03 14:28:00,29.5,11.3,29.17,North,0,0.0,0.0,46,0.00,,,0.00,0.00,VWS V14.01,2013-01-03 20:28:00,
2013-01-03 14:29:00,29.5,11.3,29.17,North,0,0.0,0.0,46,0.00,,,0.00,0.00,VWS V14.01,2013-01-03 20:29:00,
2013-01-03 14:30:00,29.5,11.3,29.17,North,0,0.0,0.0,46,0.00,,,0.00,0.00,VWS V14.01,2013-01-03 20:30:00,
2013-01-03 14:31:00,29.5,11.8,29.17,North,0,0.0,0.0,47,0.00,,,0.00,0.00,VWS V14.01,2013-01-03 20:31:00,
2013-01-03 14:32:00,29.7,11.9,29.17,North,0,0.0,0.0,47,0.00,,,0.00,0.00,VWS V14.01,2013-01-03 20:32:00,
2013-01-03 14:33:00,29.7,11.9,29.17,North,0,0.0,0.0,47,0.00,,,0.00,0.00,VWS V14.01,2013-01-03 20:33:00,
2013-01-03 14:34:00,29.8,12.1,29.17,North,0,0.0,0.0,47,0.00,,,0.00,0.00,VWS V14.01,2013-01-03 20:34:00,
2013-01-03 14:35:00,29.7,11.9,29.17,North,0,0.0,0.0,47,0.00,,,0.00,0.00,VWS V14.01,2013-01-03 20:35:00,
2013-01-03 14:36:00,29.7,11.9,29.17,North,0,0.0,0.0,47,0.00,,,0.00,0.00,VWS V14.01,2013-01-03 20:36:00,
2013-01-03 14:37:00,29.7,11.9,29.17,North,0,0.0,0.0,47,0.00,,,0.00,0.00,VWS V14.01,2013-01-03 20:37:00,
2013-01-03 14:38:00,29.7,11.9,29.17,North,0,0.0,0.0,47,0.00,,,0.00,0.00,VWS V14.01,2013-01-03 20:38:00,
2013-01-03 14:39:00,29.7,11.9,29.17,North,0,0.0,0.0,47,0.00,,,0.00,0.00,VWS V14.01,2013-01-03 20:39:00,
2013-01-03 14:40:00,30.0,12.2,29.17,North,0,0.0,0.0,47,0.00,,,0.00,0.00,VWS V14.01,2013-01-03 20:40:00,
2013-01-03 14:41:00,29.8,12.1,29.17,North,0,0.0,0.0,47,0.00,,,0.00,0.00,VWS V14.01,2013-01-03 20:41:00,
2013-01-03 14:42:00,29.7,11.9,29.17,North,0,0.0,0.0,47,0.00,,,0.00,0.00,VWS V14.01,2013-01-03 20:42:00,
2013-01-03 14:43:00,29.7,11.9,29.17,North,0,0.0,0.0,47,0.00,,,0.00,0.00,VWS V14.01,2013-01-03 20:43:00,
2013-01-03 14:44:00,29.7,11.9,29.17,North,0,0.0,0.0,47,0.00,,,0.00,0.00,VWS V14.01,2013-01-03 20:44:00,
2013-01-03 14:45:00,29.7,11.9,29.17,North,0,0.0,0.0,47,0.00,,,0.00,0.00,VWS V14.01,2013-01-03 20:45:00,
2013-01-03 14:46:00,29.5,11.8,29.17,North,0,0.0,0.0,47,0.00,,,0.00,0.00,VWS V14.01,2013-01-03 20:46:00,
2013-01-03 14:47:00,29.8,12.6,29.17,North,0,0.0,0.0,48,0.00,,,0.00,0.00,VWS V14.01,2013-01-03 20:47:00,
2013-01-03 14:48:00,29.8,12.6,29.17,North,0,0.0,0.0,48,0.00,,,0.00,0.00,VWS V14.01,2013-01-03 20:48:00,
2013-01-03 14:49:00,30.0,12.7,29.17,North,0,0.0,0.0,48,0.00,,,0.00,0.00,VWS V14.01,2013-01-03 20:49:00,
2013-01-03 14:50:00,30.0,12.7,29.17,North,0,0.0,0.0,48,0.00,,,0.00,0.00,VWS V14.01,2013-01-03 20:50:00,
2013-01-03 14:51:00,30.0,12.7,29.17,North,0,0.0,0.0,48,0.00,,,0.00,0.00,VWS V14.01,2013-01-03 20:51:00,
2013-01-03 14:52:00,29.8,12.6,29.17,North,0,0.0,0.0,48,0.00,,,0.00,0.00,VWS V14.01,2013-01-03 20:52:00,
2013-01-03 14:53:00,29.8,12.6,29.17,North,0,0.0,0.0,48,0.00,,,0.00,0.00,VWS V14.01,2013-01-03 20:53:00,
2013-01-03 14:54:00,29.7,12.4,29.17,North,0,0.0,0.0,48,0.00,,,0.00,0.00,VWS V14.01,2013-01-03 20:54:00,
2013-01-03 14:55:00,29.8,12.6,29.17,North,0,0.0,0.0,48,0.00,,,0.00,0.00,VWS V14.01,2013-01-03 20:55:00,
2013-01-03 14:56:00,29.7,12.9,29.17,North,0,0.0,0.0,49,0.00,,,0.00,0.00,VWS V14.01,2013-01-03 20:56:00,
2013-01-03 14:57:00,29.5,12.2,29.17,North,0,0.0,0.0,48,0.00,,,0.00,0.00,VWS V14.01,2013-01-03 20:57:00,
2013-01-03 14:58:00,29.5,12.2,29.17,North,0,0.0,0.0,48,0.00,,,0.00,0.00,VWS V14.01,2013-01-03 20:58:00,
2013-01-03 14:59:00,29.5,12.2,29.17,North,0,0.0,0.0,48,0.00,,,0.00,0.00,VWS V14.01,2013-01-03 20:59:00,
2013-01-03 15:00:00,29.5,12.2,29.17,North,0,0.0,0.0,48,0.00,,,0.00,0.00,VWS V14.01,2013-01-03 21:00:00,
2013-01-03 15:01:00,29.3,12.1,29.17,North,0,0.0,0.0,48,0.00,,,0.00,0.00,VWS V14.01,2013-01-03 21:01:00,
2013-01-03 15:02:00,29.1,11.9,29.17,North,0,0.0,0.0,48,0.00,,,0.00,0.00,VWS V14.01,2013-01-03 21:02:00,
2013-01-03 15:03:00,29.1,11.9,29.17,North,0,0.0,0.0,48,0.00,,,0.00,0.00,VWS V14.01,2013-01-03 21:03:00,
2013-01-03 15:04:00,29.1,11.9,29.17,North,0,0.0,0.0,48,0.00,,,0.00,0.00,VWS V14.01,2013-01-03 21:04:00,
2013-01-03 15:05:00,29.3,12.5,29.17,North,0,0.0,0.0,49,0.00,,,0.00,0.00,VWS V14.01,2013-01-03 21:05:00,
2013-01-03 15:06:00,29.3,12.5,29.17,North,0,0.0,0.0,49,0.00,,,0.00,0.00,VWS V14.01,2013-01-03 21:06:00,
2013-01-03 15:07:00,28.9,12.6,29.17,North,0,0.0,0.0,50,0.00,,,0.00,0.00,VWS V14.01,2013-01-03 21:07:00,
2013-01-03 15:08:00,28.9,12.6,29.17,North,0,0.0,0.0,50,0.00,,,0.00,0.00,VWS V14.01,2013-01-03 21:08:00,
2013-01-03 15:09:00,28.9,12.6,29.17,North,0,0.0,0.0,50,0.00,,,0.00,0.00,VWS V14.01,2013-01-03 21:09:00,
2013-01-03 15:10:00,28.9,12.6,29.17,North,0,0.0,0.0,50,0.00,,,0.00,0.00,VWS V14.01,2013-01-03 21:10:00,
2013-01-03 15:11:00,28.9,12.6,29.17,North,0,0.0,0.0,50,0.00,,,0.00,0.00,VWS V14.01,2013-01-03 21:11:00,
2013-01-03 15:12:00,28.9,12.6,29.17,North,0,0.0,0.0,50,0.00,,,0.00,0.00,VWS V14.01,2013-01-03 21:12:00,
2013-01-03 15:13:00,28.9,12.6,29.17,North,0,0.0,0.0,50,0.00,,,0.00,0.00,VWS V14.01,2013-01-03 21:13:00,
2013-01-03 15:14:00,29.1,12.8,29.17,North,0,0.0,0.0,50,0.00,,,0.00,0.00,VWS V14.01,2013-01-03 21:14:00,
2013-01-03 15:15:00,29.3,13.0,29.17,North,0,0.0,0.0,50,0.00,,,0.00,0.00,VWS V14.01,2013-01-03 21:15:00,
2013-01-03 15:16:00,29.3,13.4,29.17,North,0,0.0,0.0,51,0.00,,,0.00,0.00,VWS V14.01,2013-01-03 21:16:00,
2013-01-03 15:17:00,28.9,12.6,29.17,North,0,0.0,0.0,50,0.00,,,0.00,0.00,VWS V14.01,2013-01-03 21:17:00,
2013-01-03 15:18:00,28.9,12.6,29.17,North,0,0.0,0.0,50,0.00,,,0.00,0.00,VWS V14.01,2013-01-03 21:18:00,
2013-01-03 15:19:00,28.9,12.2,29.17,North,0,0.0,0.0,49,0.00,,,0.00,0.00,VWS V14.01,2013-01-03 21:19:00,
2013-01-03 15:20:00,28.9,12.2,29.17,North,0,0.0,0.0,49,0.00,,,0.00,0.00,VWS V14.01,2013-01-03 21:20:00,
2013-01-03 15:21:00,28.9,12.2,29.17,North,0,0.0,0.0,49,0.00,,,0.00,0.00,VWS V14.01,2013-01-03 21:21:00,
2013-01-03 15:22:00,28.8,12.0,29.17,North,0,0.0,0.0,49,0.00,,,0.00,0.00,VWS V14.01,2013-01-03 21:22:00,
2013-01-03 15:23:00,28.8,12.0,29.17,North,0,0.0,0.0,49,0.00,,,0.00,0.00,VWS V14.01,2013-01-03 21:23:00,
2013-01-03 15:24:00,28.9,12.6,29.17,North,0,0.0,0.0,50,0.00,,,0.00,0.00,VWS V14.01,2013-01-03 21:24:00,
2013-01-03 15:25:00,28.9,12.6,29.17,North,0,0.0,0.0,50,0.00,,,0.00,0.00,VWS V14.01,2013-01-03 21:25:00,
2013-01-03 15:26:00,28.9,12.6,29.17,North,0,0.0,0.0,50,0.00,,,0.00,0.00,VWS V14.01,2013-01-03 21:26:00,
2013-01-03 15:27:00,28.8,12.5,29.17,North,0,0.0,0.0,50,0.00,,,0.00,0.00,VWS V14.01,2013-01-03 21:27:00,
2013-01-03 15:28:00,28.8,12.5,29.17,North,0,0.0,0.0,50,0.00,,,0.00,0.00,VWS V14.01,2013-01-03 21:28:00,
2013-01-03 15:29:00,28.6,12.3,29.17,North,0,0.0,0.0,50,0.00,,,0.00,0.00,VWS V14.01,2013-01-03 21:29:00,
2013-01-03 15:30:00,28.4,12.6,29.17,North,0,0.0,0.0,51,0.00,,,0.00,0.00,VWS V14.01,2013-01-03 21:30:00,
2013-01-03 15:31:00,28.4,12.6,29.17,North,0,0.0,0.0,51,0.00,,,0.00,0.00,VWS V14.01,2013-01-03 21:31:00,
2013-01-03 15:32:00,28.4,12.6,29.17,North,0,0.0,0.0,51,0.00,,,0.00,0.00,VWS V14.01,2013-01-03 21:32:00,
2013-01-03 15:33:00,28.4,12.6,29.17,North,0,0.0,0.0,51,0.00,,,0.00,0.00,VWS V14.01,2013-01-03 21:33:00,
2013-01-03 15:34:00,28.6,12.8,29.17,North,0,0.0,0.0,51,0.00,,,0.00,0.00,VWS V14.01,2013-01-03 21:34:00,
2013-01-03 15:35:00,28.6,12.8,29.17,North,0,0.0,0.0,51,0.00,,,0.00,0.00,VWS V14.01,2013-01-03 21:35:00,
2013-01-03 15:36:00,28.6,12.8,29.17,North,0,0.0,0.0,51,0.00,,,0.00,0.00,VWS V14.01,2013-01-03 21:36:00,
2013-01-03 15:37:00,28.6,12.8,29.17,North,0,0.0,0.0,51,0.00,,,0.00,0.00,VWS V14.01,2013-01-03 21:37:00,
2013-01-03 15:38:00,28.6,12.8,29.17,North,0,0.0,0.0,51,0.00,,,0.00,0.00,VWS V14.01,2013-01-03 21:38:00,
2013-01-03 15:39:00,28.6,12.8,29.17,North,0,0.0,0.0,51,0.00,,,0.00,0.00,VWS V14.01,2013-01-03 21:39:00,
2013-01-03 15:40:00,28.6,12.8,29.17,North,0,0.0,0.0,51,0.00,,,0.00,0.00,VWS V14.01,2013-01-03 21:40:00,
2013-01-03 15:41:00,28.6,12.8,29.17,North,0,0.0,0.0,51,0.00,,,0.00,0.00,VWS V14.01,2013-01-03 21:41:00,
2013-01-03 15:42:00,28.4,12.6,29.17,North,0,0.0,0.0,51,0.00,,,0.00,0.00,VWS V14.01,2013-01-03 21:42:00,
2013-01-03 15:43:00,28.2,12.4,29.17,North,0,0.0,0.0,51,0.00,,,0.00,0.00,VWS V14.01,2013-01-03 21:43:00,
2013-01-03 15:44:00,28.2,12.4,29.17,North,0,0.0,0.0,51,0.00,,,0.00,0.00,VWS V14.01,2013-01-03 21:44:00,
2013-01-03 15:45:00,28.0,12.3,29.17,North,0,0.0,0.0,51,0.00,,,0.00,0.00,VWS V14.01,2013-01-03 21:45:00,
2013-01-03 15:46:00,27.9,12.1,29.17,North,0,0.0,0.0,51,0.00,,,0.00,0.00,VWS V14.01,2013-01-03 21:46:00,
2013-01-03 15:47:00,27.9,12.1,29.17,North,0,0.0,0.0,51,0.00,,,0.00,0.00,VWS V14.01,2013-01-03 21:47:00,
2013-01-03 15:48:00,27.9,12.1,29.17,North,0,0.0,0.0,51,0.00,,,0.00,0.00,VWS V14.01,2013-01-03 21:48:00,
2013-01-03 15:49:00,27.7,11.9,29.17,North,0,0.0,0.0,51,0.00,,,0.00,0.00,VWS V14.01,2013-01-03 21:49:00,
2013-01-03 15:50:00,27.7,11.9,29.14,North,0,0.0,0.0,51,0.00,,,0.00,0.00,VWS V14.01,2013-01-03 21:50:00,
2013-01-03 15:51:00,27.9,12.5,29.14,North,0,0.0,0.0,52,0.00,,,0.00,0.00,VWS V14.01,2013-01-03 21:51:00,
2013-01-03 15:52:00,27.7,12.4,29.14,North,0,0.0,0.0,52,0.00,,,0.00,0.00,VWS V14.01,2013-01-03 21:52:00,
2013-01-03 15:53:00,27.9,12.1,29.14,North,0,0.0,0.0,51,0.00,,,0.00,0.00,VWS V14.01,2013-01-03 21:53:00,
2013-01-03 15:54:00,27.7,11.9,29.14,North,0,0.0,0.0,51,0.00,,,0.00,0.00,VWS V14.01,2013-01-03 21:54:00,
2013-01-03 15:55:00,27.7,11.9,29.14,North,0,0.0,0.0,51,0.00,,,0.00,0.00,VWS V14.01,2013-01-03 21:55:00,
2013-01-03 15:56:00,27.7,11.9,29.14,North,0,0.0,0.0,51,0.00,,,0.00,0.00,VWS V14.01,2013-01-03 21:56:00,
2013-01-03 15:57:00,27.7,11.9,29.14,North,0,0.0,0.0,51,0.00,,,0.00,0.00,VWS V14.01,2013-01-03 21:57:00,
2013-01-03 15:58:00,27.7,11.9,29.14,North,0,0.0,0.0,51,0.00,,,0.00,0.00,VWS V14.01,2013-01-03 21:58:00,
2013-01-03 15:59:00,27.7,11.9,29.15,North,0,0.0,0.0,51,0.00,,,0.00,0.00,VWS V14.01,2013-01-03 21:59:00,
2013-01-03 16:00:00,27.7,11.9,29.14,North,0,0.0,0.0,51,0.00,,,0.00,0.00,VWS V14.01,2013-01-03 22:00:00,
2013-01-03 16:01:00,27.5,11.8,29.14,North,0,0.0,0.0,51,0.00,,,0.00,0.00,VWS V14.01,2013-01-03 22:01:00,
2013-01-03 16:02:00,27.5,11.8,29.14,North,0,0.0,0.0,51,0.00,,,0.00,0.00,VWS V14.01,2013-01-03 22:02:00,
2013-01-03 16:03:00,27.3,12.0,29.14,North,0,0.0,0.0,52,0.00,,,0.00,0.00,VWS V14.01,2013-01-03 22:03:00,
2013-01-03 16:04:00,27.3,12.0,29.14,North,0,0.0,0.0,52,0.00,,,0.00,0.00,VWS V14.01,2013-01-03 22:04:00,
2013-01-03 16:05:00,27.3,12.0,29.17,North,0,0.0,0.0,52,0.00,,,0.00,0.00,VWS V14.01,2013-01-03 22:05:00,
2013-01-03 16:06:00,27.1,11.9,29.17,North,0,0.0,0.0,52,0.00,,,0.00,0.00,VWS V14.01,2013-01-03 22:06:00,
2013-01-03 16:07:00,27.1,11.9,29.17,North,0,0.0,0.0,52,0.00,,,0.00,0.00,VWS V14.01,2013-01-03 22:07:00,
2013-01-03 16:08:00,27.0,11.7,29.17,North,0,0.0,0.0,52,0.00,,,0.00,0.00,VWS V14.01,2013-01-03 22:08:00,
2013-01-03 16:09:00,26.8,11.5,29.17,North,0,0.0,0.0,52,0.00,,,0.00,0.00,VWS V14.01,2013-01-03 22:09:00,
2013-01-03 16:10:00,26.6,11.4,29.17,North,0,0.0,0.0,52,0.00,,,0.00,0.00,VWS V14.01,2013-01-03 22:10:00,
2013-01-03 16:11:00,26.4,11.2,29.17,North,0,0.0,0.0,52,0.00,,,0.00,0.00,VWS V14.01,2013-01-03 22:11:00,
2013-01-03 16:12:00,26.4,11.2,29.17,North,0,0.0,0.0,52,0.00,,,0.00,0.00,VWS V14.01,2013-01-03 22:12:00,
2013-01-03 16:13:00,25.9,10.7,29.17,North,0,0.0,0.0,52,0.00,,,0.00,0.00,VWS V14.01,2013-01-03 22:13:00,
2013-01-03 16:14:00,25.9,10.7,29.17,North,0,0.0,0.0,52,0.00,,,0.00,0.00,VWS V14.01,2013-01-03 22:14:00,
2013-01-03 16:15:00,25.9,10.7,29.17,North,0,0.0,0.0,52,0.00,,,0.00,0.00,VWS V14.01,2013-01-03 22:15:00,
2013-01-03 16:16:00,25.5,10.8,29.17,North,0,0.0,0.0,53,0.00,,,0.00,0.00,VWS V14.01,2013-01-03 22:16:00,
2013-01-03 16:17:00,25.5,10.8,29.17,North,0,0.0,0.0,53,0.00,,,0.00,0.00,VWS V14.01,2013-01-03 22:17:00,
2013-01-03 16:18:00,25.5,10.8,29.17,North,0,0.0,0.0,53,0.00,,,0.00,0.00,VWS V14.01,2013-01-03 22:18:00,
2013-01-03 16:19:00,25.3,10.6,29.17,North,0,0.0,0.0,53,0.00,,,0.00,0.00,VWS V14.01,2013-01-03 22:19:00,
2013-01-03 16:20:00,25.3,10.6,29.17,North,0,0.0,0.0,53,0.00,,,0.00,0.00,VWS V14.01,2013-01-03 22:20:00,
2013-01-03 16:21:00,25.3,10.6,29.17,North,0,0.0,0.0,53,0.00,,,0.00,0.00,VWS V14.01,2013-01-03 22:21:00,
2013-01-03 16:22:00,25.3,10.6,29.17,North,0,0.0,0.0,53,0.00,,,0.00,0.00,VWS V14.01,2013-01-03 22:22:00,
2013-01-03 16:23:00,25.3,10.6,29.17,North,0,0.0,0.0,53,0.00,,,0.00,0.00,VWS V14.01,2013-01-03 22:23:00,
2013-01-03 16:24:00,25.3,10.6,29.17,North,0,0.0,0.0,53,0.00,,,0.00,0.00,VWS V14.01,2013-01-03 22:24:00,
2013-01-03 16:25:00,25.3,11.0,29.17,North,0,0.0,0.0,54,0.00,,,0.00,0.00,VWS V14.01,2013-01-03 22:25:00,
2013-01-03 16:26:00,25.3,11.0,29.17,North,0,0.0,0.0,54,0.00,,,0.00,0.00,VWS V14.01,2013-01-03 22:26:00,
2013-01-03 16:27:00,25.3,11.0,29.17,North,0,0.0,0.0,54,0.00,,,0.00,0.00,VWS V14.01,2013-01-03 22:27:00,
2013-01-03 16:28:00,25.3,11.0,29.17,North,0,0.0,0.0,54,0.00,,,0.00,0.00,VWS V14.01,2013-01-03 22:28:00,
2013-01-03 16:29:00,25.3,11.0,29.17,North,0,0.0,0.0,54,0.00,,,0.00,0.00,VWS V14.01,2013-01-03 22:29:00,
2013-01-03 16:30:00,25.3,11.0,29.17,North,0,0.0,0.0,54,0.00,,,0.00,0.00,VWS V14.01,2013-01-03 22:30:00,
2013-01-03 16:31:00,25.3,11.0,29.17,North,0,0.0,0.0,54,0.00,,,0.00,0.00,VWS V14.01,2013-01-03 22:31:00,
2013-01-03 16:32:00,25.3,11.0,29.17,North,0,0.0,0.0,54,0.00,,,0.00,0.00,VWS V14.01,2013-01-03 22:32:00,
2013-01-03 16:33:00,25.3,11.0,29.17,North,0,0.0,0.0,54,0.00,,,0.00,0.00,VWS V14.01,2013-01-03 22:33:00,
2013-01-03 16:34:00,25.2,10.9,29.17,North,0,0.0,0.0,54,0.00,,,0.00,0.00,VWS V14.01,2013-01-03 22:34:00,
2013-01-03 16:35:00,25.2,10.9,29.14,North,0,0.0,0.0,54,0.00,,,0.00,0.00,VWS V14.01,2013-01-03 22:35:00,
2013-01-03 16:36:00,25.0,10.7,29.14,North,0,0.0,0.0,54,0.00,,,0.00,0.00,VWS V14.01,2013-01-03 22:36:00,
2013-01-03 16:37:00,25.0,10.7,29.14,North,0,0.0,0.0,54,0.00,,,0.00,0.00,VWS V14.01,2013-01-03 22:37:00,
2013-01-03 16:38:00,25.0,10.7,29.14,North,0,0.0,0.0,54,0.00,,,0.00,0.00,VWS V14.01,2013-01-03 22:38:00,
2013-01-03 16:39:00,25.0,10.7,29.14,North,0,0.0,0.0,54,0.00,,,0.00,0.00,VWS V14.01,2013-01-03 22:39:00,
2013-01-03 16:40:00,24.8,10.5,29.14,North,0,0.0,0.0,54,0.00,,,0.00,0.00,VWS V14.01,2013-01-03 22:40:00,
2013-01-03 16:41:00,24.8,10.5,29.14,North,0,0.0,0.0,54,0.00,,,0.00,0.00,VWS V14.01,2013-01-03 22:41:00,
2013-01-03 16:42:00,24.8,10.5,29.14,North,0,0.0,0.0,54,0.00,,,0.00,0.00,VWS V14.01,2013-01-03 22:42:00,
2013-01-03 16:43:00,24.8,10.9,29.14,North,0,0.0,0.0,55,0.00,,,0.00,0.00,VWS V14.01,2013-01-03 22:43:00,
2013-01-03 16:44:00,24.8,10.9,29.14,North,0,0.0,0.0,55,0.00,,,0.00,0.00,VWS V14.01,2013-01-03 22:44:00,
2013-01-03 16:45:00,24.6,10.8,29.14,North,0,0.0,0.0,55,0.00,,,0.00,0.00,VWS V14.01,2013-01-03 22:45:00,
2013-01-03 16:46:00,24.6,10.8,29.14,North,0,0.0,0.0,55,0.00,,,0.00,0.00,VWS V14.01,2013-01-03 22:46:00,
2013-01-03 16:47:00,24.4,10.6,29.14,North,0,0.0,0.0,55,0.00,,,0.00,0.00,VWS V14.01,2013-01-03 22:47:00,
2013-01-03 16:48:00,24.4,10.6,29.14,North,0,0.0,0.0,55,0.00,,,0.00,0.00,VWS V14.01,2013-01-03 22:48:00,
2013-01-03 16:49:00,24.4,10.6,29.14,North,0,0.0,0.0,55,0.00,,,0.00,0.00,VWS V14.01,2013-01-03 22:49:00,
2013-01-03 16:50:00,24.4,10.6,29.17,North,0,0.0,0.0,55,0.00,,,0.00,0.00,VWS V14.01,2013-01-03 22:50:00,
2013-01-03 16:51:00,24.4,10.6,29.17,North,0,0.0,0.0,55,0.00,,,0.00,0.00,VWS V14.01,2013-01-03 22:51:00,
2013-01-03 16:52:00,24.1,10.3,29.17,North,0,0.0,0.0,55,0.00,,,0.00,0.00,VWS V14.01,2013-01-03 22:52:00,
2013-01-03 16:53:00,24.1,9.9,29.17,North,0,0.0,0.0,54,0.00,,,0.00,0.00,VWS V14.01,2013-01-03 22:53:00,
2013-01-03 16:54:00,23.9,9.7,29.17,North,0,0.0,0.0,54,0.00,,,0.00,0.00,VWS V14.01,2013-01-03 22:54:00,
2013-01-03 16:55:00,23.9,9.7,29.17,North,0,0.0,0.0,54,0.00,,,0.00,0.00,VWS V14.01,2013-01-03 22:55:00,
2013-01-03 16:56:00,23.7,9.5,29.17,North,0,0.0,0.0,54,0.00,,,0.00,0.00,VWS V14.01,2013-01-03 22:56:00,
2013-01-03 16:57:00,23.7,9.5,29.17,North,0,0.0,0.0,54,0.00,,,0.00,0.00,VWS V14.01,2013-01-03 22:57:00,
2013-01-03 16:58:00,23.5,9.8,29.17,North,0,0.0,0.0,55,0.00,,,0.00,0.00,VWS V14.01,2013-01-03 22:58:00,
2013-01-03 16:59:00,23.5,9.8,29.17,North,0,0.0,0.0,55,0.00,,,0.00,0.00,VWS V14.01,2013-01-03 22:59:00,
2013-01-03 17:00:00,23.5,9.8,29.17,North,0,0.0,0.0,55,0.00,,,0.00,0.00,VWS V14.01,2013-01-03 23:00:00,
2013-01-03 17:01:00,23.4,9.6,29.17,North,0,0.0,0.0,55,0.00,,,0.00,0.00,VWS V14.01,2013-01-03 23:01:00,
2013-01-03 17:02:00,23.4,9.6,29.17,North,0,0.0,0.0,55,0.00,,,0.00,0.00,VWS V14.01,2013-01-03 23:02:00,
2013-01-03 17:03:00,23.2,9.4,29.17,North,0,0.0,0.0,55,0.00,,,0.00,0.00,VWS V14.01,2013-01-03 23:03:00,
2013-01-03 17:04:00,23.0,9.2,29.17,North,0,0.0,0.0,55,0.00,,,0.00,0.00,VWS V14.01,2013-01-03 23:04:00,
2013-01-03 17:05:00,23.0,9.2,29.14,North,0,0.0,0.0,55,0.00,,,0.00,0.00,VWS V14.01,2013-01-03 23:05:00,
2013-01-03 17:06:00,23.0,9.2,29.14,North,0,0.0,0.0,55,0.00,,,0.00,0.00,VWS V14.01,2013-01-03 23:06:00,
2013-01-03 17:07:00,22.8,9.1,29.14,North,0,0.0,0.0,55,0.00,,,0.00,0.00,VWS V14.01,2013-01-03 23:07:00,
2013-01-03 17:08:00,22.8,9.1,29.14,North,0,0.0,0.0,55,0.00,,,0.00,0.00,VWS V14.01,2013-01-03 23:08:00,
2013-01-03 17:09:00,22.8,9.1,29.14,North,0,0.0,0.0,55,0.00,,,0.00,0.00,VWS V14.01,2013-01-03 23:09:00,
2013-01-03 17:10:00,22.6,9.3,29.14,North,0,0.0,0.0,56,0.00,,,0.00,0.00,VWS V14.01,2013-01-03 23:10:00,
2013-01-03 17:11:00,22.6,9.3,29.14,North,0,0.0,0.0,56,0.00,,,0.00,0.00,VWS V14.01,2013-01-03 23:11:00,
2013-01-03 17:12:00,22.5,9.1,29.14,North,0,0.0,0.0,56,0.00,,,0.00,0.00,VWS V14.01,2013-01-03 23:12:00,
2013-01-03 17:13:00,22.5,9.1,29.14,North,0,0.0,0.0,56,0.00,,,0.00,0.00,VWS V14.01,2013-01-03 23:13:00,
2013-01-03 17:14:00,22.5,9.1,29.14,North,0,0.0,0.0,56,0.00,,,0.00,0.00,VWS V14.01,2013-01-03 23:14:00,
2013-01-03 17:15:00,22.3,9.0,29.14,North,0,0.0,0.0,56,0.00,,,0.00,0.00,VWS V14.01,2013-01-03 23:15:00,
2013-01-03 17:16:00,22.1,8.8,29.14,North,0,0.0,0.0,56,0.00,,,0.00,0.00,VWS V14.01,2013-01-03 23:16:00,
2013-01-03 17:17:00,21.9,8.6,29.14,North,0,0.0,0.0,56,0.00,,,0.00,0.00,VWS V14.01,2013-01-03 23:17:00,
2013-01-03 17:18:00,21.7,8.5,29.14,North,0,0.0,0.0,56,0.00,,,0.00,0.00,VWS V14.01,2013-01-03 23:18:00,
2013-01-03 17:19:00,21.7,8.5,29.14,North,0,0.0,0.0,56,0.00,,,0.00,0.00,VWS V14.01,2013-01-03 23:19:00,
2013-01-03 17:20:00,21.7,8.5,29.17,North,0,0.0,0.0,56,0.00,,,0.00,0.00,VWS V14.01,2013-01-03 23:20:00,
2013-01-03 17:21:00,21.6,8.3,29.17,North,0,0.0,0.0,56,0.00,,,0.00,0.00,VWS V14.01,2013-01-03 23:21:00,
2013-01-03 17:22:00,21.6,8.3,29.17,North,0,0.0,0.0,56,0.00,,,0.00,0.00,VWS V14.01,2013-01-03 23:22:00,
2013-01-03 17:23:00,21.4,8.9,29.17,North,0,0.0,0.0,58,0.00,,,0.00,0.00,VWS V14.01,2013-01-03 23:23:00,
2013-01-03 17:24:00,21.4,8.9,29.17,North,0,0.0,0.0,58,0.00,,,0.00,0.00,VWS V14.01,2013-01-03 23:24:00,
2013-01-03 17:25:00,21.2,8.7,29.17,North,0,0.0,0.0,58,0.00,,,0.00,0.00,VWS V14.01,2013-01-03 23:25:00,
2013-01-03 17:26:00,21.2,8.7,29.17,North,0,0.0,0.0,58,0.00,,,0.00,0.00,VWS V14.01,2013-01-03 23:26:00,
2013-01-03 17:27:00,21.0,8.2,29.17,North,0,0.0,0.0,57,0.00,,,0.00,0.00,VWS V14.01,2013-01-03 23:27:00,
2013-01-03 17:28:00,20.8,8.0,29.17,North,0,0.0,0.0,57,0.00,,,0.00,0.00,VWS V14.01,2013-01-03 23:28:00,
2013-01-03 17:29:00,20.8,8.0,29.17,North,0,0.0,0.0,57,0.00,,,0.00,0.00,VWS V14.01,2013-01-03 23:29:00,
2013-01-03 17:30:00,20.7,7.8,29.17,North,0,0.0,0.0,57,0.00,,,0.00,0.00,VWS V14.01,2013-01-03 23:30:00,
2013-01-03 17:31:00,20.7,7.8,29.17,North,0,0.0,0.0,57,0.00,,,0.00,0.00,VWS V14.01,2013-01-03 23:31:00,
2013-01-03 17:32:00,20.5,7.7,29.17,North,0,0.0,0.0,57,0.00,,,0.00,0.00,VWS V14.01,2013-01-03 23:32:00,
2013-01-03 17:33:00,20.3,7.5,29.17,North,0,0.0,0.0,57,0.00,,,0.00,0.00,VWS V14.01,2013-01-03 23:33:00,
2013-01-03 17:34:00,20.3,7.5,29.17,North,0,0.0,0.0,57,0.00,,,0.00,0.00,VWS V14.01,2013-01-03 23:34:00,
2013-01-03 17:35:00,20.3,7.9,29.17,North,0,0.0,0.0,58,0.00,,,0.00,0.00,VWS V14.01,2013-01-03 23:35:00,
2013-01-03 17:36:00,20.1,7.7,29.17,North,0,0.0,0.0,58,0.00,,,0.00,0.00,VWS V14.01,2013-01-03 23:36:00,
2013-01-03 17:37:00,20.1,7.7,29.17,North,0,0.0,0.0,58,0.00,,,0.00,0.00,VWS V14.01,2013-01-03 23:37:00,
2013-01-03 17:38:00,19.9,7.6,29.17,North,0,0.0,0.0,58,0.00,,,0.00,0.00,VWS V14.01,2013-01-03 23:38:00,
2013-01-03 17:39:00,19.9,7.6,29.17,North,0,0.0,0.0,58,0.00,,,0.00,0.00,VWS V14.01,2013-01-03 23:39:00,
2013-01-03 17:40:00,19.8,7.4,29.17,North,0,0.0,0.0,58,0.00,,,0.00,0.00,VWS V14.01,2013-01-03 23:40:00,
2013-01-03 17:41:00,19.6,7.2,29.17,North,0,0.0,0.0,58,0.00,,,0.00,0.00,VWS V14.01,2013-01-03 23:41:00,
2013-01-03 17:42:00,19.6,7.2,29.17,North,0,0.0,0.0,58,0.00,,,0.00,0.00,VWS V14.01,2013-01-03 23:42:00,
2013-01-03 17:43:00,19.4,7.1,29.17,North,0,0.0,0.0,58,0.00,,,0.00,0.00,VWS V14.01,2013-01-03 23:43:00,
2013-01-03 17:44:00,19.4,7.1,29.17,North,0,0.0,0.0,58,0.00,,,0.00,0.00,VWS V14.01,2013-01-03 23:44:00,
2013-01-03 17:45:00,19.2,6.9,29.17,North,0,0.0,0.0,58,0.00,,,0.00,0.00,VWS V14.01,2013-01-03 23:45:00,
2013-01-03 17:46:00,19.2,7.2,29.17,North,0,0.0,0.0,59,0.00,,,0.00,0.00,VWS V14.01,2013-01-03 23:46:00,
2013-01-03 17:47:00,19.2,7.2,29.17,North,0,0.0,0.0,59,0.00,,,0.00,0.00,VWS V14.01,2013-01-03 23:47:00,
2013-01-03 17:48:00,19.0,7.1,29.17,North,0,0.0,0.0,59,0.00,,,0.00,0.00,VWS V14.01,2013-01-03 23:48:00,
2013-01-03 17:49:00,18.9,6.9,29.17,North,0,0.0,0.0,59,0.00,,,0.00,0.00,VWS V14.01,2013-01-03 23:49:00,
2013-01-03 17:50:00,18.9,6.9,29.17,North,0,0.0,0.0,59,0.00,,,0.00,0.00,VWS V14.01,2013-01-03 23:50:00,
2013-01-03 17:51:00,18.9,6.9,29.17,North,0,0.0,0.0,59,0.00,,,0.00,0.00,VWS V14.01,2013-01-03 23:51:00,
2013-01-03 17:52:00,18.7,6.7,29.17,North,0,0.0,0.0,59,0.00,,,0.00,0.00,VWS V14.01,2013-01-03 23:52:00,
2013-01-03 17:53:00,18.5,6.6,29.17,North,0,0.0,0.0,59,0.00,,,0.00,0.00,VWS V14.01,2013-01-03 23:53:00,
2013-01-03 17:54:00,18.5,6.6,29.17,North,0,0.0,0.0,59,0.00,,,0.00,0.00,VWS V14.01,2013-01-03 23:54:00,
2013-01-03 17:55:00,18.3,6.4,29.17,North,0,0.0,0.0,59,0.00,,,0.00,0.00,VWS V14.01,2013-01-03 23:55:00,
2013-01-03 17:56:00,18.3,6.4,29.17,North,0,0.0,0.0,59,0.00,,,0.00,0.00,VWS V14.01,2013-01-03 23:56:00,
2013-01-03 17:57:00,18.1,6.2,29.17,North,0,0.0,0.0,59,0.00,,,0.00,0.00,VWS V14.01,2013-01-03 23:57:00,
2013-01-03 17:58:00,18.1,6.2,29.17,North,0,0.0,0.0,59,0.00,,,0.00,0.00,VWS V14.01,2013-01-03 23:58:00,
2013-01-03 17:59:00,18.0,6.1,29.17,North,0,0.0,0.0,59,0.00,,,0.00,0.00,VWS V14.01,2013-01-03 23:59:00,
2013-01-03 18:00:00,17.8,5.9,29.17,North,0,0.0,0.0,59,0.00,,,0.00,0.00,VWS V14.01,2013-01-04 00:00:00,
2013-01-03 18:01:00,17.8,5.9,29.17,North,0,0.0,0.0,59,0.00,,,0.00,0.00,VWS V14.01,2013-01-04 00:01:00,
2013-01-03 18:02:00,17.6,6.1,29.17,North,0,0.0,0.0,60,0.00,,,0.00,0.00,VWS V14.01,2013-01-04 00:02:00,
2013-01-03 18:03:00,17.6,6.1,29.17,North,0,0.0,0.0,60,0.00,,,0.00,0.00,VWS V14.01,2013-01-04 00:03:00,
2013-01-03 18:04:00,17.4,5.9,29.17,North,0,0.0,0.0,60,0.00,,,0.00,0.00,VWS V14.01,2013-01-04 00:04:00,
2013-01-03 18:05:00,17.4,5.9,29.17,North,0,0.0,0.0,60,0.00,,,0.00,0.00,VWS V14.01,2013-01-04 00:05:00,
2013-01-03 18:06:00,17.2,5.8,29.17,North,0,0.0,0.0,60,0.00,,,0.00,0.00,VWS V14.01,2013-01-04 00:06:00,
2013-01-03 18:07:00,17.2,5.8,29.17,North,0,0.0,0.0,60,0.00,,,0.00,0.00,VWS V14.01,2013-01-04 00:07:00,
2013-01-03 18:08:00,17.1,5.9,29.17,North,0,0.0,0.0,61,0.00,,,0.00,0.00,VWS V14.01,2013-01-04 00:08:00,
2013-01-03 18:09:00,17.1,5.9,29.17,North,0,0.0,0.0,61,0.00,,,0.00,0.00,VWS V14.01,2013-01-04 00:09:00,
2013-01-03 18:10:00,16.9,5.8,29.17,North,0,0.0,0.0,61,0.00,,,0.00,0.00,VWS V14.01,2013-01-04 00:10:00,
2013-01-03 18:11:00,16.9,5.8,29.17,North,0,0.0,0.0,61,0.00,,,0.00,0.00,VWS V14.01,2013-01-04 00:11:00,
2013-01-03 18:12:00,16.7,5.6,29.17,North,0,0.0,0.0,61,0.00,,,0.00,0.00,VWS V14.01,2013-01-04 00:12:00,
2013-01-03 18:13:00,16.7,5.6,29.17,North,0,0.0,0.0,61,0.00,,,0.00,0.00,VWS V14.01,2013-01-04 00:13:00,
2013-01-03 18:14:00,16.5,5.4,29.17,North,0,0.0,0.0,61,0.00,,,0.00,0.00,VWS V14.01,2013-01-04 00:14:00,
2013-01-03 18:15:00,16.5,5.4,29.17,North,0,0.0,0.0,61,0.00,,,0.00,0.00,VWS V14.01,2013-01-04 00:15:00,
2013-01-03 18:16:00,16.5,5.4,29.17,North,0,0.0,0.0,61,0.00,,,0.00,0.00,VWS V14.01,2013-01-04 00:16:00,
2013-01-03 18:17:00,16.3,5.3,29.17,North,0,0.0,0.0,61,0.00,,,0.00,0.00,VWS V14.01,2013-01-04 00:17:00,
2013-01-03 18:18:00,16.2,5.1,29.17,North,0,0.0,0.0,61,0.00,,,0.00,0.00,VWS V14.01,2013-01-04 00:18:00,
2013-01-03 18:19:00,16.2,5.1,29.17,North,0,0.0,0.0,61,0.00,,,0.00,0.00,VWS V14.01,2013-01-04 00:19:00,
2013-01-03 18:20:00,16.2,5.1,29.17,North,0,0.0,0.0,61,0.00,,,0.00,0.00,VWS V14.01,2013-01-04 00:20:00,
2013-01-03 18:21:00,16.2,5.1,29.17,North,0,0.0,0.0,61,0.00,,,0.00,0.00,VWS V14.01,2013-01-04 00:21:00,
2013-01-03 18:22:00,16.0,4.9,29.17,North,0,0.0,0.0,61,0.00,,,0.00,0.00,VWS V14.01,2013-01-04 00:22:00,
2013-01-03 18:23:00,16.0,4.9,29.17,North,0,0.0,0.0,61,0.00,,,0.00,0.00,VWS V14.01,2013-01-04 00:23:00,
2013-01-03 18:24:00,16.0,4.9,29.17,North,0,0.0,0.0,61,0.00,,,0.00,0.00,VWS V14.01,2013-01-04 00:24:00,
2013-01-03 18:25:00,15.8,5.1,29.17,North,0,0.0,0.0,62,0.00,,,0.00,0.00,VWS V14.01,2013-01-04 00:25:00,
2013-01-03 18:26:00,15.8,5.1,29.17,North,0,0.0,0.0,62,0.00,,,0.00,0.00,VWS V14.01,2013-01-04 00:26:00,
2013-01-03 18:27:00,15.8,5.1,29.17,North,0,0.0,0.0,62,0.00,,,0.00,0.00,VWS V14.01,2013-01-04 00:27:00,
2013-01-03 18:28:00,15.8,5.1,29.17,North,0,0.0,0.0,62,0.00,,,0.00,0.00,VWS V14.01,2013-01-04 00:28:00,
2013-01-03 18:29:00,15.4,4.8,29.17,North,0,0.0,0.0,62,0.00,,,0.00,0.00,VWS V14.01,2013-01-04 00:29:00,
2013-01-03 18:30:00,15.4,4.8,29.17,North,0,0.0,0.0,62,0.00,,,0.00,0.00,VWS V14.01,2013-01-04 00:30:00,
2013-01-03 18:31:00,15.4,4.8,29.17,North,0,0.0,0.0,62,0.00,,,0.00,0.00,VWS V14.01,2013-01-04 00:31:00,
2013-01-03 18:32:00,15.4,4.8,29.17,North,0,0.0,0.0,62,0.00,,,0.00,0.00,VWS V14.01,2013-01-04 00:32:00,
2013-01-03 18:33:00,15.3,4.9,29.17,North,0,0.0,0.0,63,0.00,,,0.00,0.00,VWS V14.01,2013-01-04 00:33:00,
2013-01-03 18:34:00,15.3,4.9,29.17,North,0,0.0,0.0,63,0.00,,,0.00,0.00,VWS V14.01,2013-01-04 00:34:00,
2013-01-03 18:35:00,15.1,4.8,29.17,North,0,0.0,0.0,63,0.00,,,0.00,0.00,VWS V14.01,2013-01-04 00:35:00,
2013-01-03 18:36:00,14.9,4.6,29.17,North,0,0.0,0.0,63,0.00,,,0.00,0.00,VWS V14.01,2013-01-04 00:36:00,
2013-01-03 18:37:00,14.9,4.6,29.17,North,0,0.0,0.0,63,0.00,,,0.00,0.00,VWS V14.01,2013-01-04 00:37:00,
2013-01-03 18:38:00,14.9,4.6,29.17,North,0,0.0,0.0,63,0.00,,,0.00,0.00,VWS V14.01,2013-01-04 00:38:00,
2013-01-03 18:39:00,14.9,4.6,29.17,North,0,0.0,0.0,63,0.00,,,0.00,0.00,VWS V14.01,2013-01-04 00:39:00,
2013-01-03 18:40:00,14.9,4.6,29.17,North,0,0.0,0.0,63,0.00,,,0.00,0.00,VWS V14.01,2013-01-04 00:40:00,
2013-01-03 18:41:00,14.9,4.6,29.17,North,0,0.0,0.0,63,0.00,,,0.00,0.00,VWS V14.01,2013-01-04 00:41:00,
2013-01-03 18:42:00,14.5,4.2,29.17,North,0,0.0,0.0,63,0.00,,,0.00,0.00,VWS V14.01,2013-01-04 00:42:00,
2013-01-03 18:43:00,14.5,4.2,29.17,North,0,0.0,0.0,63,0.00,,,0.00,0.00,VWS V14.01,2013-01-04 00:43:00,
2013-01-03 18:44:00,14.5,4.2,29.17,North,0,0.0,0.0,63,0.00,,,0.00,0.00,VWS V14.01,2013-01-04 00:44:00,
2013-01-03 18:45:00,14.4,4.1,29.17,North,0,0.0,0.0,63,0.00,,,0.00,0.00,VWS V14.01,2013-01-04 00:45:00,
2013-01-03 18:46:00,14.4,4.1,29.17,North,0,0.0,0.0,63,0.00,,,0.00,0.00,VWS V14.01,2013-01-04 00:46:00,
2013-01-03 18:47:00,14.4,4.4,29.17,North,0,0.0,0.0,64,0.00,,,0.00,0.00,VWS V14.01,2013-01-04 00:47:00,
2013-01-03 18:48:00,14.2,4.2,29.17,North,0,0.0,0.0,64,0.00,,,0.00,0.00,VWS V14.01,2013-01-04 00:48:00,
2013-01-03 18:49:00,14.2,4.2,29.17,North,0,0.0,0.0,64,0.00,,,0.00,0.00,VWS V14.01,2013-01-04 00:49:00,
2013-01-03 18:50:00,14.2,4.2,29.14,North,0,0.0,0.0,64,0.00,,,0.00,0.00,VWS V14.01,2013-01-04 00:50:00,
2013-01-03 18:51:00,14.2,4.2,29.14,North,0,0.0,0.0,64,0.00,,,0.00,0.00,VWS V14.01,2013-01-04 00:51:00,
2013-01-03 18:52:00,14.0,4.4,29.14,North,0,0.0,0.0,65,0.00,,,0.00,0.00,VWS V14.01,2013-01-04 00:52:00,
2013-01-03 18:53:00,13.8,4.2,29.14,North,0,0.0,0.0,65,0.00,,,0.00,0.00,VWS V14.01,2013-01-04 00:53:00,
2013-01-03 18:54:00,13.8,4.2,29.14,North,0,0.0,0.0,65,0.00,,,0.00,0.00,VWS V14.01,2013-01-04 00:54:00,
2013-01-03 18:55:00,13.6,4.1,29.14,North,0,0.0,0.0,65,0.00,,,0.00,0.00,VWS V14.01,2013-01-04 00:55:00,
2013-01-03 18:56:00,13.6,4.1,29.14,North,0,0.0,0.0,65,0.00,,,0.00,0.00,VWS V14.01,2013-01-04 00:56:00,
2013-01-03 18:57:00,13.5,3.9,29.14,North,0,0.0,0.0,65,0.00,,,0.00,0.00,VWS V14.01,2013-01-04 00:57:00,
2013-01-03 18:58:00,13.5,3.9,29.14,North,0,0.0,0.0,65,0.00,,,0.00,0.00,VWS V14.01,2013-01-04 00:58:00,
2013-01-03 18:59:00,13.3,3.7,29.14,North,0,0.0,0.0,65,0.00,,,0.00,0.00,VWS V14.01,2013-01-04 00:59:00,
2013-01-03 19:00:00,13.3,3.7,29.14,North,0,0.0,0.0,65,0.00,,,0.00,0.00,VWS V14.01,2013-01-04 01:00:00,
2013-01-03 19:01:00,13.3,3.7,29.14,North,0,0.0,0.0,65,0.00,,,0.00,0.00,VWS V14.01,2013-01-04 01:01:00,
2013-01-03 19:02:00,13.1,3.6,29.14,North,0,0.0,0.0,65,0.00,,,0.00,0.00,VWS V14.01,2013-01-04 01:02:00,
2013-01-03 19:03:00,12.9,3.4,29.14,North,0,0.0,0.0,65,0.00,,,0.00,0.00,VWS V14.01,2013-01-04 01:03:00,
2013-01-03 19:04:00,12.9,3.4,29.14,North,0,0.0,0.0,65,0.00,,,0.00,0.00,VWS V14.01,2013-01-04 01:04:00,
2013-01-03 19:05:00,12.9,3.4,29.17,North,0,0.0,0.0,65,0.00,,,0.00,0.00,VWS V14.01,2013-01-04 01:05:00,
2013-01-03 19:06:00,12.9,3.4,29.17,North,0,0.0,0.0,65,0.00,,,0.00,0.00,VWS V14.01,2013-01-04 01:06:00,
2013-01-03 19:07:00,12.9,3.4,29.17,North,0,0.0,0.0,65,0.00,,,0.00,0.00,VWS V14.01,2013-01-04 01:07:00,
2013-01-03 19:08:00,12.7,3.2,29.17,North,0,0.0,0.0,65,0.00,,,0.00,0.00,VWS V14.01,2013-01-04 01:08:00,
2013-01-03 19:09:00,12.7,3.2,29.17,North,0,0.0,0.0,65,0.00,,,0.00,0.00,VWS V14.01,2013-01-04 01:09:00,
2013-01-03 19:10:00,12.7,3.2,29.17,North,0,0.0,0.0,65,0.00,,,0.00,0.00,VWS V14.01,2013-01-04 01:10:00,
2013-01-03 19:11:00,12.7,3.2,29.17,North,0,0.0,0.0,65,0.00,,,0.00,0.00,VWS V14.01,2013-01-04 01:11:00,
2013-01-03 19:12:00,12.6,3.0,29.17,North,0,0.0,0.0,65,0.00,,,0.00,0.00,VWS V14.01,2013-01-04 01:12:00,
2013-01-03 19:13:00,12.6,3.0,29.17,North,0,0.0,0.0,65,0.00,,,0.00,0.00,VWS V14.01,2013-01-04 01:13:00,
2013-01-03 19:14:00,12.6,3.0,29.17,North,0,0.0,0.0,65,0.00,,,0.00,0.00,VWS V14.01,2013-01-04 01:14:00,
2013-01-03 19:15:00,12.6,3.0,29.17,North,0,0.0,0.0,65,0.00,,,0.00,0.00,VWS V14.01,2013-01-04 01:15:00,
2013-01-03 19:16:00,12.4,2.9,29.17,North,0,0.0,0.0,65,0.00,,,0.00,0.00,VWS V14.01,2013-01-04 01:16:00,
2013-01-03 19:17:00,12.4,2.9,29.17,North,0,0.0,0.0,65,0.00,,,0.00,0.00,VWS V14.01,2013-01-04 01:17:00,
2013-01-03 19:18:00,12.2,2.7,29.17,North,0,0.0,0.0,65,0.00,,,0.00,0.00,VWS V14.01,2013-01-04 01:18:00,
2013-01-03 19:19:00,12.2,2.7,29.17,North,0,0.0,0.0,65,0.00,,,0.00,0.00,VWS V14.01,2013-01-04 01:19:00,
2013-01-03 19:20:00,12.4,2.9,29.14,North,0,0.0,0.0,65,0.00,,,0.00,0.00,VWS V14.01,2013-01-04 01:20:00,
2013-01-03 19:21:00,12.4,2.9,29.14,North,0,0.0,0.0,65,0.00,,,0.00,0.00,VWS V14.01,2013-01-04 01:21:00,
2013-01-03 19:22:00,12.2,2.7,29.14,North,0,0.0,0.0,65,0.00,,,0.00,0.00,VWS V14.01,2013-01-04 01:22:00,
2013-01-03 19:23:00,12.2,2.7,29.14,North,0,0.0,0.0,65,0.00,,,0.00,0.00,VWS V14.01,2013-01-04 01:23:00,
2013-01-03 19:24:00,12.2,2.7,29.14,North,0,0.0,0.0,65,0.00,,,0.00,0.00,VWS V14.01,2013-01-04 01:24:00,
2013-01-03 19:25:00,12.2,2.7,29.14,North,0,0.0,0.0,65,0.00,,,0.00,0.00,VWS V14.01,2013-01-04 01:25:00,
2013-01-03 19:26:00,12.2,2.7,29.14,North,0,0.0,0.0,65,0.00,,,0.00,0.00,VWS V14.01,2013-01-04 01:26:00,
2013-01-03 19:27:00,12.2,2.7,29.14,North,0,0.0,0.0,65,0.00,,,0.00,0.00,VWS V14.01,2013-01-04 01:27:00,
2013-01-03 19:28:00,12.2,2.7,29.14,North,0,0.0,0.0,65,0.00,,,0.00,0.00,VWS V14.01,2013-01-04 01:28:00,
2013-01-03 19:29:00,12.2,2.7,29.14,North,0,0.0,0.0,65,0.00,,,0.00,0.00,VWS V14.01,2013-01-04 01:29:00,
2013-01-03 19:30:00,12.0,2.5,29.14,North,0,0.0,0.0,65,0.00,,,0.00,0.00,VWS V14.01,2013-01-04 01:30:00,
2013-01-03 19:31:00,12.0,2.5,29.14,North,0,0.0,0.0,65,0.00,,,0.00,0.00,VWS V14.01,2013-01-04 01:31:00,
2013-01-03 19:32:00,12.0,2.5,29.14,North,0,0.0,0.0,65,0.00,,,0.00,0.00,VWS V14.01,2013-01-04 01:32:00,
2013-01-03 19:33:00,12.0,2.5,29.14,North,0,0.0,0.0,65,0.00,,,0.00,0.00,VWS V14.01,2013-01-04 01:33:00,
2013-01-03 19:34:00,12.0,2.5,29.14,North,0,0.0,0.0,65,0.00,,,0.00,0.00,VWS V14.01,2013-01-04 01:34:00,
2013-01-03 19:35:00,11.8,2.4,29.14,North,0,0.0,0.0,65,0.00,,,0.00,0.00,VWS V14.01,2013-01-04 01:35:00,
2013-01-03 19:36:00,11.7,2.2,29.14,North,0,0.0,0.0,65,0.00,,,0.00,0.00,VWS V14.01,2013-01-04 01:36:00,
2013-01-03 19:37:00,11.7,2.2,29.14,North,0,0.0,0.0,65,0.00,,,0.00,0.00,VWS V14.01,2013-01-04 01:37:00,
2013-01-03 19:38:00,11.7,2.2,29.14,North,0,0.0,0.0,65,0.00,,,0.00,0.00,VWS V14.01,2013-01-04 01:38:00,
2013-01-03 19:39:00,11.7,2.2,29.14,North,0,0.0,0.0,65,0.00,,,0.00,0.00,VWS V14.01,2013-01-04 01:39:00,
2013-01-03 19:40:00,11.7,2.2,29.14,North,0,0.0,0.0,65,0.00,,,0.00,0.00,VWS V14.01,2013-01-04 01:40:00,
2013-01-03 19:41:00,11.5,2.0,29.14,North,0,0.0,0.0,65,0.00,,,0.00,0.00,VWS V14.01,2013-01-04 01:41:00,
2013-01-03 19:42:00,11.5,2.0,29.14,North,0,0.0,0.0,65,0.00,,,0.00,0.00,VWS V14.01,2013-01-04 01:42:00,
2013-01-03 19:43:00,11.5,2.0,29.14,North,0,0.0,0.0,65,0.00,,,0.00,0.00,VWS V14.01,2013-01-04 01:43:00,
2013-01-03 19:44:00,11.3,1.8,29.14,North,0,0.0,0.0,65,0.00,,,0.00,0.00,VWS V14.01,2013-01-04 01:44:00,
2013-01-03 19:45:00,11.3,1.8,29.14,North,0,0.0,0.0,65,0.00,,,0.00,0.00,VWS V14.01,2013-01-04 01:45:00,
2013-01-03 19:46:00,11.3,1.8,29.14,North,0,0.0,0.0,65,0.00,,,0.00,0.00,VWS V14.01,2013-01-04 01:46:00,
2013-01-03 19:47:00,11.3,1.8,29.14,North,0,0.0,0.0,65,0.00,,,0.00,0.00,VWS V14.01,2013-01-04 01:47:00,
2013-01-03 19:48:00,11.3,1.8,29.14,North,0,0.0,0.0,65,0.00,,,0.00,0.00,VWS V14.01,2013-01-04 01:48:00,
2013-01-03 19:49:00,11.3,1.8,29.14,North,0,0.0,0.0,65,0.00,,,0.00,0.00,VWS V14.01,2013-01-04 01:49:00,
2013-01-03 19:50:00,11.3,1.8,29.14,North,0,0.0,0.0,65,0.00,,,0.00,0.00,VWS V14.01,2013-01-04 01:50:00,
2013-01-03 19:51:00,11.3,1.8,29.14,North,0,0.0,0.0,65,0.00,,,0.00,0.00,VWS V14.01,2013-01-04 01:51:00,
2013-01-03 19:52:00,11.3,1.8,29.14,North,0,0.0,0.0,65,0.00,,,0.00,0.00,VWS V14.01,2013-01-04 01:52:00,
2013-01-03 19:53:00,11.3,1.8,29.14,North,0,0.0,0.0,65,0.00,,,0.00,0.00,VWS V14.01,2013-01-04 01:53:00,
2013-01-03 19:54:00,11.5,2.0,29.14,North,0,0.0,0.0,65,0.00,,,0.00,0.00,VWS V14.01,2013-01-04 01:54:00,
2013-01-03 19:55:00,11.5,2.0,29.14,North,0,0.0,0.0,65,0.00,,,0.00,0.00,VWS V14.01,2013-01-04 01:55:00,
2013-01-03 19:56:00,11.7,2.2,29.14,North,0,0.0,0.0,65,0.00,,,0.00,0.00,VWS V14.01,2013-01-04 01:56:00,
2013-01-03 19:57:00,11.7,2.2,29.14,North,0,0.0,0.0,65,0.00,,,0.00,0.00,VWS V14.01,2013-01-04 01:57:00,
2013-01-03 19:58:00,11.5,2.0,29.14,North,0,0.0,0.0,65,0.00,,,0.00,0.00,VWS V14.01,2013-01-04 01:58:00,
2013-01-03 19:59:00,11.5,2.0,29.14,North,0,0.0,0.0,65,0.00,,,0.00,0.00,VWS V14.01,2013-01-04 01:59:00,
2013-01-03 20:00:00,11.3,1.8,29.14,North,0,0.0,0.0,65,0.00,,,0.00,0.00,VWS V14.01,2013-01-04 02:00:00,
2013-01-03 20:01:00,11.3,1.8,29.14,North,0,0.0,0.0,65,0.00,,,0.00,0.00,VWS V14.01,2013-01-04 02:01:00,
2013-01-03 20:02:00,11.7,2.2,29.14,North,0,0.0,0.0,65,0.00,,,0.00,0.00,VWS V14.01,2013-01-04 02:02:00,
2013-01-03 20:03:00,11.7,2.2,29.14,North,0,0.0,0.0,65,0.00,,,0.00,0.00,VWS V14.01,2013-01-04 02:03:00,
2013-01-03 20:04:00,11.7,2.2,29.14,North,0,0.0,0.0,65,0.00,,,0.00,0.00,VWS V14.01,2013-01-04 02:04:00,
2013-01-03 20:05:00,11.8,2.4,29.14,North,0,0.0,0.0,65,0.00,,,0.00,0.00,VWS V14.01,2013-01-04 02:05:00,
2013-01-03 20:06:00,12.0,2.5,29.14,North,0,0.0,0.0,65,0.00,,,0.00,0.00,VWS V14.01,2013-01-04 02:06:00,
2013-01-03 20:07:00,12.0,2.5,29.14,North,0,0.0,0.0,65,0.00,,,0.00,0.00,VWS V14.01,2013-01-04 02:07:00,
2013-01-03 20:08:00,12.2,2.7,29.14,North,0,0.0,0.0,65,0.00,,,0.00,0.00,VWS V14.01,2013-01-04 02:08:00,
2013-01-03 20:09:00,12.0,2.5,29.14,North,0,0.0,0.0,65,0.00,,,0.00,0.00,VWS V14.01,2013-01-04 02:09:00,
2013-01-03 20:10:00,12.0,2.5,29.14,North,0,0.0,0.0,65,0.00,,,0.00,0.00,VWS V14.01,2013-01-04 02:10:00,
2013-01-03 20:11:00,12.2,2.7,29.14,North,0,0.0,0.0,65,0.00,,,0.00,0.00,VWS V14.01,2013-01-04 02:11:00,
2013-01-03 20:12:00,12.2,2.7,29.14,North,0,0.0,0.0,65,0.00,,,0.00,0.00,VWS V14.01,2013-01-04 02:12:00,
2013-01-03 20:13:00,12.2,2.7,29.14,North,0,0.0,0.0,65,0.00,,,0.00,0.00,VWS V14.01,2013-01-04 02:13:00,
2013-01-03 20:14:00,12.2,2.7,29.14,North,0,0.0,0.0,65,0.00,,,0.00,0.00,VWS V14.01,2013-01-04 02:14:00,
2013-01-03 20:15:00,12.2,2.7,29.14,North,0,0.0,0.0,65,0.00,,,0.00,0.00,VWS V14.01,2013-01-04 02:15:00,
2013-01-03 20:16:00,12.2,2.7,29.14,North,0,0.0,0.0,65,0.00,,,0.00,0.00,VWS V14.01,2013-01-04 02:16:00,
2013-01-03 20:17:00,12.2,2.7,29.14,North,0,0.0,0.0,65,0.00,,,0.00,0.00,VWS V14.01,2013-01-04 02:17:00,
2013-01-03 20:18:00,12.0,2.5,29.14,North,0,0.0,0.0,65,0.00,,,0.00,0.00,VWS V14.01,2013-01-04 02:18:00,
2013-01-03 20:19:00,12.0,2.5,29.14,North,0,0.0,0.0,65,0.00,,,0.00,0.00,VWS V14.01,2013-01-04 02:19:00,
2013-01-03 20:20:00,12.0,2.5,29.12,North,0,0.0,0.0,65,0.00,,,0.00,0.00,VWS V14.01,2013-01-04 02:20:00,
2013-01-03 20:21:00,12.0,2.5,29.12,North,0,0.0,0.0,65,0.00,,,0.00,0.00,VWS V14.01,2013-01-04 02:21:00,
2013-01-03 20:22:00,12.0,2.5,29.12,North,0,0.0,0.0,65,0.00,,,0.00,0.00,VWS V14.01,2013-01-04 02:22:00,
2013-01-03 20:23:00,12.0,2.5,29.12,North,0,0.0,0.0,65,0.00,,,0.00,0.00,VWS V14.01,2013-01-04 02:23:00,
2013-01-03 20:24:00,12.0,2.5,29.12,North,0,0.0,0.0,65,0.00,,,0.00,0.00,VWS V14.01,2013-01-04 02:24:00,
2013-01-03 20:25:00,12.0,2.5,29.12,North,0,0.0,0.0,65,0.00,,,0.00,0.00,VWS V14.01,2013-01-04 02:25:00,
2013-01-03 20:26:00,12.0,2.5,29.12,North,0,0.0,0.0,65,0.00,,,0.00,0.00,VWS V14.01,2013-01-04 02:26:00,
2013-01-03 20:27:00,12.2,2.7,29.12,North,0,0.0,0.0,65,0.00,,,0.00,0.00,VWS V14.01,2013-01-04 02:27:00,
2013-01-03 20:28:00,12.2,2.7,29.12,North,0,0.0,0.0,65,0.00,,,0.00,0.00,VWS V14.01,2013-01-04 02:28:00,
2013-01-03 20:29:00,12.2,2.7,29.12,North,0,0.0,0.0,65,0.00,,,0.00,0.00,VWS V14.01,2013-01-04 02:29:00,
2013-01-03 20:30:00,12.2,2.7,29.12,North,0,0.0,0.0,65,0.00,,,0.00,0.00,VWS V14.01,2013-01-04 02:30:00,
2013-01-03 20:31:00,12.2,2.7,29.12,North,0,0.0,0.0,65,0.00,,,0.00,0.00,VWS V14.01,2013-01-04 02:31:00,
2013-01-03 20:32:00,12.2,2.7,29.12,North,0,0.0,0.0,65,0.00,,,0.00,0.00,VWS V14.01,2013-01-04 02:32:00,
2013-01-03 20:33:00,12.2,2.7,29.12,North,0,0.0,0.0,65,0.00,,,0.00,0.00,VWS V14.01,2013-01-04 02:33:00,
2013-01-03 20:34:00,12.2,2.7,29.12,North,0,0.0,0.0,65,0.00,,,0.00,0.00,VWS V14.01,2013-01-04 02:34:00,
2013-01-03 20:35:00,12.2,2.7,29.14,North,0,0.0,0.0,65,0.00,,,0.00,0.00,VWS V14.01,2013-01-04 02:35:00,
2013-01-03 20:36:00,12.2,2.7,29.14,North,0,0.0,0.0,65,0.00,,,0.00,0.00,VWS V14.01,2013-01-04 02:36:00,
2013-01-03 20:37:00,12.6,3.0,29.14,North,0,0.0,0.0,65,0.00,,,0.00,0.00,VWS V14.01,2013-01-04 02:37:00,
2013-01-03 20:38:00,12.6,3.0,29.14,North,0,0.0,0.0,65,0.00,,,0.00,0.00,VWS V14.01,2013-01-04 02:38:00,
2013-01-03 20:39:00,12.6,3.0,29.14,North,0,0.0,0.0,65,0.00,,,0.00,0.00,VWS V14.01,2013-01-04 02:39:00,
2013-01-03 20:40:00,12.7,3.2,29.14,North,0,0.0,0.0,65,0.00,,,0.00,0.00,VWS V14.01,2013-01-04 02:40:00,
2013-01-03 20:41:00,12.7,3.2,29.14,North,0,0.0,0.0,65,0.00,,,0.00,0.00,VWS V14.01,2013-01-04 02:41:00,
2013-01-03 20:42:00,12.7,3.2,29.14,North,0,0.0,0.0,65,0.00,,,0.00,0.00,VWS V14.01,2013-01-04 02:42:00,
2013-01-03 20:43:00,12.7,3.2,29.14,North,0,0.0,0.0,65,0.00,,,0.00,0.00,VWS V14.01,2013-01-04 02:43:00,
2013-01-03 20:44:00,12.7,3.2,29.14,North,0,0.0,0.0,65,0.00,,,0.00,0.00,VWS V14.01,2013-01-04 02:44:00,
2013-01-03 20:45:00,12.9,3.4,29.14,North,0,0.0,0.0,65,0.00,,,0.00,0.00,VWS V14.01,2013-01-04 02:45:00,
2013-01-03 20:46:00,12.9,3.4,29.14,North,0,0.0,0.0,65,0.00,,,0.00,0.00,VWS V14.01,2013-01-04 02:46:00,
2013-01-03 20:47:00,13.1,3.6,29.14,North,0,0.0,0.0,65,0.00,,,0.00,0.00,VWS V14.01,2013-01-04 02:47:00,
2013-01-03 20:48:00,13.5,3.9,29.14,North,0,0.0,0.0,65,0.00,,,0.00,0.00,VWS V14.01,2013-01-04 02:48:00,
2013-01-03 20:49:00,13.5,3.9,29.14,North,0,0.0,0.0,65,0.00,,,0.00,0.00,VWS V14.01,2013-01-04 02:49:00,
2013-01-03 20:50:00,13.5,3.9,29.14,North,0,0.0,0.0,65,0.00,,,0.00,0.00,VWS V14.01,2013-01-04 02:50:00,
2013-01-03 20:51:00,13.5,3.9,29.14,North,0,0.0,0.0,65,0.00,,,0.00,0.00,VWS V14.01,2013-01-04 02:51:00,
2013-01-03 20:52:00,13.5,3.9,29.14,North,0,0.0,0.0,65,0.00,,,0.00,0.00,VWS V14.01,2013-01-04 02:52:00,
2013-01-03 20:53:00,13.5,3.9,29.14,North,0,0.0,0.0,65,0.00,,,0.00,0.00,VWS V14.01,2013-01-04 02:53:00,
2013-01-03 20:54:00,13.5,3.9,29.14,North,0,0.0,0.0,65,0.00,,,0.00,0.00,VWS V14.01,2013-01-04 02:54:00,
2013-01-03 20:55:00,13.5,3.9,29.14,North,0,0.0,0.0,65,0.00,,,0.00,0.00,VWS V14.01,2013-01-04 02:55:00,
2013-01-03 20:56:00,13.6,4.1,29.14,North,0,0.0,0.0,65,0.00,,,0.00,0.00,VWS V14.01,2013-01-04 02:56:00,
2013-01-03 20:57:00,13.6,4.1,29.14,North,0,0.0,0.0,65,0.00,,,0.00,0.00,VWS V14.01,2013-01-04 02:57:00,
2013-01-03 20:58:00,13.5,3.9,29.14,North,0,0.0,0.0,65,0.00,,,0.00,0.00,VWS V14.01,2013-01-04 02:58:00,
2013-01-03 20:59:00,13.5,3.9,29.14,North,0,0.0,0.0,65,0.00,,,0.00,0.00,VWS V14.01,2013-01-04 02:59:00,
2013-01-03 21:00:00,13.5,3.9,29.14,North,0,0.0,0.0,65,0.00,,,0.00,0.00,VWS V14.01,2013-01-04 03:00:00,
2013-01-03 21:01:00,13.5,3.9,29.14,North,0,0.0,0.0,65,0.00,,,0.00,0.00,VWS V14.01,2013-01-04 03:01:00,
2013-01-03 21:02:00,13.5,3.9,29.14,North,0,0.0,0.0,65,0.00,,,0.00,0.00,VWS V14.01,2013-01-04 03:02:00,
2013-01-03 21:03:00,13.5,3.9,29.14,North,0,0.0,0.0,65,0.00,,,0.00,0.00,VWS V14.01,2013-01-04 03:03:00,
2013-01-03 21:04:00,13.5,3.9,29.14,North,0,0.0,0.0,65,0.00,,,0.00,0.00,VWS V14.01,2013-01-04 03:04:00,
2013-01-03 21:05:00,13.6,4.1,29.14,North,0,0.0,0.0,65,0.00,,,0.00,0.00,VWS V14.01,2013-01-04 03:05:00,
2013-01-03 21:06:00,13.6,4.1,29.14,North,0,0.0,0.0,65,0.00,,,0.00,0.00,VWS V14.01,2013-01-04 03:06:00,
2013-01-03 21:07:00,13.6,4.1,29.14,North,0,0.0,0.0,65,0.00,,,0.00,0.00,VWS V14.01,2013-01-04 03:07:00,
2013-01-03 21:08:00,13.6,4.1,29.14,North,0,0.0,0.0,65,0.00,,,0.00,0.00,VWS V14.01,2013-01-04 03:08:00,
2013-01-03 21:09:00,13.6,4.1,29.14,North,0,0.0,0.0,65,0.00,,,0.00,0.00,VWS V14.01,2013-01-04 03:09:00,
2013-01-03 21:10:00,13.6,4.1,29.14,North,0,0.0,0.0,65,0.00,,,0.00,0.00,VWS V14.01,2013-01-04 03:10:00,
2013-01-03 21:11:00,13.6,4.1,29.14,North,0,0.0,0.0,65,0.00,,,0.00,0.00,VWS V14.01,2013-01-04 03:11:00,
2013-01-03 21:12:00,13.6,4.1,29.14,North,0,0.0,0.0,65,0.00,,,0.00,0.00,VWS V14.01,2013-01-04 03:12:00,
2013-01-03 21:13:00,13.8,4.2,29.14,North,0,0.0,0.0,65,0.00,,,0.00,0.00,VWS V14.01,2013-01-04 03:13:00,
2013-01-03 21:14:00,14.0,7.8,29.14,North,0,0.0,0.0,76,0.00,,,0.00,0.00,VWS V14.01,2013-01-04 03:14:00,
2013-01-03 21:15:00,14.0,8.1,29.14,North,0,0.0,0.0,77,0.00,,,0.00,0.00,VWS V14.01,2013-01-04 03:15:00,
2013-01-03 21:16:00,14.0,8.1,29.14,North,0,0.0,0.0,77,0.00,,,0.00,0.00,VWS V14.01,2013-01-04 03:16:00,
2013-01-03 21:17:00,14.0,8.1,29.14,North,0,0.0,0.0,77,0.00,,,0.00,0.00,VWS V14.01,2013-01-04 03:17:00,
2013-01-03 21:18:00,13.8,8.0,29.14,North,0,0.0,0.0,77,0.00,,,0.00,0.00,VWS V14.01,2013-01-04 03:18:00,
2013-01-03 21:19:00,13.8,8.0,29.14,North,0,0.0,0.0,77,0.00,,,0.00,0.00,VWS V14.01,2013-01-04 03:19:00,
2013-01-03 21:20:00,14.0,8.1,29.14,North,0,0.0,0.0,77,0.00,,,0.00,0.00,VWS V14.01,2013-01-04 03:20:00,
2013-01-03 21:21:00,14.2,8.3,29.14,North,0,0.0,0.0,77,0.00,,,0.00,0.00,VWS V14.01,2013-01-04 03:21:00,
2013-01-03 21:22:00,14.2,8.3,29.14,North,0,0.0,0.0,77,0.00,,,0.00,0.00,VWS V14.01,2013-01-04 03:22:00,
2013-01-03 21:23:00,14.2,8.3,29.14,North,0,0.0,0.0,77,0.00,,,0.00,0.00,VWS V14.01,2013-01-04 03:23:00,
2013-01-03 21:24:00,14.4,8.8,29.14,North,0,0.0,0.0,78,0.00,,,0.00,0.00,VWS V14.01,2013-01-04 03:24:00,
2013-01-03 21:25:00,14.2,8.6,29.14,North,0,0.0,0.0,78,0.00,,,0.00,0.00,VWS V14.01,2013-01-04 03:25:00,
2013-01-03 21:26:00,14.4,8.8,29.14,North,0,0.0,0.0,78,0.00,,,0.00,0.00,VWS V14.01,2013-01-04 03:26:00,
2013-01-03 21:27:00,14.2,8.6,29.14,North,0,0.0,0.0,78,0.00,,,0.00,0.00,VWS V14.01,2013-01-04 03:27:00,
2013-01-03 21:28:00,14.2,8.6,29.14,North,0,0.0,0.0,78,0.00,,,0.00,0.00,VWS V14.01,2013-01-04 03:28:00,
2013-01-03 21:29:00,14.2,8.6,29.14,North,0,0.0,0.0,78,0.00,,,0.00,0.00,VWS V14.01,2013-01-04 03:29:00,
2013-01-03 21:30:00,14.2,8.6,29.14,North,0,0.0,0.0,78,0.00,,,0.00,0.00,VWS V14.01,2013-01-04 03:30:00,
2013-01-03 21:31:00,14.2,8.6,29.14,North,0,0.0,0.0,78,0.00,,,0.00,0.00,VWS V14.01,2013-01-04 03:31:00,
2013-01-03 21:32:00,14.2,8.6,29.14,North,0,0.0,0.0,78,0.00,,,0.00,0.00,VWS V14.01,2013-01-04 03:32:00,
2013-01-03 21:33:00,14.2,8.6,29.14,North,0,0.0,0.0,78,0.00,,,0.00,0.00,VWS V14.01,2013-01-04 03:33:00,
2013-01-03 21:34:00,14.2,8.6,29.14,North,0,0.0,0.0,78,0.00,,,0.00,0.00,VWS V14.01,2013-01-04 03:34:00,
2013-01-03 21:35:00,14.2,8.6,29.14,North,0,0.0,0.0,78,0.00,,,0.00,0.00,VWS V14.01,2013-01-04 03:35:00,
2013-01-03 21:36:00,14.2,8.6,29.14,North,0,0.0,0.0,78,0.00,,,0.00,0.00,VWS V14.01,2013-01-04 03:36:00,
2013-01-03 21:37:00,14.4,9.1,29.14,North,0,0.0,0.0,79,0.00,,,0.00,0.00,VWS V14.01,2013-01-04 03:37:00,
2013-01-03 21:38:00,14.4,9.1,29.14,North,0,0.0,0.0,79,0.00,,,0.00,0.00,VWS V14.01,2013-01-04 03:38:00,
2013-01-03 21:39:00,14.2,8.9,29.14,North,0,0.0,0.0,79,0.00,,,0.00,0.00,VWS V14.01,2013-01-04 03:39:00,
2013-01-03 21:40:00,14.4,9.1,29.14,North,0,0.0,0.0,79,0.00,,,0.00,0.00,VWS V14.01,2013-01-04 03:40:00,
2013-01-03 21:41:00,14.4,9.1,29.14,North,0,0.0,0.0,79,0.00,,,0.00,0.00,VWS V14.01,2013-01-04 03:41:00,
2013-01-03 21:42:00,14.4,9.1,29.14,North,0,0.0,0.0,79,0.00,,,0.00,0.00,VWS V14.01,2013-01-04 03:42:00,
2013-01-03 21:43:00,14.4,9.1,29.14,North,0,0.0,0.0,79,0.00,,,0.00,0.00,VWS V14.01,2013-01-04 03:43:00,
2013-01-03 21:44:00,14.4,9.1,29.14,North,0,0.0,0.0,79,0.00,,,0.00,0.00,VWS V14.01,2013-01-04 03:44:00,
2013-01-03 21:45:00,14.4,9.1,29.14,North,0,0.0,0.0,79,0.00,,,0.00,0.00,VWS V14.01,2013-01-04 03:45:00,
2013-01-03 21:46:00,14.2,8.9,29.14,North,0,0.0,0.0,79,0.00,,,0.00,0.00,VWS V14.01,2013-01-04 03:46:00,
2013-01-03 21:47:00,14.2,8.9,29.14,North,0,0.0,0.0,79,0.00,,,0.00,0.00,VWS V14.01,2013-01-04 03:47:00,
2013-01-03 21:48:00,14.0,8.7,29.14,North,0,0.0,0.0,79,0.00,,,0.00,0.00,VWS V14.01,2013-01-04 03:48:00,
2013-01-03 21:49:00,14.0,8.7,29.14,North,0,0.0,0.0,79,0.00,,,0.00,0.00,VWS V14.01,2013-01-04 03:49:00,
2013-01-03 21:50:00,14.0,8.7,29.14,North,0,0.0,0.0,79,0.00,,,0.00,0.00,VWS V14.01,2013-01-04 03:50:00,
2013-01-03 21:51:00,13.8,8.5,29.14,North,0,0.0,0.0,79,0.00,,,0.00,0.00,VWS V14.01,2013-01-04 03:51:00,
2013-01-03 21:52:00,13.8,8.5,29.14,North,0,0.0,0.0,79,0.00,,,0.00,0.00,VWS V14.01,2013-01-04 03:52:00,
2013-01-03 21:53:00,13.8,8.5,29.14,North,0,0.0,0.0,79,0.00,,,0.00,0.00,VWS V14.01,2013-01-04 03:53:00,
2013-01-03 21:54:00,13.8,8.5,29.15,North,0,0.0,0.0,79,0.00,,,0.00,0.00,VWS V14.01,2013-01-04 03:54:00,
2013-01-03 21:55:00,13.6,8.4,29.15,North,0,0.0,0.0,79,0.00,,,0.00,0.00,VWS V14.01,2013-01-04 03:55:00,
2013-01-03 21:56:00,13.6,8.4,29.15,North,0,0.0,0.0,79,0.00,,,0.00,0.00,VWS V14.01,2013-01-04 03:56:00,
2013-01-03 21:57:00,13.6,8.4,29.15,North,0,0.0,0.0,79,0.00,,,0.00,0.00,VWS V14.01,2013-01-04 03:57:00,
2013-01-03 21:58:00,13.5,8.2,29.14,North,0,0.0,0.0,79,0.00,,,0.00,0.00,VWS V14.01,2013-01-04 03:58:00,
2013-01-03 21:59:00,13.5,8.2,29.15,North,0,0.0,0.0,79,0.00,,,0.00,0.00,VWS V14.01,2013-01-04 03:59:00,
2013-01-03 22:00:00,13.5,8.2,29.15,North,0,0.0,0.0,79,0.00,,,0.00,0.00,VWS V14.01,2013-01-04 04:00:00,
2013-01-03 22:01:00,13.5,8.2,29.15,North,0,0.0,0.0,79,0.00,,,0.00,0.00,VWS V14.01,2013-01-04 04:01:00,
2013-01-03 22:02:00,13.5,8.2,29.15,North,0,0.0,0.0,79,0.00,,,0.00,0.00,VWS V14.01,2013-01-04 04:02:00,
2013-01-03 22:03:00,13.3,8.0,29.14,North,0,0.0,0.0,79,0.00,,,0.04,0.00,VWS V14.01,2013-01-04 04:03:00,
2013-01-03 22:04:00,13.3,8.0,29.15,North,0,0.0,0.0,79,0.00,,,0.04,0.00,VWS V14.01,2013-01-04 04:04:00,
2013-01-03 22:05:00,13.3,8.0,29.15,North,0,0.0,0.0,79,0.00,,,0.04,0.00,VWS V14.01,2013-01-04 04:05:00,
2013-01-03 22:06:00,13.3,8.0,29.15,North,0,0.0,0.0,79,0.00,,,0.04,0.00,VWS V14.01,2013-01-04 04:06:00,
2013-01-03 22:07:00,13.1,7.8,29.15,North,0,0.0,0.0,79,0.00,,,0.04,0.00,VWS V14.01,2013-01-04 04:07:00,
2013-01-03 22:08:00,13.1,7.8,29.14,North,0,0.0,0.0,79,0.00,,,0.04,0.00,VWS V14.01,2013-01-04 04:08:00,
2013-01-03 22:09:00,12.9,7.7,29.15,North,0,0.0,0.0,79,0.00,,,0.04,0.00,VWS V14.01,2013-01-04 04:09:00,
2013-01-03 22:10:00,12.9,7.7,29.15,North,0,0.0,0.0,79,0.00,,,0.04,0.00,VWS V14.01,2013-01-04 04:10:00,
2013-01-03 22:11:00,12.9,7.7,29.15,North,0,0.0,0.0,79,0.00,,,0.04,0.00,VWS V14.01,2013-01-04 04:11:00,
2013-01-03 22:12:00,12.7,7.5,29.15,North,0,0.0,0.0,79,0.00,,,0.04,0.00,VWS V14.01,2013-01-04 04:12:00,
2013-01-03 22:13:00,12.7,7.5,29.14,North,0,0.0,0.0,79,0.00,,,0.04,0.00,VWS V14.01,2013-01-04 04:13:00,
2013-01-03 22:14:00,12.7,7.5,29.15,North,0,0.0,0.0,79,0.00,,,0.04,0.00,VWS V14.01,2013-01-04 04:14:00,
2013-01-03 22:15:00,12.7,7.5,29.15,North,0,0.0,0.0,79,0.00,,,0.04,0.00,VWS V14.01,2013-01-04 04:15:00,
2013-01-03 22:16:00,12.7,7.5,29.15,North,0,0.0,0.0,79,0.00,,,0.04,0.00,VWS V14.01,2013-01-04 04:16:00,
2013-01-03 22:17:00,12.7,7.5,29.15,North,0,0.0,0.0,79,0.00,,,0.04,0.00,VWS V14.01,2013-01-04 04:17:00,
2013-01-03 22:18:00,12.6,7.3,29.14,North,0,0.0,0.0,79,0.00,,,0.04,0.00,VWS V14.01,2013-01-04 04:18:00,
2013-01-03 22:19:00,12.6,7.3,29.15,North,0,0.0,0.0,79,0.00,,,0.04,0.00,VWS V14.01,2013-01-04 04:19:00,
2013-01-03 22:20:00,12.4,7.1,29.15,North,0,0.0,0.0,79,0.00,,,0.04,0.00,VWS V14.01,2013-01-04 04:20:00,
2013-01-03 22:21:00,12.2,6.9,29.15,North,0,0.0,0.0,79,0.00,,,0.04,0.00,VWS V14.01,2013-01-04 04:21:00,
2013-01-03 22:22:00,12.0,6.8,29.15,North,0,0.0,0.0,79,0.00,,,0.04,0.00,VWS V14.01,2013-01-04 04:22:00,
2013-01-03 22:23:00,12.0,6.8,29.14,North,0,0.0,0.0,79,0.00,,,0.04,0.00,VWS V14.01,2013-01-04 04:23:00,
2013-01-03 22:24:00,12.0,6.8,29.15,North,0,0.0,0.0,79,0.00,,,0.04,0.00,VWS V14.01,2013-01-04 04:24:00,
2013-01-03 22:25:00,11.8,6.6,29.15,North,0,0.0,0.0,79,0.00,,,0.04,0.00,VWS V14.01,2013-01-04 04:25:00,
2013-01-03 22:26:00,11.8,6.6,29.15,North,0,0.0,0.0,79,0.00,,,0.04,0.00,VWS V14.01,2013-01-04 04:26:00,
2013-01-03 22:27:00,11.8,6.6,29.15,North,0,0.0,0.0,79,0.00,,,0.04,0.00,VWS V14.01,2013-01-04 04:27:00,
2013-01-03 22:28:00,11.8,6.6,29.14,North,0,0.0,0.0,79,0.00,,,0.04,0.00,VWS V14.01,2013-01-04 04:28:00,
2013-01-03 22:29:00,11.8,6.6,29.15,North,0,0.0,0.0,79,0.00,,,0.04,0.00,VWS V14.01,2013-01-04 04:29:00,
2013-01-03 22:30:00,11.8,6.6,29.15,North,0,0.0,0.0,79,0.00,,,0.04,0.00,VWS V14.01,2013-01-04 04:30:00,
2013-01-03 22:31:00,11.8,6.6,29.15,North,0,0.0,0.0,79,0.00,,,0.04,0.00,VWS V14.01,2013-01-04 04:31:00,
2013-01-03 22:32:00,11.8,6.6,29.15,North,0,0.0,0.0,79,0.00,,,0.04,0.00,VWS V14.01,2013-01-04 04:32:00,
2013-01-03 22:33:00,11.8,6.6,29.14,North,0,0.0,0.0,79,0.00,,,0.04,0.00,VWS V14.01,2013-01-04 04:33:00,
2013-01-03 22:34:00,11.8,6.6,29.15,North,0,0.0,0.0,79,0.00,,,0.04,0.00,VWS V14.01,2013-01-04 04:34:00,
2013-01-03 22:35:00,11.8,6.6,29.15,North,0,0.0,0.0,79,0.00,,,0.04,0.00,VWS V14.01,2013-01-04 04:35:00,
2013-01-03 22:36:00,11.8,6.6,29.15,North,0,0.0,0.0,79,0.00,,,0.04,0.00,VWS V14.01,2013-01-04 04:36:00,
2013-01-03 22:37:00,11.8,6.6,29.15,North,0,0.0,0.0,79,0.00,,,0.04,0.00,VWS V14.01,2013-01-04 04:37:00,
2013-01-03 22:38:00,11.8,6.6,29.14,North,0,0.0,0.0,79,0.00,,,0.04,0.00,VWS V14.01,2013-01-04 04:38:00,
2013-01-03 22:39:00,11.8,6.6,29.15,North,0,0.0,0.0,79,0.00,,,0.04,0.00,VWS V14.01,2013-01-04 04:39:00,
2013-01-03 22:40:00,11.8,6.6,29.15,North,0,0.0,0.0,79,0.00,,,0.04,0.00,VWS V14.01,2013-01-04 04:40:00,
2013-01-03 22:41:00,11.8,6.6,29.15,North,0,0.0,0.0,79,0.00,,,0.04,0.00,VWS V14.01,2013-01-04 04:41:00,
2013-01-03 22:42:00,12.0,6.8,29.15,North,0,0.0,0.0,79,0.00,,,0.04,0.00,VWS V14.01,2013-01-04 04:42:00,
2013-01-03 22:43:00,12.2,6.9,29.14,North,0,0.0,0.0,79,0.00,,,0.04,0.00,VWS V14.01,2013-01-04 04:43:00,
2013-01-03 22:44:00,12.2,6.9,29.15,North,0,0.0,0.0,79,0.00,,,0.04,0.00,VWS V14.01,2013-01-04 04:44:00,
2013-01-03 22:45:00,12.2,6.9,29.15,North,0,0.0,0.0,79,0.00,,,0.04,0.00,VWS V14.01,2013-01-04 04:45:00,
2013-01-03 22:46:00,12.6,7.3,29.15,North,0,0.0,0.0,79,0.00,,,0.04,0.00,VWS V14.01,2013-01-04 04:46:00,
2013-01-03 22:47:00,12.6,7.3,29.15,North,0,0.0,0.0,79,0.00,,,0.04,0.00,VWS V14.01,2013-01-04 04:47:00,
2013-01-03 22:48:00,12.6,7.3,29.14,North,0,0.0,0.0,79,0.00,,,0.04,0.00,VWS V14.01,2013-01-04 04:48:00,
2013-01-03 22:49:00,12.6,7.3,29.15,North,0,0.0,0.0,79,0.00,,,0.04,0.00,VWS V14.01,2013-01-04 04:49:00,
2013-01-03 22:50:00,12.7,7.5,29.15,North,0,0.0,0.0,79,0.00,,,0.04,0.00,VWS V14.01,2013-01-04 04:50:00,
2013-01-03 22:51:00,12.9,7.7,29.15,North,0,0.0,0.0,79,0.00,,,0.04,0.00,VWS V14.01,2013-01-04 04:51:00,
2013-01-03 22:52:00,13.1,7.8,29.15,North,0,0.0,0.0,79,0.00,,,0.04,0.00,VWS V14.01,2013-01-04 04:52:00,
2013-01-03 22:53:00,13.1,7.8,29.14,North,0,0.0,0.0,79,0.00,,,0.04,0.00,VWS V14.01,2013-01-04 04:53:00,
2013-01-03 22:54:00,13.3,8.0,29.15,North,0,0.0,0.0,79,0.00,,,0.04,0.00,VWS V14.01,2013-01-04 04:54:00,
2013-01-03 22:55:00,13.3,8.0,29.15,North,0,0.0,0.0,79,0.00,,,0.04,0.00,VWS V14.01,2013-01-04 04:55:00,
2013-01-03 22:56:00,13.3,8.0,29.15,North,0,0.0,0.0,79,0.00,,,0.04,0.00,VWS V14.01,2013-01-04 04:56:00,
2013-01-03 22:57:00,13.3,8.0,29.15,North,0,0.0,0.0,79,0.00,,,0.04,0.00,VWS V14.01,2013-01-04 04:57:00,
2013-01-03 22:58:00,13.3,8.0,29.14,North,0,0.0,0.0,79,0.00,,,0.04,0.00,VWS V14.01,2013-01-04 04:58:00,
2013-01-03 22:59:00,13.3,8.0,29.15,North,0,0.0,0.0,79,0.00,,,0.04,0.00,VWS V14.01,2013-01-04 04:59:00,
2013-01-03 23:00:00,13.3,8.0,29.14,North,0,0.0,0.0,79,0.00,,,0.04,0.00,VWS V14.01,2013-01-04 05:00:00,
2013-01-03 23:01:00,13.3,8.0,29.14,North,0,0.0,0.0,79,0.00,,,0.04,0.00,VWS V14.01,2013-01-04 05:01:00,
2013-01-03 23:02:00,13.3,8.0,29.15,North,0,0.0,0.0,79,0.00,,,0.04,0.00,VWS V14.01,2013-01-04 05:02:00,
2013-01-03 23:03:00,13.3,8.0,29.15,North,0,0.0,0.0,79,0.00,,,0.04,0.00,VWS V14.01,2013-01-04 05:03:00,
2013-01-03 23:04:00,13.3,8.0,29.15,North,0,0.0,0.0,79,0.00,,,0.04,0.00,VWS V14.01,2013-01-04 05:04:00,
2013-01-03 23:05:00,13.3,8.0,29.15,North,0,0.0,0.0,79,0.00,,,0.04,0.00,VWS V14.01,2013-01-04 05:05:00,
2013-01-03 23:06:00,13.3,8.0,29.14,North,0,0.0,0.0,79,0.00,,,0.04,0.00,VWS V14.01,2013-01-04 05:06:00,
2013-01-03 23:07:00,13.5,8.2,29.15,North,0,0.0,0.0,79,0.00,,,0.04,0.00,VWS V14.01,2013-01-04 05:07:00,
2013-01-03 23:08:00,13.5,8.2,29.15,North,0,0.0,0.0,79,0.00,,,0.04,0.00,VWS V14.01,2013-01-04 05:08:00,
2013-01-03 23:09:00,13.5,8.2,29.15,North,0,0.0,0.0,79,0.00,,,0.04,0.00,VWS V14.01,2013-01-04 05:09:00,
2013-01-03 23:10:00,13.5,8.2,29.15,North,0,0.0,0.0,79,0.00,,,0.04,0.00,VWS V14.01,2013-01-04 05:10:00,
2013-01-03 23:11:00,13.6,8.4,29.14,North,0,0.0,0.0,79,0.00,,,0.04,0.00,VWS V14.01,2013-01-04 05:11:00,
2013-01-03 23:12:00,13.6,8.4,29.15,North,0,0.0,0.0,79,0.00,,,0.04,0.00,VWS V14.01,2013-01-04 05:12:00,
2013-01-03 23:13:00,13.6,8.4,29.15,North,0,0.0,0.0,79,0.00,,,0.04,0.00,VWS V14.01,2013-01-04 05:13:00,
2013-01-03 23:14:00,13.8,8.5,29.15,North,0,0.0,0.0,79,0.00,,,0.04,0.00,VWS V14.01,2013-01-04 05:14:00,
2013-01-03 23:15:00,13.8,8.5,29.15,North,0,0.0,0.0,79,0.00,,,0.04,0.00,VWS V14.01,2013-01-04 05:15:00,
2013-01-03 23:16:00,13.8,8.5,29.14,North,0,0.0,0.0,79,0.00,,,0.04,0.00,VWS V14.01,2013-01-04 05:16:00,
2013-01-03 23:17:00,13.8,8.5,29.15,North,0,0.0,0.0,79,0.00,,,0.04,0.00,VWS V14.01,2013-01-04 05:17:00,
2013-01-03 23:18:00,13.8,8.5,29.15,North,0,0.0,0.0,79,0.00,,,0.04,0.00,VWS V14.01,2013-01-04 05:18:00,
2013-01-03 23:19:00,13.8,8.5,29.15,North,0,0.0,0.0,79,0.00,,,0.04,0.00,VWS V14.01,2013-01-04 05:19:00,
2013-01-03 23:20:00,13.8,8.5,29.11,North,0,0.0,0.0,79,0.00,,,0.04,0.00,VWS V14.01,2013-01-04 05:20:00,
2013-01-03 23:21:00,13.8,8.5,29.12,North,0,0.0,0.0,79,0.00,,,0.04,0.00,VWS V14.01,2013-01-04 05:21:00,
2013-01-03 23:22:00,13.8,8.5,29.11,North,0,0.0,0.0,79,0.00,,,0.04,0.00,VWS V14.01,2013-01-04 05:22:00,
2013-01-03 23:23:00,13.8,8.5,29.11,North,0,0.0,0.0,79,0.00,,,0.04,0.00,VWS V14.01,2013-01-04 05:23:00,
2013-01-03 23:24:00,13.8,8.5,29.11,North,0,0.0,0.0,79,0.00,,,0.04,0.00,VWS V14.01,2013-01-04 05:24:00,
2013-01-03 23:25:00,13.8,8.5,29.11,North,0,0.0,0.0,79,0.00,,,0.04,0.00,VWS V14.01,2013-01-04 05:25:00,
2013-01-03 23:26:00,13.8,8.5,29.12,North,0,0.0,0.0,79,0.00,,,0.04,0.00,VWS V14.01,2013-01-04 05:26:00,
2013-01-03 23:27:00,13.8,8.5,29.11,North,0,0.0,0.0,79,0.00,,,0.04,0.00,VWS V14.01,2013-01-04 05:27:00,
2013-01-03 23:28:00,13.8,8.5,29.11,North,0,0.0,0.0,79,0.00,,,0.04,0.00,VWS V14.01,2013-01-04 05:28:00,
2013-01-03 23:29:00,13.8,8.5,29.11,North,0,0.0,0.0,79,0.00,,,0.04,0.00,VWS V14.01,2013-01-04 05:29:00,
2013-01-03 23:30:00,14.0,10.1,29.11,North,0,0.0,0.0,84,0.00,,,0.04,0.00,VWS V14.01,2013-01-04 05:30:00,
2013-01-03 23:31:00,14.0,10.1,29.12,North,0,0.0,0.0,84,0.00,,,0.04,0.00,VWS V14.01,2013-01-04 05:31:00,
2013-01-03 23:32:00,14.0,10.1,29.11,North,0,0.0,0.0,84,0.00,,,0.04,0.00,VWS V14.01,2013-01-04 05:32:00,
2013-01-03 23:33:00,14.2,10.0,29.11,North,0,0.0,0.0,83,0.00,,,0.04,0.00,VWS V14.01,2013-01-04 05:33:00,
2013-01-03 23:34:00,14.2,10.0,29.11,North,0,0.0,0.0,83,0.00,,,0.04,0.00,VWS V14.01,2013-01-04 05:34:00,
2013-01-03 23:35:00,14.2,10.0,29.11,North,0,0.0,0.0,83,0.00,,,0.04,0.00,VWS V14.01,2013-01-04 05:35:00,
2013-01-03 23:36:00,14.2,10.2,29.12,North,0,0.0,0.0,84,0.00,,,0.04,0.00,VWS V14.01,2013-01-04 05:36:00,
2013-01-03 23:37:00,14.2,10.2,29.11,North,0,0.0,0.0,84,0.00,,,0.04,0.00,VWS V14.01,2013-01-04 05:37:00,
2013-01-03 23:38:00,14.2,10.2,29.11,North,0,0.0,0.0,84,0.00,,,0.04,0.00,VWS V14.01,2013-01-04 05:38:00,
2013-01-03 23:39:00,14.4,10.4,29.11,North,0,0.0,0.0,84,0.00,,,0.04,0.00,VWS V14.01,2013-01-04 05:39:00,
2013-01-03 23:40:00,14.4,10.4,29.11,North,0,0.0,0.0,84,0.00,,,0.04,0.00,VWS V14.01,2013-01-04 05:40:00,
2013-01-03 23:41:00,14.4,10.4,29.12,North,0,0.0,0.0,84,0.00,,,0.04,0.00,VWS V14.01,2013-01-04 05:41:00,
2013-01-03 23:42:00,14.4,10.4,29.11,North,0,0.0,0.0,84,0.00,,,0.04,0.00,VWS V14.01,2013-01-04 05:42:00,
2013-01-03 23:43:00,14.4,10.4,29.11,North,0,0.0,0.0,84,0.00,,,0.04,0.00,VWS V14.01,2013-01-04 05:43:00,
2013-01-03 23:44:00,14.4,10.4,29.11,North,0,0.0,0.0,84,0.00,,,0.04,0.00,VWS V14.01,2013-01-04 05:44:00,
2013-01-03 23:45:00,14.4,10.4,29.11,North,0,0.0,0.0,84,0.00,,,0.04,0.00,VWS V14.01,2013-01-04 05:45:00,
2013-01-03 23:46:00,14.4,10.4,29.12,North,0,0.0,0.0,84,0.00,,,0.04,0.00,VWS V14.01,2013-01-04 05:46:00,
2013-01-03 23:47:00,14.4,10.4,29.11,North,0,0.0,0.0,84,0.00,,,0.04,0.00,VWS V14.01,2013-01-04 05:47:00,
2013-01-03 23:48:00,14.4,10.1,29.11,North,0,0.0,0.0,83,0.00,,,0.04,0.00,VWS V14.01,2013-01-04 05:48:00,
2013-01-03 23:49:00,14.4,10.1,29.11,North,0,0.0,0.0,83,0.00,,,0.04,0.00,VWS V14.01,2013-01-04 05:49:00,
2013-01-03 23:50:00,14.4,10.1,29.11,North,0,0.0,0.0,83,0.00,,,0.04,0.00,VWS V14.01,2013-01-04 05:50:00,
2013-01-03 23:51:00,14.4,10.1,29.12,North,0,0.0,0.0,83,0.00,,,0.04,0.00,VWS V14.01,2013-01-04 05:51:00,
2013-01-03 23:52:00,14.4,10.1,29.11,North,0,0.0,0.0,83,0.00,,,0.04,0.00,VWS V14.01,2013-01-04 05:52:00,
2013-01-03 23:53:00,14.4,10.1,29.11,North,0,0.0,0.0,83,0.00,,,0.04,0.00,VWS V14.01,2013-01-04 05:53:00,
2013-01-03 23:54:00,14.4,10.1,29.11,North,0,0.0,0.0,83,0.00,,,0.04,0.00,VWS V14.01,2013-01-04 05:54:00,
2013-01-03 23:55:00,14.4,10.1,29.11,North,0,0.0,0.0,83,0.00,,,0.04,0.00,VWS V14.01,2013-01-04 05:55:00,
2013-01-03 23:56:00,14.4,10.1,29.12,North,0,0.0,0.0,83,0.00,,,0.04,0.00,VWS V14.01,2013-01-04 05:56:00,
2013-01-03 23:57:00,14.4,10.1,29.11,North,0,0.0,0.0,83,0.00,,,0.04,0.00,VWS V14.01,2013-01-04 05:57:00,
2013-01-03 23:58:00,14.2,10.0,29.11,North,0,0.0,0.0,83,0.00,,,0.04,0.00,VWS V14.01,2013-01-04 05:58:00,
2013-01-03 23:59:00,14.4,10.1,29.11,North,0,0.0,0.0,83,0.00,,,0.04,0.00,VWS V14.01,2013-01-04 05:59:00,